Darstellungsparameter: Aktuell verwendete Einstellungen:
Skalierung der Graphiken ... ?
xyx+y,   Skalierungsfaktor:      Skalierung: Modus: x, Faktor: 1
Darstellungszeitraum ... ?
Vom - - bis: - -   Zeitraum: 25.04.2019 - 24.04.2020
Min/Max/Avg-Anzeige ... ?
Zeige MMA aktuell
Zeige MMA Monat
Zeige MMA alles
Zeige --A aktuell
Zeige --A Monat
Zeige --A alles
Keine MMA-Anzeige
MMA:
Keine MMA-Graphiken
MMA-Basis: 25.04.2019 - 24.04.2020
Quicknavigation für Darstellung... ?
Tage:      1T, 2T, 3T, 5T -1T -2T -3T -5T +1T +2T +3T +5T
Wochen: 1W, 2W, 3W -1W -2W -3W +1W +2W +3W
Monate: 1M, 3M, 6M -1M -3M -6M +1M +3M +6M
Jahre:    1J, 3J, 5J, 10J -1J -3J -5J -10J +1J +3J +5J +10J
Nutze für die Darstellung ... ?
Originaldaten oder ...
Mittelwerte Minima Maxima auf...
Stundenbasis Tagesbasis Wochenbasis
Monatsbasis Jahresbasis      Datenbasis: Mittelwerte auf Stundenbasis
Darstellen als:
Statistik (Auto) Statistik J:M      Darstellung:
Zur Graphik,    zurück zur Übersicht aller Sensoren.
 
Tabellarische Datenbersicht: ?
 
Sensor: Nr:Datum:Temp:Feuchte:
Aussen-T/F 1 25-04-2019 00:00:00 8.3 C 53.8000 %
2 25-04-2019 01:00:00 7.4 C 56.6000 %
3 25-04-2019 02:00:00 6.78 C 60.6000 %
4 25-04-2019 03:00:00 6.42 C 63.6000 %
5 25-04-2019 04:00:00 6.44 C 67.0000 %
6 25-04-2019 05:00:00 6.3 C 67.2000 %
7 25-04-2019 06:00:00 6.42 C 68.2000 %
8 25-04-2019 07:00:00 7.6 C 69.2000 %
9 25-04-2019 08:00:00 9.26 C 58.4000 %
10 25-04-2019 09:00:00 10.92 C 46.4000 %
11 25-04-2019 10:00:00 11.78 C 37.8000 %
12 25-04-2019 11:00:00 16.32 C 21.2000 %
13 25-04-2019 12:00:00 17.94 C 20.0000 %
14 25-04-2019 13:00:00 19.44 C 20.0000 %
15 25-04-2019 14:00:00 21 C 20.0000 %
16 25-04-2019 15:00:00 22.38 C 20.0000 %
17 25-04-2019 16:00:00 21.88 C 20.0000 %
18 25-04-2019 17:00:00 21.46 C 20.0000 %
19 25-04-2019 18:00:00 20.02 C 20.0000 %
20 25-04-2019 19:00:00 16.58 C 20.0000 %
21 25-04-2019 20:00:00 14.8 C 20.0000 %
22 25-04-2019 21:00:00 13.64 C 20.0000 %
23 25-04-2019 22:00:00 12.82 C 20.0000 %
24 25-04-2019 23:00:00 11.92 C 23.6000 %
25 26-04-2019 00:00:00 10.92 C 29.4000 %
Sensor: Nr:Datum:Temp:Feuchte:
Aussen-T/F 26 26-04-2019 01:00:00 10.7 C 31.6000 %
27 26-04-2019 02:00:00 11.2 C 26.4000 %
28 26-04-2019 03:00:00 10.98 C 26.6000 %
29 26-04-2019 04:00:00 10.74 C 27.6000 %
30 26-04-2019 05:00:00 10.02 C 34.8000 %
31 26-04-2019 06:00:00 9 C 48.2000 %
32 26-04-2019 07:00:00 9.02 C 49.6000 %
33 26-04-2019 08:00:00 9.12 C 48.6000 %
34 26-04-2019 09:00:00 9.58 C 45.8000 %
35 26-04-2019 10:00:00 9.92 C 42.0000 %
36 26-04-2019 11:00:00 10.9 C 36.6000 %
37 26-04-2019 12:00:00 12.78 C 27.2000 %
38 26-04-2019 13:00:00 13.74 C 21.2000 %
39 26-04-2019 14:00:00 14.2 C 20.0000 %
40 26-04-2019 15:00:00 14.14 C 20.0000 %
41 26-04-2019 16:00:00 15.84 C 20.0000 %
42 26-04-2019 17:00:00 16.5 C 20.0000 %
43 26-04-2019 18:00:00 17.32 C 20.0000 %
44 26-04-2019 19:00:00 15.18 C 23.0000 %
45 26-04-2019 20:00:00 11.68 C 29.2000 %
46 26-04-2019 21:00:00 10.56 C 36.4000 %
47 26-04-2019 22:00:00 9.88 C 41.0000 %
48 26-04-2019 23:00:00 9.28 C 42.8000 %
49 27-04-2019 00:00:00 8.62 C 47.0000 %
50 27-04-2019 01:00:00 8.7 C 46.8000 %
Sensor: Nr:Datum:Temp:Feuchte:
Aussen-T/F 51 27-04-2019 02:00:00 7.92 C 48.6000 %
52 27-04-2019 03:00:00 7.02 C 50.6000 %
53 27-04-2019 04:00:00 6.36 C 51.4000 %
54 27-04-2019 05:00:00 5.72 C 52.0000 %
55 27-04-2019 06:00:00 5.84 C 55.0000 %
56 27-04-2019 07:00:00 7.2 C 55.6000 %
57 27-04-2019 08:00:00 9.02 C 49.8000 %
58 27-04-2019 09:00:00 10.9 C 35.0000 %
59 27-04-2019 10:00:00 11.56 C 29.2000 %
60 27-04-2019 11:00:00 13 C 20.0000 %
61 27-04-2019 12:00:00 12.68 C 25.4000 %
62 27-04-2019 13:00:00 12.48 C 22.8000 %
63 27-04-2019 14:00:00 9 C 37.8000 %
64 27-04-2019 15:00:00 10.22 C 36.4000 %
65 27-04-2019 16:00:00 12.32 C 23.0000 %
66 27-04-2019 17:00:00 12.26 C 21.2000 %
67 27-04-2019 18:00:00 10.06 C 32.2000 %
68 27-04-2019 19:00:00 8.46 C 42.0000 %
69 27-04-2019 20:00:00 7.06 C 45.8000 %
70 27-04-2019 21:00:00 6.82 C 48.2000 %
71 27-04-2019 22:00:00 6.44 C 49.6000 %
72 27-04-2019 23:00:00 6.72 C 43.4000 %
73 28-04-2019 00:00:00 7.02 C 35.8000 %
74 28-04-2019 01:00:00 6.9 C 36.0000 %
75 28-04-2019 02:00:00 6.9 C 36.0000 %
Sensor: Nr:Datum:Temp:Feuchte:
Aussen-T/F 76 28-04-2019 03:00:00 6.9 C 36.0000 %
77 28-04-2019 04:00:00 6.9 C 36.0000 %
78 28-04-2019 05:00:00 6.7 C 35.6000 %
79 28-04-2019 06:00:00 5.86 C 35.0000 %
80 28-04-2019 07:00:00 6.94 C 31.0000 %
81 28-04-2019 08:00:00 7.4 C 29.8000 %
82 28-04-2019 09:00:00 7.84 C 31.4000 %
83 28-04-2019 10:00:00 9.58 C 24.4000 %
84 28-04-2019 11:00:00 11.12 C 20.0000 %
85 28-04-2019 12:00:00 10.64 C 20.0000 %
86 28-04-2019 13:00:00 11.62 C 20.0000 %
87 28-04-2019 14:00:00 12.72 C 20.0000 %
88 28-04-2019 15:00:00 10.54 C 24.4000 %
89 28-04-2019 16:00:00 10.08 C 31.8000 %
90 28-04-2019 17:00:00 11.36 C 24.8000 %
91 28-04-2019 18:00:00 11.36 C 21.2000 %
92 28-04-2019 19:00:00 10.54 C 20.2000 %
93 28-04-2019 20:00:00 8.26 C 33.0000 %
94 28-04-2019 21:00:00 6.24 C 42.6000 %
95 28-04-2019 22:00:00 4.96 C 47.6000 %
96 28-04-2019 23:00:00 4.02 C 50.8000 %
97 29-04-2019 00:00:00 3.54 C 52.2000 %
98 29-04-2019 01:00:00 3.08 C 52.6000 %
99 29-04-2019 02:00:00 2.98 C 54.4000 %
100 29-04-2019 03:00:00 3.3 C 55.0000 %
Sensor: Nr:Datum:Temp:Feuchte:
Aussen-T/F 101 29-04-2019 04:00:00 3.18 C 54.2000 %
102 29-04-2019 05:00:00 3.08 C 52.8000 %
103 29-04-2019 06:00:00 2.78 C 51.6000 %
104 29-04-2019 07:00:00 3.18 C 47.6000 %
105 29-04-2019 08:00:00 4.3 C 42.6000 %
106 29-04-2019 09:00:00 5.98 C 36.2000 %
107 29-04-2019 10:00:00 9.08 C 29.2000 %
108 29-04-2019 11:00:00 11.6 C 23.2000 %
109 29-04-2019 12:00:00 12.78 C 20.8000 %
110 29-04-2019 13:00:00 14.62 C 20.0000 %
111 29-04-2019 14:00:00 15.72 C 20.0000 %
112 29-04-2019 15:00:00 15.9 C 20.0000 %
113 29-04-2019 16:00:00 15.68 C 20.0000 %
114 29-04-2019 17:00:00 15.52 C 20.0000 %
115 29-04-2019 18:00:00 12.34 C 26.0000 %
116 29-04-2019 19:00:00 9.94 C 44.2000 %
117 29-04-2019 20:00:00 9.54 C 47.6000 %
118 29-04-2019 21:00:00 9.44 C 46.2000 %
119 29-04-2019 22:00:00 9.48 C 45.0000 %
120 29-04-2019 23:00:00 9.94 C 40.4000 %
121 30-04-2019 00:00:00 10.46 C 35.4000 %
122 30-04-2019 01:00:00 10.56 C 34.0000 %
123 30-04-2019 02:00:00 10.38 C 36.6000 %
124 30-04-2019 03:00:00 10.1 C 36.6000 %
125 30-04-2019 04:00:00 9.78 C 38.2000 %
Sensor: Nr:Datum:Temp:Feuchte:
Aussen-T/F 126 30-04-2019 05:00:00 9.68 C 36.6000 %
127 30-04-2019 06:00:00 9.54 C 39.2000 %
128 30-04-2019 07:00:00 9.94 C 35.6000 %
129 30-04-2019 08:00:00 10.74 C 27.0000 %
130 30-04-2019 09:00:00 11.54 C 20.0000 %
131 30-04-2019 10:00:00 12.3 C 20.0000 %
132 30-04-2019 11:00:00 13.86 C 20.0000 %
133 30-04-2019 12:00:00 14.9 C 20.0000 %
134 30-04-2019 13:00:00 15.7 C 20.0000 %
135 30-04-2019 14:00:00 17.64 C 20.0000 %
136 30-04-2019 15:00:00 19.36 C 20.0000 %
137 30-04-2019 16:00:00 20.48 C 20.0000 %
138 30-04-2019 17:00:00 21.1 C 20.0000 %
139 30-04-2019 18:00:00 20.88 C 20.0000 %
140 30-04-2019 19:00:00 18.82 C 20.0000 %
141 30-04-2019 20:00:00 16.7 C 20.0000 %
142 30-04-2019 21:00:00 14.84 C 20.0000 %
143 30-04-2019 22:00:00 13.66 C 20.0000 %
144 30-04-2019 23:00:00 11.74 C 26.8000 %
145 01-05-2019 00:00:00 10.58 C 31.8000 %
146 01-05-2019 01:00:00 9.64 C 36.6000 %
147 01-05-2019 02:00:00 8.42 C 41.6000 %
148 01-05-2019 03:00:00 7.76 C 46.0000 %
149 01-05-2019 04:00:00 7.2 C 47.0000 %
150 01-05-2019 05:00:00 5.94 C 49.0000 %
Sensor: Nr:Datum:Temp:Feuchte:
Aussen-T/F 151 01-05-2019 06:00:00 5.64 C 50.8000 %
152 01-05-2019 07:00:00 7.04 C 48.4000 %
153 01-05-2019 08:00:00 8.72 C 36.8000 %
154 01-05-2019 09:00:00 9.82 C 32.2000 %
155 01-05-2019 10:00:00 11.62 C 27.0000 %
156 01-05-2019 11:00:00 14 C 20.2000 %
157 01-05-2019 12:00:00 14.44 C 20.6000 %
158 01-05-2019 13:00:00 16.44 C 20.0000 %
159 01-05-2019 14:00:00 18.56 C 20.0000 %
160 01-05-2019 15:00:00 20.54 C 20.0000 %
161 01-05-2019 16:00:00 21.84 C 20.0000 %
162 01-05-2019 17:00:00 21.76 C 20.0000 %
163 01-05-2019 18:00:00 21.02 C 20.0000 %
164 01-05-2019 19:00:00 18.02 C 20.0000 %
165 01-05-2019 20:00:00 14.66 C 20.0000 %
166 01-05-2019 21:00:00 13.06 C 20.0000 %
167 01-05-2019 22:00:00 13.1 C 20.0000 %
168 01-05-2019 23:00:00 13.1 C 20.0000 %
169 02-05-2019 00:00:00 13.1 C 20.0000 %
170 02-05-2019 01:00:00 13.1 C 20.0000 %
171 02-05-2019 02:00:00 8.66 C 42.0000 %
172 02-05-2019 03:00:00 6.94 C 49.2000 %
173 02-05-2019 04:00:00 6.24 C 50.2000 %
174 02-05-2019 05:00:00 5.58 C 51.0000 %
175 02-05-2019 06:00:00 5.4 C 51.6000 %
Sensor: Nr:Datum:Temp:Feuchte:
Aussen-T/F 176 02-05-2019 07:00:00 7.32 C 48.8000 %
177 02-05-2019 08:00:00 9.16 C 36.6000 %
178 02-05-2019 09:00:00 10.14 C 30.2000 %
179 02-05-2019 10:00:00 12.62 C 21.0000 %
180 02-05-2019 11:00:00 13.64 C 20.0000 %
181 02-05-2019 12:00:00 13.94 C 20.0000 %
182 02-05-2019 13:00:00 15.22 C 20.0000 %
183 02-05-2019 14:00:00 17.48 C 20.0000 %
184 02-05-2019 15:00:00 17.26 C 20.0000 %
185 02-05-2019 16:00:00 18.26 C 20.0000 %
186 02-05-2019 17:00:00 18.64 C 20.0000 %
187 02-05-2019 18:00:00 18.64 C 20.0000 %
188 02-05-2019 19:00:00 15.2 C 20.0000 %
189 02-05-2019 20:00:00 12.38 C 23.6000 %
190 02-05-2019 21:00:00 10.56 C 39.8000 %
191 02-05-2019 22:00:00 10.38 C 43.0000 %
192 02-05-2019 23:00:00 10.14 C 45.8000 %
193 03-05-2019 00:00:00 10.18 C 44.2000 %
194 03-05-2019 01:00:00 10.24 C 34.4000 %
195 03-05-2019 02:00:00 9.34 C 31.0000 %
196 03-05-2019 03:00:00 9.2 C 31.0000 %
197 03-05-2019 04:00:00 9 C 34.8000 %
198 03-05-2019 05:00:00 9.18 C 33.8000 %
199 03-05-2019 06:00:00 9.1 C 34.0000 %
200 03-05-2019 07:00:00 9.24 C 30.4000 %
Sensor: Nr:Datum:Temp:Feuchte:
Aussen-T/F 201 03-05-2019 08:00:00 9.82 C 25.8000 %
202 03-05-2019 09:00:00 10.8 C 20.4000 %
203 03-05-2019 10:00:00 11.38 C 20.0000 %
204 03-05-2019 11:00:00 11.88 C 20.0000 %
205 03-05-2019 12:00:00 12.2 C 20.0000 %
206 03-05-2019 13:00:00 12.98 C 20.0000 %
207 03-05-2019 14:00:00 13.74 C 20.0000 %
208 03-05-2019 15:00:00 15.28 C 20.0000 %
209 03-05-2019 16:00:00 15.78 C 20.0000 %
210 03-05-2019 17:00:00 14.4 C 20.0000 %
211 03-05-2019 18:00:00 14.38 C 20.0000 %
212 03-05-2019 19:00:00 12.42 C 20.0000 %
213 03-05-2019 20:00:00 11.12 C 20.0000 %
214 03-05-2019 21:00:00 9.9 C 20.0000 %
215 03-05-2019 22:00:00 9.18 C 20.0000 %
216 03-05-2019 23:00:00 8.26 C 23.8000 %
217 04-05-2019 00:00:00 7.78 C 28.8000 %
218 04-05-2019 01:00:00 7.46 C 30.2000 %
219 04-05-2019 02:00:00 7.48 C 30.8000 %
220 04-05-2019 03:00:00 7.12 C 36.2000 %
221 04-05-2019 04:00:00 6.5 C 45.2000 %
222 04-05-2019 05:00:00 4.14 C 48.0000 %
223 04-05-2019 06:00:00 3.14 C 49.6000 %
224 04-05-2019 07:00:00 2.82 C 51.0000 %
225 04-05-2019 08:00:00 3.04 C 49.2000 %
Sensor: Nr:Datum:Temp:Feuchte:
Aussen-T/F 226 04-05-2019 09:00:00 4.06 C 43.4000 %
227 04-05-2019 10:00:00 5.06 C 33.4000 %
228 04-05-2019 11:00:00 5.5 C 30.4000 %
229 04-05-2019 12:00:00 6.76 C 24.4000 %
230 04-05-2019 13:00:00 8.02 C 20.0000 %
231 04-05-2019 14:00:00 6.6 C 25.2000 %
232 04-05-2019 15:00:00 5.6 C 37.6000 %
233 04-05-2019 16:00:00 7.92 C 28.2000 %
234 04-05-2019 17:00:00 10.4 C 22.0000 %
235 04-05-2019 18:00:00 10.34 C 20.0000 %
236 04-05-2019 19:00:00 8.54 C 20.0000 %
237 04-05-2019 20:00:00 6.82 C 20.8000 %
238 04-05-2019 21:00:00 5.92 C 25.8000 %
239 04-05-2019 22:00:00 4.02 C 37.0000 %
240 04-05-2019 23:00:00 3.18 C 45.6000 %
241 05-05-2019 00:00:00 3.14 C 47.8000 %
242 05-05-2019 01:00:00 3.46 C 47.6000 %
243 05-05-2019 02:00:00 2.68 C 49.8000 %
244 05-05-2019 03:00:00 3.42 C 49.2000 %
245 05-05-2019 04:00:00 3.2 C 45.0000 %
246 05-05-2019 05:00:00 2.78 C 44.2000 %
247 05-05-2019 06:00:00 2.02 C 49.0000 %
248 05-05-2019 07:00:00 2.32 C 51.6000 %
249 05-05-2019 08:00:00 3.68 C 41.4000 %
250 05-05-2019 09:00:00 5.36 C 29.6000 %
Sensor: Nr:Datum:Temp:Feuchte:
Aussen-T/F 251 05-05-2019 10:00:00 5.92 C 28.4000 %
252 05-05-2019 11:00:00 7.56 C 23.0000 %
253 05-05-2019 12:00:00 8.4 C 20.4000 %
254 05-05-2019 13:00:00 9.52 C 20.0000 %
255 05-05-2019 14:00:00 9.46 C 20.0000 %
256 05-05-2019 15:00:00 11.18 C 20.0000 %
257 05-05-2019 16:00:00 12.5 C 20.0000 %
258 05-05-2019 17:00:00 13.46 C 20.0000 %
259 05-05-2019 18:00:00 11.18 C 20.0000 %
260 05-05-2019 19:00:00 9.78 C 20.0000 %
261 05-05-2019 20:00:00 8.94 C 20.0000 %
262 05-05-2019 21:00:00 7.84 C 20.0000 %
263 05-05-2019 22:00:00 6.2 C 29.0000 %
264 05-05-2019 23:00:00 5.92 C 33.0000 %
265 06-05-2019 00:00:00 5.7 C 35.0000 %
266 06-05-2019 01:00:00 5.34 C 37.0000 %
267 06-05-2019 02:00:00 4.04 C 42.2000 %
268 06-05-2019 03:00:00 3.46 C 46.6000 %
269 06-05-2019 04:00:00 2.74 C 49.2000 %
270 06-05-2019 05:00:00 2.06 C 51.6000 %
271 06-05-2019 06:00:00 3.06 C 51.4000 %
272 06-05-2019 07:00:00 3.88 C 40.4000 %
273 06-05-2019 08:00:00 4.88 C 36.0000 %
274 06-05-2019 09:00:00 7.16 C 24.0000 %
275 06-05-2019 10:00:00 9.42 C 20.0000 %
Sensor: Nr:Datum:Temp:Feuchte:
Aussen-T/F 276 06-05-2019 11:00:00 10.08 C 20.0000 %
277 06-05-2019 12:00:00 11.18 C 20.0000 %
278 06-05-2019 13:00:00 11.92 C 20.0000 %
279 06-05-2019 14:00:00 12.18 C 20.0000 %
280 06-05-2019 15:00:00 11.96 C 20.0000 %
281 06-05-2019 16:00:00 11.48 C 20.0000 %
282 06-05-2019 17:00:00 10.84 C 20.0000 %
283 06-05-2019 18:00:00 11.44 C 20.0000 %
284 06-05-2019 19:00:00 9.7 C 20.0000 %
285 06-05-2019 20:00:00 8.3 C 23.2000 %
286 06-05-2019 21:00:00 7.68 C 28.6000 %
287 06-05-2019 22:00:00 7.08 C 35.0000 %
288 06-05-2019 23:00:00 7 C 35.6000 %
289 07-05-2019 00:00:00 6.86 C 38.0000 %
290 07-05-2019 01:00:00 6.42 C 41.6000 %
291 07-05-2019 02:00:00 6.3 C 42.2000 %
292 07-05-2019 03:00:00 6.2 C 41.4000 %
293 07-05-2019 04:00:00 5.94 C 41.8000 %
294 07-05-2019 05:00:00 5.64 C 44.2000 %
295 07-05-2019 06:00:00 5.5 C 45.8000 %
296 07-05-2019 07:00:00 6.62 C 41.0000 %
297 07-05-2019 08:00:00 7.7 C 33.0000 %
298 07-05-2019 09:00:00 9.12 C 25.0000 %
299 07-05-2019 10:00:00 10.32 C 20.0000 %
300 07-05-2019 11:00:00 11.82 C 20.0000 %
Sensor: Nr:Datum:Temp:Feuchte:
Aussen-T/F 301 07-05-2019 12:00:00 12.94 C 20.0000 %
302 07-05-2019 13:00:00 13.28 C 20.0000 %
303 07-05-2019 14:00:00 13.68 C 20.0000 %
304 07-05-2019 15:00:00 14.06 C 20.0000 %
305 07-05-2019 16:00:00 14.86 C 20.0000 %
306 07-05-2019 17:00:00 15.22 C 20.0000 %
307 07-05-2019 18:00:00 14.88 C 20.0000 %
308 07-05-2019 19:00:00 12.56 C 20.0000 %
309 07-05-2019 20:00:00 10.18 C 20.0000 %
310 07-05-2019 21:00:00 8.2 C 20.0000 %
311 07-05-2019 22:00:00 7.14 C 21.4000 %
312 07-05-2019 23:00:00 6.04 C 31.4000 %
313 08-05-2019 00:00:00 5.66 C 34.2000 %
314 08-05-2019 01:00:00 5.02 C 36.0000 %
315 08-05-2019 02:00:00 4.42 C 40.2000 %
316 08-05-2019 03:00:00 4.06 C 43.6000 %
317 08-05-2019 04:00:00 4.62 C 44.8000 %
318 08-05-2019 05:00:00 5.04 C 42.6000 %
319 08-05-2019 06:00:00 5.52 C 41.4000 %
320 08-05-2019 07:00:00 6.44 C 35.6000 %
321 08-05-2019 08:00:00 7.28 C 34.8000 %
322 08-05-2019 09:00:00 8 C 29.4000 %
323 08-05-2019 10:00:00 8.4 C 36.8000 %
324 08-05-2019 11:00:00 9.3 C 39.6000 %
325 08-05-2019 12:00:00 12.24 C 29.6000 %
Sensor: Nr:Datum:Temp:Feuchte:
Aussen-T/F 326 08-05-2019 13:00:00 14.54 C 21.6000 %
327 08-05-2019 14:00:00 15.34 C 20.0000 %
328 08-05-2019 15:00:00 14.56 C 21.8000 %
329 08-05-2019 16:00:00 12.7 C 38.0000 %
330 08-05-2019 17:00:00 12.04 C 45.0000 %
331 08-05-2019 18:00:00 11.98 C 46.8000 %
332 08-05-2019 19:00:00 11.66 C 49.2000 %
333 08-05-2019 20:00:00 10.94 C 51.6000 %
334 08-05-2019 21:00:00 10.1 C 56.4000 %
335 08-05-2019 22:00:00 9.56 C 54.6000 %
336 08-05-2019 23:00:00 9.1 C 41.8000 %
337 09-05-2019 00:00:00 8.36 C 44.6000 %
338 09-05-2019 01:00:00 7.68 C 46.8000 %
339 09-05-2019 02:00:00 6.72 C 50.0000 %
340 09-05-2019 03:00:00 6.94 C 53.2000 %
341 09-05-2019 04:00:00 7.32 C 51.4000 %
342 09-05-2019 05:00:00 7.26 C 49.0000 %
343 09-05-2019 06:00:00 7.12 C 53.0000 %
344 09-05-2019 07:00:00 8.76 C 47.8000 %
345 09-05-2019 08:00:00 10.72 C 32.2000 %
346 09-05-2019 09:00:00 11.54 C 29.4000 %
347 09-05-2019 10:00:00 11.7 C 31.6000 %
348 09-05-2019 11:00:00 13.8 C 24.0000 %
349 09-05-2019 12:00:00 13.2 C 27.6000 %
350 09-05-2019 13:00:00 14.06 C 24.4000 %
Sensor: Nr:Datum:Temp:Feuchte:
Aussen-T/F 351 09-05-2019 14:00:00 13.84 C 21.0000 %
352 09-05-2019 15:00:00 13.74 C 25.2000 %
353 09-05-2019 16:00:00 14.74 C 20.6000 %
354 09-05-2019 17:00:00 14.46 C 24.6000 %
355 09-05-2019 18:00:00 15.48 C 23.0000 %
356 09-05-2019 19:00:00 14.58 C 25.2000 %
357 09-05-2019 20:00:00 12.8 C 34.8000 %
358 09-05-2019 21:00:00 10.6 C 46.8000 %
359 09-05-2019 22:00:00 10.36 C 50.0000 %
360 09-05-2019 23:00:00 10.26 C 50.8000 %
361 10-05-2019 00:00:00 10.02 C 47.8000 %
362 10-05-2019 01:00:00 8.78 C 51.2000 %
363 10-05-2019 02:00:00 8.08 C 61.2000 %
364 10-05-2019 03:00:00 7.175 C 61.0000 %
365 10-05-2019 04:00:00 8.24 C 69.4000 %
366 10-05-2019 05:00:00 7.96 C 59.6000 %
367 10-05-2019 06:00:00 8.5 C 38.2000 %
368 10-05-2019 07:00:00 8.6 C 40.4000 %
369 10-05-2019 08:00:00 9.08 C 37.2000 %
370 10-05-2019 09:00:00 10.78 C 29.6000 %
371 10-05-2019 10:00:00 12.58 C 23.2000 %
372 10-05-2019 11:00:00 14.66 C 20.0000 %
373 10-05-2019 12:00:00 14.52 C 20.0000 %
374 10-05-2019 13:00:00 15.68 C 20.0000 %
375 10-05-2019 14:00:00 17.52 C 20.0000 %
Sensor: Nr:Datum:Temp:Feuchte:
Aussen-T/F 376 10-05-2019 15:00:00 17.72 C 20.0000 %
377 10-05-2019 16:00:00 17.98 C 20.0000 %
378 10-05-2019 17:00:00 17.96 C 20.0000 %
379 10-05-2019 18:00:00 17.58 C 20.0000 %
380 10-05-2019 19:00:00 17.2 C 20.0000 %
381 10-05-2019 20:00:00 13.04 C 21.6000 %
382 10-05-2019 21:00:00 11.8 C 25.4000 %
383 10-05-2019 22:00:00 11.3 C 29.6000 %
384 10-05-2019 23:00:00 10.88 C 31.4000 %
385 11-05-2019 00:00:00 10.4 C 36.4000 %
386 11-05-2019 01:00:00 9.66 C 46.8000 %
387 11-05-2019 02:00:00 9.48 C 50.8000 %
388 11-05-2019 03:00:00 9.32 C 51.0000 %
389 11-05-2019 04:00:00 9.2 C 51.8000 %
390 11-05-2019 05:00:00 9.26 C 56.4000 %
391 11-05-2019 06:00:00 9.16 C 62.6000 %
392 11-05-2019 07:00:00 9.2 C 64.2000 %
393 11-05-2019 08:00:00 9.18 C 64.0000 %
394 11-05-2019 09:00:00 9.2 C 56.8000 %
395 11-05-2019 10:00:00 9.44 C 48.4000 %
396 11-05-2019 11:00:00 9.68 C 45.8000 %
397 11-05-2019 12:00:00 10.02 C 42.6000 %
398 11-05-2019 13:00:00 9.18 C 45.2000 %
399 11-05-2019 14:00:00 9.16 C 47.4000 %
400 11-05-2019 15:00:00 9.44 C 48.4000 %
Sensor: Nr:Datum:Temp:Feuchte:
Aussen-T/F 401 11-05-2019 16:00:00 9.82 C 49.2000 %
402 11-05-2019 17:00:00 10 C 49.0000 %
403 11-05-2019 18:00:00 11.64 C 32.8000 %
404 11-05-2019 19:00:00 11.9 C 26.8000 %
405 11-05-2019 20:00:00 10.94 C 29.4000 %
406 11-05-2019 21:00:00 8.92 C 42.2000 %
407 11-05-2019 22:00:00 7.56 C 50.4000 %
408 11-05-2019 23:00:00 6.92 C 52.2000 %
409 12-05-2019 00:00:00 6.9 C 53.0000 %
410 12-05-2019 01:00:00 6.9 C 53.0000 %
411 12-05-2019 02:00:00 6.12 C 51.2000 %
412 12-05-2019 03:00:00 5.2 C 47.6000 %
413 12-05-2019 04:00:00 4.8 C 47.8000 %
414 12-05-2019 05:00:00 3.48 C 52.2000 %
415 12-05-2019 06:00:00 3.92 C 53.4000 %
416 12-05-2019 07:00:00 5.22 C 41.4000 %
417 12-05-2019 08:00:00 6.62 C 31.0000 %
418 12-05-2019 09:00:00 8.18 C 23.4000 %
419 12-05-2019 10:00:00 9.08 C 20.0000 %
420 12-05-2019 11:00:00 11.14 C 20.0000 %
421 12-05-2019 12:00:00 11.14 C 20.0000 %
422 12-05-2019 13:00:00 11.58 C 20.0000 %
423 12-05-2019 14:00:00 13.42 C 20.0000 %
424 12-05-2019 15:00:00 14.64 C 20.0000 %
425 12-05-2019 16:00:00 16.02 C 20.0000 %
Sensor: Nr:Datum:Temp:Feuchte:
Aussen-T/F 426 12-05-2019 17:00:00 14.96 C 20.0000 %
427 12-05-2019 18:00:00 15.82 C 20.0000 %
428 12-05-2019 19:00:00 14.7 C 20.0000 %
429 12-05-2019 20:00:00 12.86 C 20.0000 %
430 12-05-2019 21:00:00 8.78 C 21.8000 %
431 12-05-2019 22:00:00 7.7 C 25.8000 %
432 12-05-2019 23:00:00 6.42 C 29.8000 %
433 13-05-2019 00:00:00 5.72 C 31.2000 %
434 13-05-2019 01:00:00 5 C 35.0000 %
435 13-05-2019 02:00:00 3.42 C 45.2000 %
436 13-05-2019 03:00:00 2.88 C 49.4000 %
437 13-05-2019 04:00:00 2.32 C 51.2000 %
438 13-05-2019 05:00:00 1.9 C 52.4000 %
439 13-05-2019 06:00:00 1.62 C 53.8000 %
440 13-05-2019 07:00:00 2.06 C 54.8000 %
441 13-05-2019 08:00:00 4.02 C 53.2000 %
442 13-05-2019 09:00:00 7.32 C 35.6000 %
443 13-05-2019 10:00:00 10.46 C 20.0000 %
444 13-05-2019 11:00:00 14.32 C 20.0000 %
445 13-05-2019 12:00:00 13.44 C 20.0000 %
446 13-05-2019 13:00:00 14.4 C 20.0000 %
447 13-05-2019 14:00:00 15.88 C 20.0000 %
448 13-05-2019 15:00:00 17.96 C 20.0000 %
449 13-05-2019 16:00:00 18.72 C 20.0000 %
450 13-05-2019 17:00:00 18.94 C 20.0000 %
Sensor: Nr:Datum:Temp:Feuchte:
Aussen-T/F 451 13-05-2019 18:00:00 18.4 C 20.0000 %
452 13-05-2019 19:00:00 17.24 C 20.0000 %
453 13-05-2019 20:00:00 15.3 C 20.0000 %
454 13-05-2019 21:00:00 11.54 C 20.0000 %
455 13-05-2019 22:00:00 8.58 C 20.0000 %
456 13-05-2019 23:00:00 8.2 C 20.0000 %
457 14-05-2019 00:00:00 8.2 C 20.0000 %
458 14-05-2019 01:00:00 7.46 C 21.8000 %
459 14-05-2019 02:00:00 4 C 30.4000 %
460 14-05-2019 03:00:00 3.18 C 34.8000 %
461 14-05-2019 04:00:00 2.46 C 38.6000 %
462 14-05-2019 05:00:00 2.1 C 41.8000 %
463 14-05-2019 06:00:00 1.84 C 46.2000 %
464 14-05-2019 07:00:00 2.26 C 47.6000 %
465 14-05-2019 08:00:00 3.76 C 45.8000 %
466 14-05-2019 09:00:00 7.14 C 27.4000 %
467 14-05-2019 10:00:00 10.14 C 20.0000 %
468 14-05-2019 11:00:00 14.06 C 20.0000 %
469 14-05-2019 12:00:00 13.64 C 20.0000 %
470 14-05-2019 13:00:00 14.62 C 20.0000 %
471 14-05-2019 14:00:00 15.12 C 20.0000 %
472 14-05-2019 15:00:00 16.32 C 20.0000 %
473 14-05-2019 16:00:00 16.7 C 20.0000 %
474 14-05-2019 17:00:00 16.98 C 20.0000 %
475 14-05-2019 18:00:00 16.82 C 20.0000 %
Sensor: Nr:Datum:Temp:Feuchte:
Aussen-T/F 476 14-05-2019 19:00:00 16.26 C 20.0000 %
477 14-05-2019 20:00:00 13.28 C 20.0000 %
478 14-05-2019 21:00:00 9.62 C 20.0000 %
479 14-05-2019 22:00:00 8.26 C 20.0000 %
480 14-05-2019 23:00:00 7.7 C 20.0000 %
481 15-05-2019 00:00:00 7.7 C 20.0000 %
482 15-05-2019 01:00:00 7.7 C 20.0000 %
483 15-05-2019 02:00:00 7.7 C 20.0000 %
484 15-05-2019 03:00:00 7.7 C 20.0000 %
485 15-05-2019 04:00:00 7.7 C 20.0000 %
486 15-05-2019 05:00:00 6.52 C 25.2000 %
487 15-05-2019 06:00:00 1.74 C 47.2000 %
488 15-05-2019 07:00:00 2.3 C 48.4000 %
489 15-05-2019 08:00:00 3.26 C 47.8000 %
490 15-05-2019 09:00:00 6.14 C 35.8000 %
491 15-05-2019 10:00:00 10.56 C 20.0000 %
492 15-05-2019 11:00:00 14.02 C 20.0000 %
493 15-05-2019 12:00:00 13.1 C 20.0000 %
494 15-05-2019 13:00:00 14.12 C 20.0000 %
495 15-05-2019 14:00:00 15.1 C 20.0000 %
496 15-05-2019 15:00:00 16.46 C 20.0000 %
497 15-05-2019 16:00:00 16.86 C 20.0000 %
498 15-05-2019 17:00:00 18.48 C 20.0000 %
499 15-05-2019 18:00:00 17.94 C 20.0000 %
500 15-05-2019 19:00:00 16.74 C 20.0000 %
Sensor: Nr:Datum:Temp:Feuchte:
Aussen-T/F 501 15-05-2019 20:00:00 14.74 C 20.0000 %
502 15-05-2019 21:00:00 10.76 C 20.0000 %
503 15-05-2019 22:00:00 8.96 C 20.0000 %
504 15-05-2019 23:00:00 7.4 C 20.0000 %
505 16-05-2019 00:00:00 6.6 C 20.0000 %
506 16-05-2019 01:00:00 5.98 C 20.0000 %
507 16-05-2019 02:00:00 5.16 C 23.6000 %
508 16-05-2019 03:00:00 5.12 C 28.6000 %
509 16-05-2019 04:00:00 5.3 C 28.0000 %
510 16-05-2019 05:00:00 5.38 C 28.4000 %
511 16-05-2019 06:00:00 5.76 C 31.2000 %
512 16-05-2019 07:00:00 6.6 C 28.2000 %
513 16-05-2019 08:00:00 7.9 C 24.6000 %
514 16-05-2019 09:00:00 10.16 C 20.0000 %
515 16-05-2019 10:00:00 11.86 C 20.0000 %
516 16-05-2019 11:00:00 11.9 C 20.0000 %
517 16-05-2019 12:00:00 11.9 C 20.0000 %
518 16-05-2019 13:00:00 12.6 C 20.0000 %
519 16-05-2019 14:00:00 15.4 C 20.0000 %
520 16-05-2019 15:00:00 17.38 C 20.0000 %
521 16-05-2019 16:00:00 19.24 C 20.0000 %
522 16-05-2019 17:00:00 17.46 C 20.0000 %
523 16-05-2019 18:00:00 15.68 C 20.0000 %
524 16-05-2019 19:00:00 14.16 C 20.0000 %
525 16-05-2019 20:00:00 12.66 C 20.0000 %
Sensor: Nr:Datum:Temp:Feuchte:
Aussen-T/F 526 16-05-2019 21:00:00 11.2 C 20.0000 %
527 16-05-2019 22:00:00 10.08 C 27.2000 %
528 16-05-2019 23:00:00 9.2 C 34.4000 %
529 17-05-2019 00:00:00 8.42 C 44.4000 %
530 17-05-2019 01:00:00 8.3 C 48.2000 %
531 17-05-2019 02:00:00 8.2 C 49.6000 %
532 17-05-2019 03:00:00 8.2 C 50.0000 %
533 17-05-2019 04:00:00 8.06 C 50.2000 %
534 17-05-2019 05:00:00 8.02 C 51.0000 %
535 17-05-2019 06:00:00 8.06 C 52.0000 %
536 17-05-2019 07:00:00 8.44 C 54.2000 %
537 17-05-2019 08:00:00 8.72 C 50.4000 %
538 17-05-2019 09:00:00 9.06 C 46.4000 %
539 17-05-2019 10:00:00 9.34 C 44.8000 %
540 17-05-2019 11:00:00 10.04 C 42.2000 %
541 17-05-2019 12:00:00 11.52 C 36.0000 %
542 17-05-2019 13:00:00 13.72 C 28.4000 %
543 17-05-2019 14:00:00 15.62 C 23.6000 %
544 17-05-2019 15:00:00 16.16 C 22.0000 %
545 17-05-2019 16:00:00 17.06 C 20.0000 %
546 17-05-2019 17:00:00 17.86 C 20.0000 %
547 17-05-2019 18:00:00 16.6 C 23.2000 %
548 17-05-2019 19:00:00 16.48 C 24.6000 %
549 17-05-2019 20:00:00 13.26 C 36.0000 %
550 17-05-2019 21:00:00 11.36 C 43.2000 %
Sensor: Nr:Datum:Temp:Feuchte:
Aussen-T/F 551 17-05-2019 22:00:00 11.58 C 45.4000 %
552 17-05-2019 23:00:00 11.38 C 47.6000 %
553 18-05-2019 00:00:00 11.3 C 49.0000 %
554 18-05-2019 01:00:00 11.3 C 49.0000 %
555 18-05-2019 02:00:00 11.3 C 49.0000 %
556 18-05-2019 03:00:00 11.3 C 49.0000 %
557 18-05-2019 04:00:00 11.3 C 49.0000 %
558 18-05-2019 05:00:00 10.7 C 51.6000 %
559 18-05-2019 06:00:00 8.6 C 64.2000 %
560 18-05-2019 07:00:00 9.92 C 65.6000 %
561 18-05-2019 08:00:00 11.28 C 61.0000 %
562 18-05-2019 09:00:00 13.1 C 36.6000 %
563 18-05-2019 10:00:00 15.36 C 30.0000 %
564 18-05-2019 11:00:00 18.34 C 20.4000 %
565 18-05-2019 12:00:00 19.02 C 20.0000 %
566 18-05-2019 13:00:00 19.3 C 20.0000 %
567 18-05-2019 14:00:00 21.16 C 20.0000 %
568 18-05-2019 15:00:00 21.52 C 20.0000 %
569 18-05-2019 16:00:00 22.2 C 20.0000 %
570 18-05-2019 17:00:00 21.06 C 20.0000 %
571 18-05-2019 18:00:00 17.36 C 26.6000 %
572 18-05-2019 19:00:00 14.84 C 39.4000 %
573 18-05-2019 20:00:00 14.18 C 43.2000 %
574 18-05-2019 21:00:00 13.4 C 45.2000 %
575 18-05-2019 22:00:00 12.24 C 47.2000 %
Sensor: Nr:Datum:Temp:Feuchte:
Aussen-T/F 576 18-05-2019 23:00:00 12.04 C 48.4000 %
577 19-05-2019 00:00:00 12.24 C 48.6000 %
578 19-05-2019 01:00:00 12.28 C 51.2000 %
579 19-05-2019 02:00:00 12.1 C 52.0000 %
580 19-05-2019 03:00:00 11.14 C 58.4000 %
581 19-05-2019 04:00:00 11.2 C 64.0000 %
582 19-05-2019 05:00:00 11.2 C 64.0000 %
583 19-05-2019 06:00:00 11.2 C 64.0000 %
584 19-05-2019 07:00:00 11.2 C 64.0000 %
585 19-05-2019 08:00:00 12.54 C 62.0000 %
586 19-05-2019 09:00:00 14.04 C 43.4000 %
587 19-05-2019 10:00:00 15.74 C 32.8000 %
588 19-05-2019 11:00:00 17.08 C 30.4000 %
589 19-05-2019 12:00:00 19.2 C 25.2000 %
590 19-05-2019 13:00:00 19.34 C 22.2000 %
591 19-05-2019 14:00:00 21.22 C 20.0000 %
592 19-05-2019 15:00:00 23.22 C 20.0000 %
593 19-05-2019 16:00:00 23.68 C 20.0000 %
594 19-05-2019 17:00:00 19.96 C 20.0000 %
595 19-05-2019 18:00:00 20.54 C 20.0000 %
596 19-05-2019 19:00:00 21.54 C 20.0000 %
597 19-05-2019 20:00:00 18.18 C 21.0000 %
598 19-05-2019 21:00:00 14.76 C 30.6000 %
599 19-05-2019 22:00:00 14.1 C 34.8000 %
600 19-05-2019 23:00:00 14.16 C 32.4000 %
Sensor: Nr:Datum:Temp:Feuchte:
Aussen-T/F 601 20-05-2019 00:00:00 13.82 C 34.2000 %
602 20-05-2019 01:00:00 12.84 C 40.8000 %
603 20-05-2019 02:00:00 11.78 C 45.6000 %
604 20-05-2019 03:00:00 11.78 C 47.4000 %
605 20-05-2019 04:00:00 12.6 C 44.2000 %
606 20-05-2019 05:00:00 13.1 C 40.0000 %
607 20-05-2019 06:00:00 13.08 C 38.6000 %
608 20-05-2019 07:00:00 13.12 C 39.0000 %
609 20-05-2019 08:00:00 13.44 C 38.2000 %
610 20-05-2019 09:00:00 13.88 C 35.6000 %
611 20-05-2019 10:00:00 14.04 C 35.6000 %
612 20-05-2019 11:00:00 13.5 C 43.8000 %
613 20-05-2019 12:00:00 13.68 C 42.6000 %
614 20-05-2019 13:00:00 13.58 C 41.6000 %
615 20-05-2019 14:00:00 14.3 C 37.0000 %
616 20-05-2019 15:00:00 14.64 C 34.4000 %
617 20-05-2019 16:00:00 14.86 C 32.0000 %
618 20-05-2019 17:00:00 14.84 C 32.4000 %
619 20-05-2019 18:00:00 14.72 C 32.0000 %
620 20-05-2019 19:00:00 14.4 C 33.2000 %
621 20-05-2019 20:00:00 14.22 C 34.0000 %
622 20-05-2019 21:00:00 13.9 C 36.2000 %
623 20-05-2019 22:00:00 13.76 C 36.0000 %
624 20-05-2019 23:00:00 13.84 C 34.4000 %
625 21-05-2019 00:00:00 13.92 C 33.8000 %
Sensor: Nr:Datum:Temp:Feuchte:
Aussen-T/F 626 21-05-2019 01:00:00 13.4 C 39.2000 %
627 21-05-2019 02:00:00 13.16 C 40.8000 %
628 21-05-2019 03:00:00 12.9 C 43.0000 %
629 21-05-2019 04:00:00 12.8 C 41.2000 %
630 21-05-2019 05:00:00 12.1 C 44.4000 %
631 21-05-2019 06:00:00 11.5 C 49.0000 %
632 21-05-2019 07:00:00 11.46 C 48.6000 %
633 21-05-2019 08:00:00 11.6 C 46.6000 %
634 21-05-2019 09:00:00 11.7 C 45.8000 %
635 21-05-2019 10:00:00 11.6 C 46.2000 %
636 21-05-2019 11:00:00 11.52 C 45.6000 %
637 21-05-2019 12:00:00 11.44 C 46.2000 %
638 21-05-2019 13:00:00 11.58 C 46.4000 %
639 21-05-2019 14:00:00 11.5 C 46.4000 %
640 21-05-2019 15:00:00 11.42 C 45.2000 %
641 21-05-2019 16:00:00 11.4 C 46.8000 %
642 21-05-2019 17:00:00 11.48 C 47.0000 %
643 21-05-2019 18:00:00 11.68 C 46.4000 %
644 21-05-2019 19:00:00 11.72 C 46.4000 %
645 21-05-2019 20:00:00 11.5 C 49.6000 %
646 21-05-2019 21:00:00 11.34 C 49.4000 %
647 21-05-2019 22:00:00 11.26 C 50.0000 %
648 21-05-2019 23:00:00 11.18 C 50.8000 %
649 22-05-2019 00:00:00 11.2 C 54.4000 %
650 22-05-2019 01:00:00 11.16 C 58.6000 %
Sensor: Nr:Datum:Temp:Feuchte:
Aussen-T/F 651 22-05-2019 02:00:00 11.02 C 51.8000 %
652 22-05-2019 03:00:00 11.04 C 46.8000 %
653 22-05-2019 04:00:00 11.02 C 44.4000 %
654 22-05-2019 05:00:00 10.92 C 44.8000 %
655 22-05-2019 06:00:00 10.7 C 42.2000 %
656 22-05-2019 07:00:00 10.36 C 42.0000 %
657 22-05-2019 08:00:00 10.2 C 38.8000 %
658 22-05-2019 09:00:00 10.4 C 32.8000 %
659 22-05-2019 10:00:00 10.92 C 29.0000 %
660 22-05-2019 11:00:00 11.94 C 26.2000 %
661 22-05-2019 12:00:00 14.08 C 20.2000 %
662 22-05-2019 13:00:00 14.52 C 20.0000 %
663 22-05-2019 14:00:00 16.1 C 20.0000 %
664 22-05-2019 15:00:00 17.96 C 20.0000 %
665 22-05-2019 16:00:00 18.82 C 20.0000 %
666 22-05-2019 17:00:00 18.7 C 20.0000 %
667 22-05-2019 18:00:00 19.58 C 20.0000 %
668 22-05-2019 19:00:00 19.7 C 20.0000 %
669 22-05-2019 20:00:00 15.76 C 22.4000 %
670 22-05-2019 21:00:00 12.44 C 31.2000 %
671 22-05-2019 22:00:00 10.7 C 40.0000 %
672 22-05-2019 23:00:00 9.66 C 45.2000 %
673 23-05-2019 00:00:00 8.88 C 47.6000 %
674 23-05-2019 01:00:00 8.48 C 49.0000 %
675 23-05-2019 02:00:00 8.04 C 49.6000 %
Sensor: Nr:Datum:Temp:Feuchte:
Aussen-T/F 676 23-05-2019 03:00:00 7.94 C 50.4000 %
677 23-05-2019 04:00:00 7.42 C 51.0000 %
678 23-05-2019 05:00:00 7.12 C 51.6000 %
679 23-05-2019 06:00:00 7.66 C 53.4000 %
680 23-05-2019 07:00:00 8.7 C 47.2000 %
681 23-05-2019 08:00:00 9.76 C 43.6000 %
682 23-05-2019 09:00:00 12.02 C 36.4000 %
683 23-05-2019 10:00:00 14.72 C 29.6000 %
684 23-05-2019 11:00:00 20.36 C 20.0000 %
685 23-05-2019 12:00:00 19.32 C 20.0000 %
686 23-05-2019 13:00:00 20.18 C 20.0000 %
687 23-05-2019 14:00:00 22.46 C 20.0000 %
688 23-05-2019 15:00:00 23.26 C 20.0000 %
689 23-05-2019 16:00:00 24.7 C 20.0000 %
690 23-05-2019 17:00:00 25.72 C 20.0000 %
691 23-05-2019 18:00:00 25.42 C 20.0000 %
692 23-05-2019 19:00:00 22.66 C 20.0000 %
693 23-05-2019 20:00:00 17.8 C 20.0000 %
694 23-05-2019 21:00:00 15.56 C 23.0000 %
695 23-05-2019 22:00:00 14.18 C 29.8000 %
696 23-05-2019 23:00:00 13.08 C 33.2000 %
697 24-05-2019 00:00:00 12.22 C 37.2000 %
698 24-05-2019 01:00:00 11.86 C 39.0000 %
699 24-05-2019 02:00:00 11.28 C 41.2000 %
700 24-05-2019 03:00:00 11.02 C 43.6000 %
Sensor: Nr:Datum:Temp:Feuchte:
Aussen-T/F 701 24-05-2019 04:00:00 11 C 44.8000 %
702 24-05-2019 05:00:00 10.8 C 44.8000 %
703 24-05-2019 06:00:00 10.76 C 45.6000 %
704 24-05-2019 07:00:00 11.8 C 41.4000 %
705 24-05-2019 08:00:00 13.92 C 29.8000 %
706 24-05-2019 09:00:00 16.16 C 20.8000 %
707 24-05-2019 10:00:00 18.02 C 20.4000 %
708 24-05-2019 11:00:00 22.52 C 20.0000 %
709 24-05-2019 12:00:00 21.96 C 20.0000 %
710 24-05-2019 13:00:00 23.04 C 20.0000 %
711 24-05-2019 14:00:00 24.1 C 20.0000 %
712 24-05-2019 15:00:00 24.44 C 20.0000 %
713 24-05-2019 16:00:00 24.56 C 20.0000 %
714 24-05-2019 17:00:00 25.14 C 20.0000 %
715 24-05-2019 18:00:00 24.6 C 20.0000 %
716 24-05-2019 19:00:00 20.94 C 20.0000 %
717 24-05-2019 20:00:00 19.04 C 20.0000 %
718 24-05-2019 21:00:00 16.44 C 20.6000 %
719 24-05-2019 22:00:00 14.3 C 29.4000 %
720 24-05-2019 23:00:00 13.84 C 31.4000 %
721 25-05-2019 00:00:00 14.58 C 25.4000 %
722 25-05-2019 01:00:00 13.26 C 26.2000 %
723 25-05-2019 02:00:00 12.58 C 24.4000 %
724 25-05-2019 03:00:00 11.58 C 25.8000 %
725 25-05-2019 04:00:00 10.34 C 25.4000 %
Sensor: Nr:Datum:Temp:Feuchte:
Aussen-T/F 726 25-05-2019 05:00:00 9.6 C 28.2000 %
727 25-05-2019 06:00:00 8.96 C 35.4000 %
728 25-05-2019 07:00:00 11.02 C 25.6000 %
729 25-05-2019 08:00:00 13.38 C 20.0000 %
730 25-05-2019 09:00:00 14.92 C 20.0000 %
731 25-05-2019 10:00:00 16.36 C 20.0000 %
732 25-05-2019 11:00:00 18.18 C 20.0000 %
733 25-05-2019 12:00:00 18.06 C 20.0000 %
734 25-05-2019 13:00:00 20 C 20.0000 %
735 25-05-2019 14:00:00 20.74 C 20.0000 %
736 25-05-2019 15:00:00 22.08 C 20.0000 %
737 25-05-2019 16:00:00 22.7 C 20.0000 %
738 25-05-2019 17:00:00 22.38 C 20.0000 %
739 25-05-2019 18:00:00 20.5 C 20.0000 %
740 25-05-2019 19:00:00 19.38 C 20.0000 %
741 25-05-2019 20:00:00 18.1 C 20.0000 %
742 25-05-2019 21:00:00 15.82 C 20.0000 %
743 25-05-2019 22:00:00 14.38 C 22.0000 %
744 25-05-2019 23:00:00 12.68 C 29.2000 %
745 26-05-2019 00:00:00 11.18 C 37.8000 %
746 26-05-2019 01:00:00 10.22 C 42.4000 %
747 26-05-2019 02:00:00 9.76 C 45.6000 %
748 26-05-2019 03:00:00 9.06 C 47.6000 %
749 26-05-2019 04:00:00 8.58 C 48.8000 %
750 26-05-2019 05:00:00 8.48 C 49.8000 %
Sensor: Nr:Datum:Temp:Feuchte:
Aussen-T/F 751 26-05-2019 06:00:00 9.48 C 44.6000 %
752 26-05-2019 07:00:00 9.98 C 41.4000 %
753 26-05-2019 08:00:00 11.36 C 39.4000 %
754 26-05-2019 09:00:00 15.2 C 25.0000 %
755 26-05-2019 10:00:00 17.76 C 20.0000 %
756 26-05-2019 11:00:00 21.04 C 20.0000 %
757 26-05-2019 12:00:00 19.98 C 20.0000 %
758 26-05-2019 13:00:00 20.76 C 20.0000 %
759 26-05-2019 14:00:00 22.7 C 20.0000 %
760 26-05-2019 15:00:00 24.36 C 20.0000 %
761 26-05-2019 16:00:00 24.14 C 20.0000 %
762 26-05-2019 17:00:00 22.6 C 20.0000 %
763 26-05-2019 18:00:00 21.96 C 20.0000 %
764 26-05-2019 19:00:00 20.14 C 20.0000 %
765 26-05-2019 20:00:00 18.64 C 20.0000 %
766 26-05-2019 21:00:00 18.38 C 20.0000 %
767 26-05-2019 22:00:00 17.68 C 20.0000 %
768 26-05-2019 23:00:00 16.96 C 20.0000 %
769 27-05-2019 00:00:00 16.36 C 20.8000 %
770 27-05-2019 01:00:00 15.32 C 26.6000 %
771 27-05-2019 02:00:00 14.2 C 30.8000 %
772 27-05-2019 03:00:00 13.44 C 33.8000 %
773 27-05-2019 04:00:00 13.58 C 35.2000 %
774 27-05-2019 05:00:00 13.72 C 41.4000 %
775 27-05-2019 06:00:00 13.5 C 47.2000 %
Sensor: Nr:Datum:Temp:Feuchte:
Aussen-T/F 776 27-05-2019 07:00:00 14.06 C 43.4000 %
777 27-05-2019 08:00:00 14.62 C 39.8000 %
778 27-05-2019 09:00:00 15.16 C 39.6000 %
779 27-05-2019 10:00:00 15.62 C 39.2000 %
780 27-05-2019 11:00:00 14.9 C 41.8000 %
781 27-05-2019 12:00:00 14.58 C 44.8000 %
782 27-05-2019 13:00:00 14.08 C 45.6000 %
783 27-05-2019 14:00:00 14.28 C 44.0000 %
784 27-05-2019 15:00:00 14.9 C 41.4000 %
785 27-05-2019 16:00:00 15.14 C 43.4000 %
786 27-05-2019 17:00:00 16.18 C 38.0000 %
787 27-05-2019 18:00:00 16.08 C 40.4000 %
788 27-05-2019 19:00:00 16.62 C 38.8000 %
789 27-05-2019 20:00:00 14.96 C 45.8000 %
790 27-05-2019 21:00:00 14.08 C 49.4000 %
791 27-05-2019 22:00:00 13.32 C 50.8000 %
792 27-05-2019 23:00:00 13.3 C 51.0000 %
793 28-05-2019 00:00:00 13.3 C 51.0000 %
794 28-05-2019 01:00:00 12.46 C 58.6000 %
795 28-05-2019 02:00:00 12.1 C 65.0000 %
796 28-05-2019 03:00:00 12.3 C 65.0000 %
797 28-05-2019 04:00:00 11.78 C 64.6000 %
798 28-05-2019 05:00:00 11.38 C 65.6000 %
799 28-05-2019 06:00:00 11.82 C 65.6000 %
800 28-05-2019 07:00:00 12.16 C 64.0000 %
Sensor: Nr:Datum:Temp:Feuchte:
Aussen-T/F 801 28-05-2019 08:00:00 12.88 C 53.8000 %
802 28-05-2019 09:00:00 14.4 C 33.6000 %
803 28-05-2019 10:00:00 15.84 C 27.2000 %
804 28-05-2019 11:00:00 17.18 C 23.0000 %
805 28-05-2019 12:00:00 16.94 C 20.0000 %
806 28-05-2019 13:00:00 18.3 C 20.0000 %
807 28-05-2019 14:00:00 16.66 C 23.6000 %
808 28-05-2019 15:00:00 14.5 C 26.8000 %
809 28-05-2019 16:00:00 16.54 C 21.0000 %
810 28-05-2019 17:00:00 17.42 C 20.0000 %
811 28-05-2019 18:00:00 17 C 20.0000 %
812 28-05-2019 19:00:00 17.26 C 20.0000 %
813 28-05-2019 20:00:00 14.2 C 20.2000 %
814 28-05-2019 21:00:00 12.96 C 27.2000 %
815 28-05-2019 22:00:00 12 C 35.4000 %
816 28-05-2019 23:00:00 11.8 C 35.8000 %
817 29-05-2019 00:00:00 11.48 C 32.4000 %
818 29-05-2019 01:00:00 11.64 C 33.4000 %
819 29-05-2019 02:00:00 11.8 C 32.6000 %
820 29-05-2019 03:00:00 11.36 C 34.2000 %
821 29-05-2019 04:00:00 11.18 C 34.2000 %
822 29-05-2019 05:00:00 10.92 C 34.4000 %
823 29-05-2019 06:00:00 10.86 C 34.2000 %
824 29-05-2019 07:00:00 10.6 C 34.0000 %
825 29-05-2019 08:00:00 11.16 C 30.8000 %
Sensor: Nr:Datum:Temp:Feuchte:
Aussen-T/F 826 29-05-2019 09:00:00 13.34 C 22.2000 %
827 29-05-2019 10:00:00 14.88 C 20.0000 %
828 29-05-2019 11:00:00 18.04 C 20.0000 %
829 29-05-2019 12:00:00 17.02 C 20.0000 %
830 29-05-2019 13:00:00 17.02 C 20.0000 %
831 29-05-2019 14:00:00 18.88 C 20.0000 %
832 29-05-2019 15:00:00 20.22 C 20.0000 %
833 29-05-2019 16:00:00 21.18 C 20.0000 %
834 29-05-2019 17:00:00 23.22 C 20.0000 %
835 29-05-2019 18:00:00 22.5 C 20.0000 %
836 29-05-2019 19:00:00 22.08 C 20.0000 %
837 29-05-2019 20:00:00 17.78 C 20.0000 %
838 29-05-2019 21:00:00 14.28 C 21.6000 %
839 29-05-2019 22:00:00 12.86 C 28.0000 %
840 29-05-2019 23:00:00 12.58 C 29.6000 %
841 30-05-2019 00:00:00 11.72 C 31.6000 %
842 30-05-2019 01:00:00 10.88 C 36.2000 %
843 30-05-2019 02:00:00 10.38 C 38.2000 %
844 30-05-2019 03:00:00 9.44 C 42.6000 %
845 30-05-2019 04:00:00 9.24 C 45.0000 %
846 30-05-2019 05:00:00 8.78 C 46.2000 %
847 30-05-2019 06:00:00 9.62 C 44.4000 %
848 30-05-2019 07:00:00 11.58 C 35.0000 %
849 30-05-2019 08:00:00 12.74 C 28.6000 %
850 30-05-2019 09:00:00 15.1 C 24.0000 %
Sensor: Nr:Datum:Temp:Feuchte:
Aussen-T/F 851 30-05-2019 10:00:00 17.14 C 20.4000 %
852 30-05-2019 11:00:00 19.02 C 20.0000 %
853 30-05-2019 12:00:00 18.66 C 20.0000 %
854 30-05-2019 13:00:00 18.46 C 20.0000 %
855 30-05-2019 14:00:00 20.14 C 20.0000 %
856 30-05-2019 15:00:00 21.66 C 20.0000 %
857 30-05-2019 16:00:00 22.56 C 20.0000 %
858 30-05-2019 17:00:00 22.36 C 20.0000 %
859 30-05-2019 18:00:00 21.62 C 20.0000 %
860 30-05-2019 19:00:00 20.3 C 20.0000 %
861 30-05-2019 20:00:00 19.02 C 22.0000 %
862 30-05-2019 21:00:00 17.56 C 28.0000 %
863 30-05-2019 22:00:00 16.36 C 32.6000 %
864 30-05-2019 23:00:00 15.54 C 37.0000 %
865 31-05-2019 00:00:00 15.58 C 38.4000 %
866 31-05-2019 01:00:00 15.66 C 38.4000 %
867 31-05-2019 02:00:00 15.22 C 39.2000 %
868 31-05-2019 03:00:00 13.9 C 44.6000 %
869 31-05-2019 04:00:00 13 C 46.4000 %
870 31-05-2019 05:00:00 12.2 C 48.6000 %
871 31-05-2019 06:00:00 12.34 C 49.8000 %
872 31-05-2019 07:00:00 12.84 C 49.4000 %
873 31-05-2019 08:00:00 14.34 C 45.4000 %
874 31-05-2019 09:00:00 17.56 C 27.6000 %
875 31-05-2019 10:00:00 19.84 C 20.8000 %
Sensor: Nr:Datum:Temp:Feuchte:
Aussen-T/F 876 31-05-2019 11:00:00 22.6 C 20.0000 %
877 31-05-2019 12:00:00 22.76 C 20.0000 %
878 31-05-2019 13:00:00 23.8 C 20.0000 %
879 31-05-2019 14:00:00 25.06 C 20.0000 %
880 31-05-2019 15:00:00 26.16 C 20.0000 %
881 31-05-2019 16:00:00 27.36 C 20.0000 %
882 31-05-2019 17:00:00 28.34 C 20.0000 %
883 31-05-2019 18:00:00 28.1 C 20.0000 %
884 31-05-2019 19:00:00 25.84 C 20.0000 %
885 31-05-2019 20:00:00 23 C 20.0000 %
886 31-05-2019 21:00:00 18.96 C 22.2000 %
887 31-05-2019 22:00:00 17.08 C 26.6000 %
888 31-05-2019 23:00:00 15.4 C 32.6000 %
889 01-06-2019 00:00:00 14.28 C 37.6000 %
890 01-06-2019 01:00:00 13.62 C 42.4000 %
891 01-06-2019 02:00:00 13.14 C 44.6000 %
892 01-06-2019 03:00:00 12.54 C 46.0000 %
893 01-06-2019 04:00:00 11.9 C 47.4000 %
894 01-06-2019 05:00:00 11.46 C 48.6000 %
895 01-06-2019 06:00:00 11.68 C 48.8000 %
896 01-06-2019 07:00:00 12.86 C 46.8000 %
897 01-06-2019 08:00:00 14.44 C 38.0000 %
898 01-06-2019 09:00:00 16.88 C 30.4000 %
899 01-06-2019 10:00:00 19.28 C 25.0000 %
900 01-06-2019 11:00:00 23.7 C 20.0000 %
Sensor: Nr:Datum:Temp:Feuchte:
Aussen-T/F 901 01-06-2019 12:00:00 24.16 C 20.0000 %
902 01-06-2019 13:00:00 24.56 C 20.0000 %
903 01-06-2019 14:00:00 26.9 C 20.0000 %
904 01-06-2019 15:00:00 28.8 C 20.0000 %
905 01-06-2019 16:00:00 30.12 C 20.0000 %
906 01-06-2019 17:00:00 30.84 C 20.0000 %
907 01-06-2019 18:00:00 30.84 C 20.0000 %
908 01-06-2019 19:00:00 29.46 C 20.0000 %
909 01-06-2019 20:00:00 24.84 C 20.0000 %
910 01-06-2019 21:00:00 21.54 C 20.2000 %
911 01-06-2019 22:00:00 19.36 C 24.4000 %
912 01-06-2019 23:00:00 18.06 C 28.4000 %
913 02-06-2019 00:00:00 16.38 C 35.0000 %
914 02-06-2019 01:00:00 15.26 C 38.8000 %
915 02-06-2019 02:00:00 14.58 C 42.2000 %
916 02-06-2019 03:00:00 14.04 C 44.6000 %
917 02-06-2019 04:00:00 13.5 C 46.4000 %
918 02-06-2019 05:00:00 13.02 C 47.2000 %
919 02-06-2019 06:00:00 13.24 C 47.6000 %
920 02-06-2019 07:00:00 13.78 C 47.0000 %
921 02-06-2019 08:00:00 15.06 C 45.2000 %
922 02-06-2019 09:00:00 17.82 C 35.6000 %
923 02-06-2019 10:00:00 20.4 C 27.8000 %
924 02-06-2019 11:00:00 25.46 C 21.2000 %
925 02-06-2019 12:00:00 28.54 C 20.0000 %
Sensor: Nr:Datum:Temp:Feuchte:
Aussen-T/F 926 02-06-2019 13:00:00 28 C 20.0000 %
927 02-06-2019 14:00:00 30.06 C 20.0000 %
928 02-06-2019 15:00:00 32.08 C 20.0000 %
929 02-06-2019 16:00:00 33.02 C 20.0000 %
930 02-06-2019 17:00:00 33.32 C 20.0000 %
931 02-06-2019 18:00:00 32.94 C 20.0000 %
932 02-06-2019 19:00:00 32 C 20.0000 %
933 02-06-2019 20:00:00 26.7 C 20.0000 %
934 02-06-2019 21:00:00 23.24 C 20.0000 %
935 02-06-2019 22:00:00 20.74 C 20.0000 %
936 02-06-2019 23:00:00 18.76 C 22.6000 %
937 03-06-2019 00:00:00 17.46 C 26.6000 %
938 03-06-2019 01:00:00 16.44 C 30.2000 %
939 03-06-2019 02:00:00 15.84 C 33.6000 %
940 03-06-2019 03:00:00 15.26 C 36.4000 %
941 03-06-2019 04:00:00 14.6 C 40.0000 %
942 03-06-2019 05:00:00 14.7 C 42.0000 %
943 03-06-2019 06:00:00 15.22 C 40.6000 %
944 03-06-2019 07:00:00 16.54 C 35.8000 %
945 03-06-2019 08:00:00 18.34 C 30.8000 %
946 03-06-2019 09:00:00 21.16 C 24.8000 %
947 03-06-2019 10:00:00 20.82 C 33.2000 %
948 03-06-2019 11:00:00 24.1 C 22.4000 %
949 03-06-2019 12:00:00 27.58 C 20.0000 %
950 03-06-2019 13:00:00 28.5 C 20.0000 %
Sensor: Nr:Datum:Temp:Feuchte:
Aussen-T/F 951 03-06-2019 14:00:00 29.72 C 20.0000 %
952 03-06-2019 15:00:00 30.56 C 20.0000 %
953 03-06-2019 16:00:00 27.3 C 20.0000 %
954 03-06-2019 17:00:00 26.1 C 20.0000 %
955 03-06-2019 18:00:00 24.36 C 20.0000 %
956 03-06-2019 19:00:00 22.96 C 20.0000 %
957 03-06-2019 20:00:00 22.7 C 20.0000 %
958 03-06-2019 21:00:00 20.48 C 20.8000 %
959 03-06-2019 22:00:00 19.16 C 25.2000 %
960 03-06-2019 23:00:00 17.64 C 29.6000 %
961 04-06-2019 00:00:00 16.42 C 35.6000 %
962 04-06-2019 01:00:00 15.54 C 39.6000 %
963 04-06-2019 02:00:00 14.78 C 43.6000 %
964 04-06-2019 03:00:00 13.94 C 45.2000 %
965 04-06-2019 04:00:00 13.32 C 46.0000 %
966 04-06-2019 05:00:00 12.92 C 47.2000 %
967 04-06-2019 06:00:00 13.22 C 47.4000 %
968 04-06-2019 07:00:00 15.34 C 36.8000 %
969 04-06-2019 08:00:00 17.06 C 30.4000 %
970 04-06-2019 09:00:00 18.8 C 27.2000 %
971 04-06-2019 10:00:00 21.12 C 21.0000 %
972 04-06-2019 11:00:00 24.24 C 20.0000 %
973 04-06-2019 12:00:00 25.16 C 20.0000 %
974 04-06-2019 13:00:00 26.72 C 20.0000 %
975 04-06-2019 14:00:00 28.8 C 20.0000 %
Sensor: Nr:Datum:Temp:Feuchte:
Aussen-T/F 976 04-06-2019 15:00:00 29.74 C 20.0000 %
977 04-06-2019 16:00:00 30.98 C 20.0000 %
978 04-06-2019 17:00:00 32.38 C 20.0000 %
979 04-06-2019 18:00:00 30.92 C 20.0000 %
980 04-06-2019 19:00:00 29.14 C 20.0000 %
981 04-06-2019 20:00:00 25.94 C 20.0000 %
982 04-06-2019 21:00:00 22.78 C 20.0000 %
983 04-06-2019 22:00:00 21.68 C 20.0000 %
984 04-06-2019 23:00:00 22.34 C 20.0000 %
985 05-06-2019 00:00:00 22.84 C 20.0000 %
986 05-06-2019 01:00:00 21.02 C 20.0000 %
987 05-06-2019 02:00:00 20.14 C 21.2000 %
988 05-06-2019 03:00:00 19.14 C 24.4000 %
989 05-06-2019 04:00:00 18.48 C 27.6000 %
990 05-06-2019 05:00:00 17.12 C 30.8000 %
991 05-06-2019 06:00:00 17.9 C 30.0000 %
992 05-06-2019 07:00:00 17.9 C 32.4000 %
993 05-06-2019 08:00:00 18.7 C 32.8000 %
994 05-06-2019 09:00:00 22.22 C 21.8000 %
995 05-06-2019 10:00:00 23.62 C 20.0000 %
996 05-06-2019 11:00:00 26.24 C 20.0000 %
997 05-06-2019 12:00:00 25.86 C 20.0000 %
998 05-06-2019 13:00:00 26.7 C 20.0000 %
999 05-06-2019 14:00:00 28.88 C 20.0000 %
1000 05-06-2019 15:00:00 30.56 C 20.0000 %
Sensor: Nr:Datum:Temp:Feuchte:
Aussen-T/F 1001 05-06-2019 16:00:00 30.6 C 20.0000 %
1002 05-06-2019 17:00:00 30.64 C 20.0000 %
1003 05-06-2019 18:00:00 27.8 C 20.0000 %
1004 05-06-2019 19:00:00 28.72 C 20.0000 %
1005 05-06-2019 20:00:00 25.78 C 20.0000 %
1006 05-06-2019 21:00:00 22.86 C 20.2000 %
1007 05-06-2019 22:00:00 21.44 C 21.8000 %
1008 05-06-2019 23:00:00 20.74 C 23.8000 %
1009 06-06-2019 00:00:00 22.02 C 21.0000 %
1010 06-06-2019 01:00:00 18.06 C 34.6000 %
1011 06-06-2019 02:00:00 16.8 C 46.4000 %
1012 06-06-2019 03:00:00 16.48 C 47.0000 %
1013 06-06-2019 04:00:00 16.4 C 48.2000 %
1014 06-06-2019 05:00:00 15.58 C 42.8000 %
1015 06-06-2019 06:00:00 14.12 C 36.4000 %
1016 06-06-2019 07:00:00 13.5 C 31.6000 %
1017 06-06-2019 08:00:00 13.66 C 28.2000 %
1018 06-06-2019 09:00:00 13.58 C 25.4000 %
1019 06-06-2019 10:00:00 14.34 C 23.0000 %
1020 06-06-2019 11:00:00 15.52 C 20.0000 %
1021 06-06-2019 12:00:00 15.94 C 20.0000 %
1022 06-06-2019 13:00:00 17.54 C 20.0000 %
1023 06-06-2019 14:00:00 18.04 C 20.0000 %
1024 06-06-2019 15:00:00 18.74 C 20.0000 %
1025 06-06-2019 16:00:00 18.84 C 20.0000 %
Sensor: Nr:Datum:Temp:Feuchte:
Aussen-T/F 1026 06-06-2019 17:00:00 17.22 C 20.0000 %
1027 06-06-2019 18:00:00 17.72 C 20.0000 %
1028 06-06-2019 19:00:00 18.58 C 20.0000 %
1029 06-06-2019 20:00:00 17.06 C 20.0000 %
1030 06-06-2019 21:00:00 14.26 C 25.4000 %
1031 06-06-2019 22:00:00 12.26 C 33.4000 %
1032 06-06-2019 23:00:00 11.14 C 37.4000 %
1033 07-06-2019 00:00:00 10.14 C 42.4000 %
1034 07-06-2019 01:00:00 9.64 C 45.4000 %
1035 07-06-2019 02:00:00 9.12 C 46.8000 %
1036 07-06-2019 03:00:00 9.54 C 48.8000 %
1037 07-06-2019 04:00:00 10.28 C 45.4000 %
1038 07-06-2019 05:00:00 9.02 C 46.6000 %
1039 07-06-2019 06:00:00 9.64 C 49.2000 %
1040 07-06-2019 07:00:00 10.54 C 45.4000 %
1041 07-06-2019 08:00:00 12.64 C 33.2000 %
1042 07-06-2019 09:00:00 14.96 C 24.2000 %
1043 07-06-2019 10:00:00 17.52 C 20.0000 %
1044 07-06-2019 11:00:00 20.6 C 20.0000 %
1045 07-06-2019 12:00:00 21.36 C 20.0000 %
1046 07-06-2019 13:00:00 21.24 C 20.0000 %
1047 07-06-2019 14:00:00 21.8 C 20.0000 %
1048 07-06-2019 15:00:00 25.02 C 20.0000 %
1049 07-06-2019 16:00:00 26.34 C 20.0000 %
1050 07-06-2019 17:00:00 25.38 C 20.0000 %
Sensor: Nr:Datum:Temp:Feuchte:
Aussen-T/F 1051 07-06-2019 18:00:00 22.72 C 20.0000 %
1052 07-06-2019 19:00:00 18.94 C 20.0000 %
1053 07-06-2019 20:00:00 15.86 C 20.4000 %
1054 07-06-2019 21:00:00 14.76 C 20.8000 %
1055 07-06-2019 22:00:00 14.4 C 20.0000 %
1056 07-06-2019 23:00:00 14.96 C 20.0000 %
1057 08-06-2019 00:00:00 15.14 C 20.0000 %
1058 08-06-2019 01:00:00 15.46 C 20.0000 %
1059 08-06-2019 02:00:00 15.7 C 20.0000 %
1060 08-06-2019 03:00:00 14.82 C 20.0000 %
1061 08-06-2019 04:00:00 14.74 C 20.0000 %
1062 08-06-2019 05:00:00 13.94 C 20.0000 %
1063 08-06-2019 06:00:00 13.22 C 20.0000 %
1064 08-06-2019 07:00:00 13.66 C 20.0000 %
1065 08-06-2019 08:00:00 14.46 C 20.0000 %
1066 08-06-2019 09:00:00 14.9 C 20.0000 %
1067 08-06-2019 10:00:00 15.28 C 20.0000 %
1068 08-06-2019 11:00:00 16.44 C 20.0000 %
1069 08-06-2019 12:00:00 17.12 C 20.0000 %
1070 08-06-2019 13:00:00 18.24 C 20.0000 %
1071 08-06-2019 14:00:00 19.48 C 20.0000 %
1072 08-06-2019 15:00:00 20.32 C 20.0000 %
1073 08-06-2019 16:00:00 20.58 C 20.0000 %
1074 08-06-2019 17:00:00 20.72 C 20.0000 %
1075 08-06-2019 18:00:00 20.78 C 20.0000 %
Sensor: Nr:Datum:Temp:Feuchte:
Aussen-T/F 1076 08-06-2019 19:00:00 19.02 C 20.0000 %
1077 08-06-2019 20:00:00 17.34 C 20.0000 %
1078 08-06-2019 21:00:00 15.94 C 20.0000 %
1079 08-06-2019 22:00:00 14 C 20.4000 %
1080 08-06-2019 23:00:00 12.52 C 26.0000 %
1081 09-06-2019 00:00:00 11.44 C 31.8000 %
1082 09-06-2019 01:00:00 11 C 33.8000 %
1083 09-06-2019 02:00:00 10.86 C 35.0000 %
1084 09-06-2019 03:00:00 10.08 C 38.6000 %
1085 09-06-2019 04:00:00 9.08 C 41.2000 %
1086 09-06-2019 05:00:00 8.34 C 44.6000 %
1087 09-06-2019 06:00:00 8.48 C 45.4000 %
1088 09-06-2019 07:00:00 9.88 C 44.6000 %
1089 09-06-2019 08:00:00 11.14 C 42.2000 %
1090 09-06-2019 09:00:00 14.66 C 28.2000 %
1091 09-06-2019 10:00:00 18 C 20.2000 %
1092 09-06-2019 11:00:00 20.28 C 20.0000 %
1093 09-06-2019 12:00:00 21.06 C 20.0000 %
1094 09-06-2019 13:00:00 21.68 C 20.0000 %
1095 09-06-2019 14:00:00 23.34 C 20.0000 %
1096 09-06-2019 15:00:00 23.82 C 20.0000 %
1097 09-06-2019 16:00:00 24.14 C 20.0000 %
1098 09-06-2019 17:00:00 23.54 C 20.0000 %
1099 09-06-2019 18:00:00 23.72 C 20.0000 %
1100 09-06-2019 19:00:00 22 C 20.0000 %
Sensor: Nr:Datum:Temp:Feuchte:
Aussen-T/F 1101 09-06-2019 20:00:00 19.86 C 20.0000 %
1102 09-06-2019 21:00:00 18.84 C 20.0000 %
1103 09-06-2019 22:00:00 18.26 C 20.0000 %
1104 09-06-2019 23:00:00 17.86 C 20.8000 %
1105 10-06-2019 00:00:00 17.5 C 22.4000 %
1106 10-06-2019 01:00:00 16.82 C 22.6000 %
1107 10-06-2019 02:00:00 15.54 C 25.4000 %
1108 10-06-2019 03:00:00 15.4 C 26.0000 %
1109 10-06-2019 04:00:00 14.48 C 33.2000 %
1110 10-06-2019 05:00:00 14.66 C 34.4000 %
1111 10-06-2019 06:00:00 14.82 C 35.2000 %
1112 10-06-2019 07:00:00 15.74 C 32.2000 %
1113 10-06-2019 08:00:00 17.94 C 23.0000 %
1114 10-06-2019 09:00:00 19.46 C 20.0000 %
1115 10-06-2019 10:00:00 20.84 C 20.0000 %
1116 10-06-2019 11:00:00 23 C 20.0000 %
1117 10-06-2019 12:00:00 23.8 C 20.0000 %
1118 10-06-2019 13:00:00 23.74 C 20.0000 %
1119 10-06-2019 14:00:00 24.22 C 20.0000 %
1120 10-06-2019 15:00:00 24.22 C 20.0000 %
1121 10-06-2019 16:00:00 25.18 C 20.0000 %
1122 10-06-2019 17:00:00 24.26 C 20.0000 %
1123 10-06-2019 18:00:00 23.8 C 20.0000 %
1124 10-06-2019 19:00:00 22 C 20.0000 %
1125 10-06-2019 20:00:00 20.64 C 20.0000 %
Sensor: Nr:Datum:Temp:Feuchte:
Aussen-T/F 1126 10-06-2019 21:00:00 19.38 C 20.0000 %
1127 10-06-2019 22:00:00 18.16 C 22.6000 %
1128 10-06-2019 23:00:00 17.32 C 26.4000 %
1129 11-06-2019 00:00:00 16.76 C 30.4000 %
1130 11-06-2019 01:00:00 16.6 C 31.0000 %
1131 11-06-2019 02:00:00 16.12 C 32.6000 %
1132 11-06-2019 03:00:00 14.76 C 45.0000 %
1133 11-06-2019 04:00:00 14.18 C 47.0000 %
1134 11-06-2019 05:00:00 13.84 C 50.0000 %
1135 11-06-2019 06:00:00 13.82 C 52.8000 %
1136 11-06-2019 07:00:00 14.24 C 52.0000 %
1137 11-06-2019 08:00:00 14.82 C 43.0000 %
1138 11-06-2019 09:00:00 16.04 C 34.6000 %
1139 11-06-2019 10:00:00 16.88 C 30.0000 %
1140 11-06-2019 11:00:00 18.3 C 26.6000 %
1141 11-06-2019 12:00:00 18.84 C 23.4000 %
1142 11-06-2019 13:00:00 20.28 C 20.0000 %
1143 11-06-2019 14:00:00 21.72 C 20.0000 %
1144 11-06-2019 15:00:00 22.68 C 20.0000 %
1145 11-06-2019 16:00:00 21.02 C 20.8000 %
1146 11-06-2019 17:00:00 18.74 C 26.4000 %
1147 11-06-2019 18:00:00 18.64 C 27.2000 %
1148 11-06-2019 19:00:00 20.46 C 21.0000 %
1149 11-06-2019 20:00:00 18.7 C 26.4000 %
1150 11-06-2019 21:00:00 17.32 C 30.8000 %
Sensor: Nr:Datum:Temp:Feuchte:
Aussen-T/F 1151 11-06-2019 22:00:00 16.8 C 33.0000 %
1152 11-06-2019 23:00:00 15.56 C 35.2000 %
1153 12-06-2019 00:00:00 14.78 C 35.8000 %
1154 12-06-2019 01:00:00 14.04 C 39.2000 %
1155 12-06-2019 02:00:00 14.4 C 38.2000 %
1156 12-06-2019 03:00:00 14.4 C 39.6000 %
1157 12-06-2019 04:00:00 14.4 C 40.0000 %
1158 12-06-2019 05:00:00 13.96 C 41.2000 %
1159 12-06-2019 06:00:00 13.88 C 41.8000 %
1160 12-06-2019 07:00:00 14.9 C 36.4000 %
1161 12-06-2019 08:00:00 16 C 32.0000 %
1162 12-06-2019 09:00:00 16.52 C 29.0000 %
1163 12-06-2019 10:00:00 14.66 C 45.6000 %
1164 12-06-2019 11:00:00 13.68 C 46.4000 %
1165 12-06-2019 12:00:00 13.94 C 47.2000 %
1166 12-06-2019 13:00:00 15.28 C 39.8000 %
1167 12-06-2019 14:00:00 17.94 C 25.0000 %
1168 12-06-2019 15:00:00 18.96 C 21.6000 %
1169 12-06-2019 16:00:00 20.78 C 20.0000 %
1170 12-06-2019 17:00:00 22.6 C 20.0000 %
1171 12-06-2019 18:00:00 23.72 C 20.0000 %
1172 12-06-2019 19:00:00 22.16 C 20.0000 %
1173 12-06-2019 20:00:00 19.72 C 20.0000 %
1174 12-06-2019 21:00:00 16.16 C 26.6000 %
1175 12-06-2019 22:00:00 13.94 C 35.0000 %
Sensor: Nr:Datum:Temp:Feuchte:
Aussen-T/F 1176 12-06-2019 23:00:00 12.9 C 38.6000 %
1177 13-06-2019 00:00:00 12.2 C 41.0000 %
1178 13-06-2019 01:00:00 11.32 C 43.0000 %
1179 13-06-2019 02:00:00 10.72 C 46.0000 %
1180 13-06-2019 03:00:00 10.5 C 46.0000 %
1181 13-06-2019 04:00:00 10.5 C 46.0000 %
1182 13-06-2019 05:00:00 10.5 C 46.0000 %
1183 13-06-2019 06:00:00 10.06 C 47.6000 %
1184 13-06-2019 07:00:00 10.12 C 50.2000 %
1185 13-06-2019 08:00:00 11.9 C 47.0000 %
1186 13-06-2019 09:00:00 16.02 C 26.6000 %
1187 13-06-2019 10:00:00 18.62 C 20.0000 %
1188 13-06-2019 11:00:00 21.12 C 20.0000 %
1189 13-06-2019 12:00:00 20.5 C 20.0000 %
1190 13-06-2019 13:00:00 21.78 C 20.0000 %
1191 13-06-2019 14:00:00 22.2 C 20.0000 %
1192 13-06-2019 15:00:00 23.12 C 20.0000 %
1193 13-06-2019 16:00:00 24.82 C 20.0000 %
1194 13-06-2019 17:00:00 25.26 C 20.0000 %
1195 13-06-2019 18:00:00 25.18 C 20.0000 %
1196 13-06-2019 19:00:00 19.66 C 23.0000 %
1197 13-06-2019 20:00:00 15.28 C 40.8000 %
1198 13-06-2019 21:00:00 14.26 C 45.2000 %
1199 13-06-2019 22:00:00 12.6 C 48.6000 %
1200 13-06-2019 23:00:00 12.46 C 49.4000 %
Sensor: Nr:Datum:Temp:Feuchte:
Aussen-T/F 1201 14-06-2019 00:00:00 11.74 C 50.0000 %
1202 14-06-2019 01:00:00 11.5 C 52.8000 %
1203 14-06-2019 02:00:00 12.1 C 61.0000 %
1204 14-06-2019 03:00:00 11.84 C 57.6000 %
1205 14-06-2019 04:00:00 11.38 C 55.8000 %
1206 14-06-2019 05:00:00 11.34 C 55.4000 %
1207 14-06-2019 06:00:00 11.4 C 49.8000 %
1208 14-06-2019 07:00:00 11.48 C 46.6000 %
1209 14-06-2019 08:00:00 12.62 C 45.8000 %
1210 14-06-2019 09:00:00 15.9 C 36.6000 %
1211 14-06-2019 10:00:00 18.64 C 33.0000 %
1212 14-06-2019 11:00:00 21.6 C 27.8000 %
1213 14-06-2019 12:00:00 23.36 C 20.4000 %
1214 14-06-2019 13:00:00 24.18 C 20.0000 %
1215 14-06-2019 14:00:00 26.78 C 20.0000 %
1216 14-06-2019 15:00:00 27.1 C 20.0000 %
1217 14-06-2019 16:00:00 25.96 C 20.0000 %
1218 14-06-2019 17:00:00 25.18 C 20.0000 %
1219 14-06-2019 18:00:00 24.44 C 20.0000 %
1220 14-06-2019 19:00:00 22.1 C 21.0000 %
1221 14-06-2019 20:00:00 19.52 C 27.6000 %
1222 14-06-2019 21:00:00 18.76 C 31.4000 %
1223 14-06-2019 22:00:00 18.94 C 28.4000 %
1224 14-06-2019 23:00:00 18.22 C 34.8000 %
1225 15-06-2019 00:00:00 16.88 C 45.8000 %
Sensor: Nr:Datum:Temp:Feuchte:
Aussen-T/F 1226 15-06-2019 01:00:00 15.88 C 48.0000 %
1227 15-06-2019 02:00:00 15.12 C 50.8000 %
1228 15-06-2019 03:00:00 14.66 C 56.4000 %
1229 15-06-2019 04:00:00 14.76 C 60.8000 %
1230 15-06-2019 05:00:00 14.56 C 60.4000 %
1231 15-06-2019 06:00:00 15.2 C 56.2000 %
1232 15-06-2019 07:00:00 15.98 C 50.2000 %
1233 15-06-2019 08:00:00 17.12 C 40.2000 %
1234 15-06-2019 09:00:00 19.58 C 28.4000 %
1235 15-06-2019 10:00:00 20.92 C 23.2000 %
1236 15-06-2019 11:00:00 21.82 C 20.0000 %
1237 15-06-2019 12:00:00 22.2 C 20.0000 %
1238 15-06-2019 13:00:00 21.8 C 20.0000 %
1239 15-06-2019 14:00:00 21.92 C 20.4000 %
1240 15-06-2019 15:00:00 23.04 C 20.0000 %
1241 15-06-2019 16:00:00 24.42 C 20.0000 %
1242 15-06-2019 17:00:00 25.96 C 20.0000 %
1243 15-06-2019 18:00:00 27.28 C 20.0000 %
1244 15-06-2019 19:00:00 25.2 C 20.0000 %
1245 15-06-2019 20:00:00 22.86 C 20.0000 %
1246 15-06-2019 21:00:00 20.16 C 20.8000 %
1247 15-06-2019 22:00:00 18.24 C 25.4000 %
1248 15-06-2019 23:00:00 17.86 C 25.6000 %
1249 16-06-2019 00:00:00 17.48 C 27.6000 %
1250 16-06-2019 01:00:00 17.54 C 27.6000 %
Sensor: Nr:Datum:Temp:Feuchte:
Aussen-T/F 1251 16-06-2019 02:00:00 17.14 C 29.4000 %
1252 16-06-2019 03:00:00 17.02 C 29.0000 %
1253 16-06-2019 04:00:00 16.98 C 27.2000 %
1254 16-06-2019 05:00:00 16.12 C 30.4000 %
1255 16-06-2019 06:00:00 15.04 C 39.4000 %
1256 16-06-2019 07:00:00 15.86 C 36.8000 %
1257 16-06-2019 08:00:00 16.32 C 33.2000 %
1258 16-06-2019 09:00:00 21.64 C 21.6000 %
1259 16-06-2019 10:00:00 21.52 C 20.0000 %
1260 16-06-2019 11:00:00 22.2 C 20.0000 %
1261 16-06-2019 12:00:00 22.78 C 20.0000 %
1262 16-06-2019 13:00:00 23.44 C 20.0000 %
1263 16-06-2019 14:00:00 23.68 C 20.0000 %
1264 16-06-2019 15:00:00 24.38 C 20.0000 %
1265 16-06-2019 16:00:00 24.26 C 20.0000 %
1266 16-06-2019 17:00:00 23.12 C 20.0000 %
1267 16-06-2019 18:00:00 25.2 C 20.0000 %
1268 16-06-2019 19:00:00 23.72 C 20.0000 %
1269 16-06-2019 20:00:00 22.46 C 20.0000 %
1270 16-06-2019 21:00:00 19 C 20.2000 %
1271 16-06-2019 22:00:00 16.6 C 25.0000 %
1272 16-06-2019 23:00:00 15.16 C 30.6000 %
1273 17-06-2019 00:00:00 13.88 C 34.0000 %
1274 17-06-2019 01:00:00 13.18 C 37.6000 %
1275 17-06-2019 02:00:00 12.58 C 41.0000 %
Sensor: Nr:Datum:Temp:Feuchte:
Aussen-T/F 1276 17-06-2019 03:00:00 11.98 C 43.6000 %
1277 17-06-2019 04:00:00 11.52 C 45.6000 %
1278 17-06-2019 05:00:00 11.12 C 46.4000 %
1279 17-06-2019 06:00:00 11.26 C 47.0000 %
1280 17-06-2019 07:00:00 11.72 C 46.8000 %
1281 17-06-2019 08:00:00 13.34 C 43.0000 %
1282 17-06-2019 09:00:00 19.52 C 25.4000 %
1283 17-06-2019 10:00:00 21.24 C 20.0000 %
1284 17-06-2019 11:00:00 24.5 C 20.0000 %
1285 17-06-2019 12:00:00 25 C 20.0000 %
1286 17-06-2019 13:00:00 25.5 C 20.0000 %
1287 17-06-2019 14:00:00 26.32 C 20.0000 %
1288 17-06-2019 15:00:00 26.06 C 20.0000 %
1289 17-06-2019 16:00:00 27.16 C 20.0000 %
1290 17-06-2019 17:00:00 28.82 C 20.0000 %
1291 17-06-2019 18:00:00 28.34 C 20.0000 %
1292 17-06-2019 19:00:00 27.06 C 20.0000 %
1293 17-06-2019 20:00:00 22.74 C 20.0000 %
1294 17-06-2019 21:00:00 20.3 C 20.0000 %
1295 17-06-2019 22:00:00 18.44 C 21.6000 %
1296 17-06-2019 23:00:00 16.72 C 27.0000 %
1297 18-06-2019 00:00:00 15.6 C 31.0000 %
1298 18-06-2019 01:00:00 14.9 C 34.8000 %
1299 18-06-2019 02:00:00 14.32 C 38.2000 %
1300 18-06-2019 03:00:00 13.8 C 41.8000 %
Sensor: Nr:Datum:Temp:Feuchte:
Aussen-T/F 1301 18-06-2019 04:00:00 13.92 C 41.8000 %
1302 18-06-2019 05:00:00 13.62 C 41.6000 %
1303 18-06-2019 06:00:00 13.96 C 43.0000 %
1304 18-06-2019 07:00:00 15.4 C 35.6000 %
1305 18-06-2019 08:00:00 16.6 C 31.8000 %
1306 18-06-2019 09:00:00 22.56 C 23.2000 %
1307 18-06-2019 10:00:00 23.44 C 20.0000 %
1308 18-06-2019 11:00:00 27.06 C 20.0000 %
1309 18-06-2019 12:00:00 28.34 C 20.0000 %
1310 18-06-2019 13:00:00 29.1 C 20.0000 %
1311 18-06-2019 14:00:00 30.24 C 20.0000 %
1312 18-06-2019 15:00:00 31.16 C 20.0000 %
1313 18-06-2019 16:00:00 30.36 C 20.0000 %
1314 18-06-2019 17:00:00 29.52 C 20.0000 %
1315 18-06-2019 18:00:00 29.7 C 20.0000 %
1316 18-06-2019 19:00:00 26.68 C 20.0000 %
1317 18-06-2019 20:00:00 25.04 C 20.0000 %
1318 18-06-2019 21:00:00 22.82 C 20.0000 %
1319 18-06-2019 22:00:00 21.04 C 21.6000 %
1320 18-06-2019 23:00:00 19.38 C 26.8000 %
1321 19-06-2019 00:00:00 18.18 C 31.4000 %
1322 19-06-2019 01:00:00 17.4 C 35.0000 %
1323 19-06-2019 02:00:00 17.36 C 37.0000 %
1324 19-06-2019 03:00:00 16.26 C 39.0000 %
1325 19-06-2019 04:00:00 15.52 C 41.0000 %
Sensor: Nr:Datum:Temp:Feuchte:
Aussen-T/F 1326 19-06-2019 05:00:00 14.96 C 43.2000 %
1327 19-06-2019 06:00:00 14.92 C 44.4000 %
1328 19-06-2019 07:00:00 15.56 C 43.8000 %
1329 19-06-2019 08:00:00 17.26 C 39.6000 %
1330 19-06-2019 09:00:00 23.42 C 25.2000 %
1331 19-06-2019 10:00:00 26.24 C 20.0000 %
1332 19-06-2019 11:00:00 28.44 C 20.0000 %
1333 19-06-2019 12:00:00 26.7 C 20.0000 %
1334 19-06-2019 13:00:00 26.56 C 20.0000 %
1335 19-06-2019 14:00:00 27.58 C 20.0000 %
1336 19-06-2019 15:00:00 28.36 C 20.0000 %
1337 19-06-2019 16:00:00 30.64 C 20.0000 %
1338 19-06-2019 17:00:00 32.12 C 20.0000 %
1339 19-06-2019 18:00:00 27.74 C 20.0000 %
1340 19-06-2019 19:00:00 28.96 C 20.0000 %
1341 19-06-2019 20:00:00 24.7 C 20.0000 %
1342 19-06-2019 21:00:00 22.76 C 20.0000 %
1343 19-06-2019 22:00:00 21.46 C 20.4000 %
1344 19-06-2019 23:00:00 19.92 C 24.6000 %
1345 20-06-2019 00:00:00 18.7 C 28.6000 %
1346 20-06-2019 01:00:00 18.04 C 32.0000 %
1347 20-06-2019 02:00:00 17.62 C 35.6000 %
1348 20-06-2019 03:00:00 18.08 C 34.2000 %
1349 20-06-2019 04:00:00 17.36 C 36.8000 %
1350 20-06-2019 05:00:00 16.48 C 41.0000 %
Sensor: Nr:Datum:Temp:Feuchte:
Aussen-T/F 1351 20-06-2019 06:00:00 17.42 C 37.0000 %
1352 20-06-2019 07:00:00 18.22 C 31.8000 %
1353 20-06-2019 08:00:00 20.18 C 22.2000 %
1354 20-06-2019 09:00:00 21.12 C 20.0000 %
1355 20-06-2019 10:00:00 22.62 C 20.0000 %
1356 20-06-2019 11:00:00 23.26 C 20.0000 %
1357 20-06-2019 12:00:00 24.34 C 20.0000 %
1358 20-06-2019 13:00:00 24.36 C 20.0000 %
1359 20-06-2019 14:00:00 26.36 C 20.0000 %
1360 20-06-2019 15:00:00 21.34 C 28.0000 %
1361 20-06-2019 16:00:00 23.82 C 20.4000 %
1362 20-06-2019 17:00:00 21.36 C 23.2000 %
1363 20-06-2019 18:00:00 20.76 C 22.6000 %
1364 20-06-2019 19:00:00 19.3 C 24.6000 %
1365 20-06-2019 20:00:00 19.2 C 25.0000 %
1366 20-06-2019 21:00:00 18.02 C 31.8000 %
1367 20-06-2019 22:00:00 16.64 C 36.2000 %
1368 20-06-2019 23:00:00 15.4 C 41.4000 %
1369 21-06-2019 00:00:00 15.6 C 42.8000 %
1370 21-06-2019 01:00:00 14.74 C 43.2000 %
1371 21-06-2019 02:00:00 14.98 C 44.0000 %
1372 21-06-2019 03:00:00 15.24 C 42.8000 %
1373 21-06-2019 04:00:00 14.9 C 43.2000 %
1374 21-06-2019 05:00:00 14.4 C 42.0000 %
1375 21-06-2019 06:00:00 14.52 C 40.0000 %
Sensor: Nr:Datum:Temp:Feuchte:
Aussen-T/F 1376 21-06-2019 07:00:00 15.1 C 36.0000 %
1377 21-06-2019 08:00:00 16.78 C 21.6000 %
1378 21-06-2019 09:00:00 20 C 20.0000 %
1379 21-06-2019 10:00:00 20.48 C 20.0000 %
1380 21-06-2019 11:00:00 21.54 C 20.0000 %
1381 21-06-2019 12:00:00 21.86 C 20.0000 %
1382 21-06-2019 13:00:00 22.82 C 20.0000 %
1383 21-06-2019 14:00:00 23.64 C 20.0000 %
1384 21-06-2019 15:00:00 23.92 C 20.0000 %
1385 21-06-2019 16:00:00 24.58 C 20.0000 %
1386 21-06-2019 17:00:00 26.2 C 20.0000 %
1387 21-06-2019 18:00:00 25.94 C 20.0000 %
1388 21-06-2019 19:00:00 23.96 C 20.0000 %
1389 21-06-2019 20:00:00 22.14 C 20.0000 %
1390 21-06-2019 21:00:00 19.38 C 20.0000 %
1391 21-06-2019 22:00:00 16.34 C 20.0000 %
1392 21-06-2019 23:00:00 15.16 C 20.4000 %
1393 22-06-2019 00:00:00 13.74 C 26.4000 %
1394 22-06-2019 01:00:00 13.18 C 29.2000 %
1395 22-06-2019 02:00:00 12.12 C 35.2000 %
1396 22-06-2019 03:00:00 11.6 C 38.6000 %
1397 22-06-2019 04:00:00 11.1 C 41.4000 %
1398 22-06-2019 05:00:00 10.84 C 44.0000 %
1399 22-06-2019 06:00:00 11.04 C 44.4000 %
1400 22-06-2019 07:00:00 12.56 C 42.6000 %
Sensor: Nr:Datum:Temp:Feuchte:
Aussen-T/F 1401 22-06-2019 08:00:00 15 C 30.0000 %
1402 22-06-2019 09:00:00 20.32 C 20.6000 %
1403 22-06-2019 10:00:00 21.7 C 20.0000 %
1404 22-06-2019 11:00:00 23.12 C 20.0000 %
1405 22-06-2019 12:00:00 24.54 C 20.0000 %
1406 22-06-2019 13:00:00 25.1 C 20.0000 %
1407 22-06-2019 14:00:00 26 C 20.0000 %
1408 22-06-2019 15:00:00 26.5 C 20.0000 %
1409 22-06-2019 16:00:00 27.34 C 20.0000 %
1410 22-06-2019 17:00:00 26.82 C 20.0000 %
1411 22-06-2019 18:00:00 27.78 C 20.0000 %
1412 22-06-2019 19:00:00 27.66 C 20.0000 %
1413 22-06-2019 20:00:00 26.78 C 20.0000 %
1414 22-06-2019 21:00:00 22.96 C 20.0000 %
1415 22-06-2019 22:00:00 19.56 C 21.2000 %
1416 22-06-2019 23:00:00 18.48 C 25.2000 %
1417 23-06-2019 00:00:00 17.24 C 29.2000 %
1418 23-06-2019 01:00:00 16.22 C 34.0000 %
1419 23-06-2019 02:00:00 15.66 C 37.0000 %
1420 23-06-2019 03:00:00 14.86 C 39.6000 %
1421 23-06-2019 04:00:00 14.42 C 42.0000 %
1422 23-06-2019 05:00:00 14.02 C 43.4000 %
1423 23-06-2019 06:00:00 14.34 C 44.2000 %
1424 23-06-2019 07:00:00 14.96 C 43.2000 %
1425 23-06-2019 08:00:00 16.94 C 38.0000 %
Sensor: Nr:Datum:Temp:Feuchte:
Aussen-T/F 1426 23-06-2019 09:00:00 22.62 C 22.8000 %
1427 23-06-2019 10:00:00 24.32 C 20.0000 %
1428 23-06-2019 11:00:00 25.7 C 20.0000 %
1429 23-06-2019 12:00:00 26.46 C 20.0000 %
1430 23-06-2019 13:00:00 27.56 C 20.0000 %
1431 23-06-2019 14:00:00 29.04 C 20.0000 %
1432 23-06-2019 15:00:00 29.68 C 20.0000 %
1433 23-06-2019 16:00:00 30.84 C 20.0000 %
1434 23-06-2019 17:00:00 31.22 C 20.0000 %
1435 23-06-2019 18:00:00 30.72 C 20.0000 %
1436 23-06-2019 19:00:00 28.98 C 20.0000 %
1437 23-06-2019 20:00:00 25.3 C 20.0000 %
1438 23-06-2019 21:00:00 23.02 C 20.0000 %
1439 23-06-2019 22:00:00 21.44 C 20.0000 %
1440 23-06-2019 23:00:00 19.94 C 23.6000 %
1441 24-06-2019 00:00:00 18.88 C 27.8000 %
1442 24-06-2019 01:00:00 18.26 C 30.2000 %
1443 24-06-2019 02:00:00 17.28 C 34.4000 %
1444 24-06-2019 03:00:00 16.72 C 37.2000 %
1445 24-06-2019 04:00:00 16.34 C 39.4000 %
1446 24-06-2019 05:00:00 16.28 C 41.2000 %
1447 24-06-2019 06:00:00 16.7 C 41.0000 %
1448 24-06-2019 07:00:00 17.64 C 40.2000 %
1449 24-06-2019 08:00:00 19.2 C 35.4000 %
1450 24-06-2019 09:00:00 25.54 C 22.4000 %
Sensor: Nr:Datum:Temp:Feuchte:
Aussen-T/F 1451 24-06-2019 10:00:00 27.38 C 20.0000 %
1452 24-06-2019 11:00:00 29.04 C 20.0000 %
1453 24-06-2019 12:00:00 29.52 C 20.0000 %
1454 24-06-2019 13:00:00 29.94 C 20.0000 %
1455 24-06-2019 14:00:00 31.66 C 20.0000 %
1456 24-06-2019 15:00:00 32.54 C 20.0000 %
1457 24-06-2019 16:00:00 33.18 C 20.0000 %
1458 24-06-2019 17:00:00 33.32 C 20.0000 %
1459 24-06-2019 18:00:00 33.5 C 20.0000 %
1460 24-06-2019 19:00:00 32.52 C 20.0000 %
1461 24-06-2019 20:00:00 30.78 C 20.0000 %
1462 24-06-2019 21:00:00 26.26 C 20.0000 %
1463 24-06-2019 22:00:00 23.84 C 20.0000 %
1464 24-06-2019 23:00:00 22.76 C 20.0000 %
1465 25-06-2019 00:00:00 21.26 C 22.0000 %
1466 25-06-2019 01:00:00 20.38 C 25.6000 %
1467 25-06-2019 02:00:00 19.24 C 29.6000 %
1468 25-06-2019 03:00:00 18.2 C 32.6000 %
1469 25-06-2019 04:00:00 17.64 C 36.0000 %
1470 25-06-2019 05:00:00 17.4 C 37.4000 %
1471 25-06-2019 06:00:00 17.86 C 38.0000 %
1472 25-06-2019 07:00:00 18.66 C 37.0000 %
1473 25-06-2019 08:00:00 21.02 C 30.4000 %
1474 25-06-2019 09:00:00 26.54 C 20.8000 %
1475 25-06-2019 10:00:00 28.16 C 20.0000 %
Sensor: Nr:Datum:Temp:Feuchte:
Aussen-T/F 1476 25-06-2019 11:00:00 29.98 C 20.0000 %
1477 25-06-2019 12:00:00 31.16 C 20.0000 %
1478 25-06-2019 13:00:00 32.14 C 20.0000 %
1479 25-06-2019 14:00:00 34.4 C 20.0000 %
1480 25-06-2019 15:00:00 36.52 C 20.0000 %
1481 25-06-2019 16:00:00 37.2 C 20.0000 %
1482 25-06-2019 17:00:00 38.4 C 20.0000 %
1483 25-06-2019 18:00:00 37.1 C 20.0000 %
1484 25-06-2019 19:00:00 33.76 C 20.0000 %
1485 25-06-2019 20:00:00 30.72 C 20.0000 %
1486 25-06-2019 21:00:00 27.18 C 20.0000 %
1487 25-06-2019 22:00:00 25.14 C 20.0000 %
1488 25-06-2019 23:00:00 23.94 C 20.0000 %
1489 26-06-2019 00:00:00 23.08 C 20.0000 %
1490 26-06-2019 01:00:00 22.22 C 20.8000 %
1491 26-06-2019 02:00:00 21.14 C 24.8000 %
1492 26-06-2019 03:00:00 20.66 C 27.4000 %
1493 26-06-2019 04:00:00 19.68 C 31.2000 %
1494 26-06-2019 05:00:00 19.62 C 32.8000 %
1495 26-06-2019 06:00:00 19.86 C 33.6000 %
1496 26-06-2019 07:00:00 20.74 C 32.4000 %
1497 26-06-2019 08:00:00 22.86 C 29.0000 %
1498 26-06-2019 09:00:00 27.54 C 22.0000 %
1499 26-06-2019 10:00:00 29.08 C 20.0000 %
1500 26-06-2019 11:00:00 30.92 C 20.0000 %
Sensor: Nr:Datum:Temp:Feuchte:
Aussen-T/F 1501 26-06-2019 12:00:00 32.16 C 20.0000 %
1502 26-06-2019 13:00:00 32.76 C 20.0000 %
1503 26-06-2019 14:00:00 34.26 C 20.0000 %
1504 26-06-2019 15:00:00 35.12 C 20.0000 %
1505 26-06-2019 16:00:00 35.28 C 20.0000 %
1506 26-06-2019 17:00:00 35.38 C 20.0000 %
1507 26-06-2019 18:00:00 34.8 C 20.0000 %
1508 26-06-2019 19:00:00 33.54 C 20.0000 %
1509 26-06-2019 20:00:00 31.38 C 20.0000 %
1510 26-06-2019 21:00:00 28.62 C 20.0000 %
1511 26-06-2019 22:00:00 26.36 C 20.0000 %
1512 26-06-2019 23:00:00 26.18 C 20.0000 %
1513 27-06-2019 00:00:00 25.26 C 20.0000 %
1514 27-06-2019 01:00:00 24.22 C 20.2000 %
1515 27-06-2019 02:00:00 23.36 C 22.2000 %
1516 27-06-2019 03:00:00 22.56 C 21.4000 %
1517 27-06-2019 04:00:00 21.88 C 20.2000 %
1518 27-06-2019 05:00:00 20.54 C 24.4000 %
1519 27-06-2019 06:00:00 20.18 C 25.0000 %
1520 27-06-2019 07:00:00 20.6 C 21.2000 %
1521 27-06-2019 08:00:00 21.44 C 20.0000 %
1522 27-06-2019 09:00:00 24.54 C 20.0000 %
1523 27-06-2019 10:00:00 24.82 C 20.0000 %
1524 27-06-2019 11:00:00 26.46 C 20.0000 %
1525 27-06-2019 12:00:00 26.98 C 20.0000 %
Sensor: Nr:Datum:Temp:Feuchte:
Aussen-T/F 1526 27-06-2019 13:00:00 27.18 C 20.0000 %
1527 27-06-2019 14:00:00 28.78 C 20.0000 %
1528 27-06-2019 15:00:00 29.98 C 20.0000 %
1529 27-06-2019 16:00:00 30.84 C 20.0000 %
1530 27-06-2019 17:00:00 31.52 C 20.0000 %
1531 27-06-2019 18:00:00 30.92 C 20.0000 %
1532 27-06-2019 19:00:00 29.9 C 20.0000 %
1533 27-06-2019 20:00:00 27.34 C 20.0000 %
1534 27-06-2019 21:00:00 24.18 C 20.0000 %
1535 27-06-2019 22:00:00 21.12 C 20.0000 %
1536 27-06-2019 23:00:00 19.94 C 20.0000 %
1537 28-06-2019 00:00:00 18.54 C 20.0000 %
1538 28-06-2019 01:00:00 17.22 C 20.0000 %
1539 28-06-2019 02:00:00 16.4 C 21.6000 %
1540 28-06-2019 03:00:00 15.54 C 26.6000 %
1541 28-06-2019 04:00:00 14.38 C 33.0000 %
1542 28-06-2019 05:00:00 13.68 C 37.4000 %
1543 28-06-2019 06:00:00 13.8 C 39.6000 %
1544 28-06-2019 07:00:00 14.3 C 37.8000 %
1545 28-06-2019 08:00:00 16.38 C 26.4000 %
1546 28-06-2019 09:00:00 21.82 C 20.0000 %
1547 28-06-2019 10:00:00 22.48 C 20.0000 %
1548 28-06-2019 11:00:00 24.12 C 20.0000 %
1549 28-06-2019 12:00:00 25.06 C 20.0000 %
1550 28-06-2019 13:00:00 25.82 C 20.0000 %
Sensor: Nr:Datum:Temp:Feuchte:
Aussen-T/F 1551 28-06-2019 14:00:00 28.18 C 20.0000 %
1552 28-06-2019 15:00:00 30 C 20.0000 %
1553 28-06-2019 16:00:00 31.1 C 20.0000 %
1554 28-06-2019 17:00:00 32.16 C 20.0000 %
1555 28-06-2019 18:00:00 32.84 C 20.0000 %
1556 28-06-2019 19:00:00 31.62 C 20.0000 %
1557 28-06-2019 20:00:00 28.66 C 20.0000 %
1558 28-06-2019 21:00:00 24.34 C 20.0000 %
1559 28-06-2019 22:00:00 21.1 C 20.0000 %
1560 28-06-2019 23:00:00 19.22 C 20.0000 %
1561 29-06-2019 00:00:00 18.34 C 20.0000 %
1562 29-06-2019 01:00:00 17.68 C 20.0000 %
1563 29-06-2019 02:00:00 16.94 C 20.0000 %
1564 29-06-2019 03:00:00 16.22 C 20.0000 %
1565 29-06-2019 04:00:00 14.98 C 25.2000 %
1566 29-06-2019 05:00:00 14.06 C 29.2000 %
1567 29-06-2019 06:00:00 13.86 C 33.2000 %
1568 29-06-2019 07:00:00 14.3 C 34.4000 %
1569 29-06-2019 08:00:00 15.94 C 30.2000 %
1570 29-06-2019 09:00:00 22.74 C 20.0000 %
1571 29-06-2019 10:00:00 25.16 C 20.0000 %
1572 29-06-2019 11:00:00 27.88 C 20.0000 %
1573 29-06-2019 12:00:00 29.36 C 20.0000 %
1574 29-06-2019 13:00:00 30.1 C 20.0000 %
1575 29-06-2019 14:00:00 32.02 C 20.0000 %
Sensor: Nr:Datum:Temp:Feuchte:
Aussen-T/F 1576 29-06-2019 15:00:00 33.84 C 20.0000 %
1577 29-06-2019 16:00:00 34.38 C 20.0000 %
1578 29-06-2019 17:00:00 35.52 C 20.0000 %
1579 29-06-2019 18:00:00 35.86 C 20.0000 %
1580 29-06-2019 19:00:00 35.16 C 20.0000 %
1581 29-06-2019 20:00:00 30.78 C 20.0000 %
1582 29-06-2019 21:00:00 25.8 C 20.0000 %
1583 29-06-2019 22:00:00 23.48 C 20.0000 %
1584 29-06-2019 23:00:00 20.82 C 20.0000 %
1585 30-06-2019 00:00:00 18.64 C 20.0000 %
1586 30-06-2019 01:00:00 17.46 C 20.0000 %
1587 30-06-2019 02:00:00 16.74 C 20.8000 %
1588 30-06-2019 03:00:00 16.08 C 23.8000 %
1589 30-06-2019 04:00:00 15.56 C 26.6000 %
1590 30-06-2019 05:00:00 15.06 C 29.8000 %
1591 30-06-2019 06:00:00 15.06 C 32.4000 %
1592 30-06-2019 07:00:00 15.86 C 32.6000 %
1593 30-06-2019 08:00:00 17.92 C 27.6000 %
1594 30-06-2019 09:00:00 24.04 C 20.0000 %
1595 30-06-2019 10:00:00 27.92 C 20.0000 %
1596 30-06-2019 11:00:00 32.7 C 20.0000 %
1597 30-06-2019 12:00:00 34.08 C 20.0000 %
1598 30-06-2019 13:00:00 35.14 C 20.0000 %
1599 30-06-2019 14:00:00 37.28 C 20.0000 %
1600 30-06-2019 15:00:00 36.66 C 20.0000 %
Sensor: Nr:Datum:Temp:Feuchte:
Aussen-T/F 1601 30-06-2019 16:00:00 36.04 C 20.0000 %
1602 30-06-2019 17:00:00 36.24 C 20.0000 %
1603 30-06-2019 18:00:00 35.62 C 20.0000 %
1604 30-06-2019 19:00:00 32.94 C 20.0000 %
1605 30-06-2019 20:00:00 29.68 C 20.0000 %
1606 30-06-2019 21:00:00 27.66 C 20.0000 %
1607 30-06-2019 22:00:00 26.62 C 20.0000 %
1608 30-06-2019 23:00:00 24.38 C 20.0000 %
1609 01-07-2019 00:00:00 22.74 C 20.0000 %
1610 01-07-2019 01:00:00 22.7 C 20.0000 %
1611 01-07-2019 02:00:00 21.46 C 20.0000 %
1612 01-07-2019 03:00:00 21.38 C 20.0000 %
1613 01-07-2019 04:00:00 20.38 C 20.0000 %
1614 01-07-2019 05:00:00 19.82 C 20.0000 %
1615 01-07-2019 06:00:00 20.14 C 20.0000 %
1616 01-07-2019 07:00:00 19.94 C 20.0000 %
1617 01-07-2019 08:00:00 20.7 C 20.0000 %
1618 01-07-2019 09:00:00 22.1 C 20.0000 %
1619 01-07-2019 10:00:00 22.6 C 20.0000 %
1620 01-07-2019 11:00:00 23.46 C 20.0000 %
1621 01-07-2019 12:00:00 24.88 C 20.0000 %
1622 01-07-2019 13:00:00 26.06 C 20.0000 %
1623 01-07-2019 14:00:00 27.14 C 20.0000 %
1624 01-07-2019 15:00:00 28.04 C 20.0000 %
1625 01-07-2019 16:00:00 27.68 C 20.0000 %
Sensor: Nr:Datum:Temp:Feuchte:
Aussen-T/F 1626 01-07-2019 17:00:00 27.86 C 20.0000 %
1627 01-07-2019 18:00:00 27.2 C 20.0000 %
1628 01-07-2019 19:00:00 26.46 C 20.0000 %
1629 01-07-2019 20:00:00 24.7 C 20.0000 %
1630 01-07-2019 21:00:00 22.58 C 20.0000 %
1631 01-07-2019 22:00:00 20.8 C 20.0000 %
1632 01-07-2019 23:00:00 20.36 C 20.0000 %
1633 02-07-2019 00:00:00 18.62 C 20.0000 %
1634 02-07-2019 01:00:00 16.74 C 20.0000 %
1635 02-07-2019 02:00:00 15.72 C 20.0000 %
1636 02-07-2019 03:00:00 15.52 C 20.0000 %
1637 02-07-2019 04:00:00 14.26 C 24.8000 %
1638 02-07-2019 05:00:00 13.5 C 30.0000 %
1639 02-07-2019 06:00:00 13.28 C 32.8000 %
1640 02-07-2019 07:00:00 13.56 C 33.6000 %
1641 02-07-2019 08:00:00 15.98 C 23.6000 %
1642 02-07-2019 09:00:00 19.72 C 20.0000 %
1643 02-07-2019 10:00:00 20.6 C 20.0000 %
1644 02-07-2019 11:00:00 21.24 C 20.0000 %
1645 02-07-2019 12:00:00 21.92 C 20.0000 %
1646 02-07-2019 13:00:00 22.64 C 20.0000 %
1647 02-07-2019 14:00:00 23.72 C 20.0000 %
1648 02-07-2019 15:00:00 24.24 C 20.0000 %
1649 02-07-2019 16:00:00 26 C 20.0000 %
1650 02-07-2019 17:00:00 26.62 C 20.0000 %
Sensor: Nr:Datum:Temp:Feuchte:
Aussen-T/F 1651 02-07-2019 18:00:00 25.14 C 20.0000 %
1652 02-07-2019 19:00:00 25.04 C 20.0000 %
1653 02-07-2019 20:00:00 22.92 C 20.0000 %
1654 02-07-2019 21:00:00 20.44 C 20.0000 %
1655 02-07-2019 22:00:00 17.48 C 20.0000 %
1656 02-07-2019 23:00:00 16.3 C 20.0000 %
1657 03-07-2019 00:00:00 14.64 C 20.0000 %
1658 03-07-2019 01:00:00 13.26 C 20.0000 %
1659 03-07-2019 02:00:00 12.34 C 21.6000 %
1660 03-07-2019 03:00:00 11.58 C 27.0000 %
1661 03-07-2019 04:00:00 10.82 C 31.0000 %
1662 03-07-2019 05:00:00 10.28 C 33.8000 %
1663 03-07-2019 06:00:00 10.44 C 36.0000 %
1664 03-07-2019 07:00:00 11.38 C 35.4000 %
1665 03-07-2019 08:00:00 13.18 C 26.8000 %
1666 03-07-2019 09:00:00 18.62 C 20.0000 %
1667 03-07-2019 10:00:00 20.52 C 20.0000 %
1668 03-07-2019 11:00:00 22.2 C 20.0000 %
1669 03-07-2019 12:00:00 22.58 C 20.0000 %
1670 03-07-2019 13:00:00 22.42 C 20.0000 %
1671 03-07-2019 14:00:00 23.18 C 20.0000 %
1672 03-07-2019 15:00:00 23.76 C 20.0000 %
1673 03-07-2019 16:00:00 24.86 C 20.0000 %
1674 03-07-2019 17:00:00 24.86 C 20.0000 %
1675 03-07-2019 18:00:00 25.3 C 20.0000 %
Sensor: Nr:Datum:Temp:Feuchte:
Aussen-T/F 1676 03-07-2019 19:00:00 23.96 C 20.0000 %
1677 03-07-2019 20:00:00 22.36 C 20.0000 %
1678 03-07-2019 21:00:00 20.5 C 20.0000 %
1679 03-07-2019 22:00:00 17.16 C 20.0000 %
1680 03-07-2019 23:00:00 15.3 C 20.0000 %
1681 04-07-2019 00:00:00 14.14 C 20.0000 %
1682 04-07-2019 01:00:00 13.52 C 20.0000 %
1683 04-07-2019 02:00:00 12.52 C 20.0000 %
1684 04-07-2019 03:00:00 11.24 C 21.4000 %
1685 04-07-2019 04:00:00 11.12 C 24.8000 %
1686 04-07-2019 05:00:00 10.76 C 27.8000 %
1687 04-07-2019 06:00:00 10.54 C 31.0000 %
1688 04-07-2019 07:00:00 10.82 C 32.0000 %
1689 04-07-2019 08:00:00 12.58 C 25.2000 %
1690 04-07-2019 09:00:00 18.06 C 20.0000 %
1691 04-07-2019 10:00:00 20.12 C 20.0000 %
1692 04-07-2019 11:00:00 21.96 C 20.0000 %
1693 04-07-2019 12:00:00 22.26 C 20.0000 %
1694 04-07-2019 13:00:00 22.66 C 20.0000 %
1695 04-07-2019 14:00:00 24.4 C 20.0000 %
1696 04-07-2019 15:00:00 26.24 C 20.0000 %
1697 04-07-2019 16:00:00 27.34 C 20.0000 %
1698 04-07-2019 17:00:00 27.68 C 20.0000 %
1699 04-07-2019 18:00:00 28.18 C 20.0000 %
1700 04-07-2019 19:00:00 27.24 C 20.0000 %
Sensor: Nr:Datum:Temp:Feuchte:
Aussen-T/F 1701 04-07-2019 20:00:00 24.86 C 20.0000 %
1702 04-07-2019 21:00:00 20.9 C 20.0000 %
1703 04-07-2019 22:00:00 18.36 C 20.0000 %
1704 04-07-2019 23:00:00 17.52 C 20.0000 %
1705 05-07-2019 00:00:00 16.36 C 20.0000 %
1706 05-07-2019 01:00:00 14.94 C 20.0000 %
1707 05-07-2019 02:00:00 13.94 C 20.0000 %
1708 05-07-2019 03:00:00 13.94 C 20.0000 %
1709 05-07-2019 04:00:00 14.38 C 20.0000 %
1710 05-07-2019 05:00:00 14 C 20.0000 %
1711 05-07-2019 06:00:00 14.42 C 20.0000 %
1712 05-07-2019 07:00:00 15.08 C 20.0000 %
1713 05-07-2019 08:00:00 16.58 C 20.0000 %
1714 05-07-2019 09:00:00 18.54 C 20.0000 %
1715 05-07-2019 10:00:00 22.5 C 20.0000 %
1716 05-07-2019 11:00:00 23.42 C 20.0000 %
1717 05-07-2019 12:00:00 24.86 C 20.0000 %
1718 05-07-2019 13:00:00 25.36 C 20.0000 %
1719 05-07-2019 14:00:00 27.08 C 20.0000 %
1720 05-07-2019 15:00:00 28.54 C 20.0000 %
1721 05-07-2019 16:00:00 29.12 C 20.0000 %
1722 05-07-2019 17:00:00 29.94 C 20.0000 %
1723 05-07-2019 18:00:00 29.58 C 20.0000 %
1724 05-07-2019 19:00:00 28.12 C 20.0000 %
1725 05-07-2019 20:00:00 26.3 C 20.0000 %
Sensor: Nr:Datum:Temp:Feuchte:
Aussen-T/F 1726 05-07-2019 21:00:00 22.6 C 20.0000 %
1727 05-07-2019 22:00:00 21.14 C 20.0000 %
1728 05-07-2019 23:00:00 19.98 C 20.0000 %
1729 06-07-2019 00:00:00 18.32 C 20.0000 %
1730 06-07-2019 01:00:00 17.52 C 20.0000 %
1731 06-07-2019 02:00:00 17.18 C 20.0000 %
1732 06-07-2019 03:00:00 17.04 C 20.0000 %
1733 06-07-2019 04:00:00 16.18 C 23.8000 %
1734 06-07-2019 05:00:00 15.34 C 27.4000 %
1735 06-07-2019 06:00:00 15.5 C 28.8000 %
1736 06-07-2019 07:00:00 15.3 C 30.0000 %
1737 06-07-2019 08:00:00 17.58 C 21.0000 %
1738 06-07-2019 09:00:00 22.2 C 20.0000 %
1739 06-07-2019 10:00:00 24.52 C 20.0000 %
1740 06-07-2019 11:00:00 26.98 C 20.0000 %
1741 06-07-2019 12:00:00 26.74 C 20.0000 %
1742 06-07-2019 13:00:00 28.08 C 20.0000 %
1743 06-07-2019 14:00:00 29.98 C 20.0000 %
1744 06-07-2019 15:00:00 32 C 20.0000 %
1745 06-07-2019 16:00:00 29.7 C 20.0000 %
1746 06-07-2019 17:00:00 28.66 C 20.0000 %
1747 06-07-2019 18:00:00 22.72 C 20.0000 %
1748 06-07-2019 19:00:00 22.16 C 20.0000 %
1749 06-07-2019 20:00:00 20.16 C 20.0000 %
1750 06-07-2019 21:00:00 20.12 C 20.0000 %
Sensor: Nr:Datum:Temp:Feuchte:
Aussen-T/F 1751 06-07-2019 22:00:00 20.3 C 20.0000 %
1752 06-07-2019 23:00:00 20.36 C 20.0000 %
1753 07-07-2019 00:00:00 19.02 C 20.0000 %
1754 07-07-2019 01:00:00 18.02 C 20.0000 %
1755 07-07-2019 02:00:00 17.6 C 20.0000 %
1756 07-07-2019 03:00:00 17.26 C 20.0000 %
1757 07-07-2019 04:00:00 17.14 C 20.0000 %
1758 07-07-2019 05:00:00 16.18 C 24.4000 %
1759 07-07-2019 06:00:00 14.44 C 45.0000 %
1760 07-07-2019 07:00:00 14.38 C 47.0000 %
1761 07-07-2019 08:00:00 13.96 C 46.6000 %
1762 07-07-2019 09:00:00 14.86 C 40.0000 %
1763 07-07-2019 10:00:00 15.96 C 27.0000 %
1764 07-07-2019 11:00:00 17.48 C 20.0000 %
1765 07-07-2019 12:00:00 18.9 C 20.0000 %
1766 07-07-2019 13:00:00 19.38 C 20.0000 %
1767 07-07-2019 14:00:00 20.04 C 20.0000 %
1768 07-07-2019 15:00:00 22.1 C 20.0000 %
1769 07-07-2019 16:00:00 22.24 C 20.0000 %
1770 07-07-2019 17:00:00 22.16 C 20.0000 %
1771 07-07-2019 18:00:00 22.32 C 20.0000 %
1772 07-07-2019 19:00:00 21.58 C 20.0000 %
1773 07-07-2019 20:00:00 20.24 C 20.0000 %
1774 07-07-2019 21:00:00 18.48 C 20.0000 %
1775 07-07-2019 22:00:00 14.8 C 20.0000 %
Sensor: Nr:Datum:Temp:Feuchte:
Aussen-T/F 1776 07-07-2019 23:00:00 13.4 C 20.0000 %
1777 08-07-2019 00:00:00 12.78 C 21.0000 %
1778 08-07-2019 01:00:00 11.72 C 28.2000 %
1779 08-07-2019 02:00:00 11.1 C 29.8000 %
1780 08-07-2019 03:00:00 11 C 29.2000 %
1781 08-07-2019 04:00:00 10.62 C 29.6000 %
1782 08-07-2019 05:00:00 9.74 C 36.2000 %
1783 08-07-2019 06:00:00 9.58 C 39.4000 %
1784 08-07-2019 07:00:00 10.2 C 40.0000 %
1785 08-07-2019 08:00:00 12.04 C 32.0000 %
1786 08-07-2019 09:00:00 16.32 C 20.0000 %
1787 08-07-2019 10:00:00 16.22 C 20.0000 %
1788 08-07-2019 11:00:00 16.94 C 20.0000 %
1789 08-07-2019 12:00:00 17.36 C 20.0000 %
1790 08-07-2019 13:00:00 17.76 C 20.0000 %
1791 08-07-2019 14:00:00 17.98 C 20.0000 %
1792 08-07-2019 15:00:00 18.08 C 20.0000 %
1793 08-07-2019 16:00:00 18.64 C 20.0000 %
1794 08-07-2019 17:00:00 18.68 C 20.0000 %
1795 08-07-2019 18:00:00 18.46 C 20.0000 %
1796 08-07-2019 19:00:00 18.14 C 20.0000 %
1797 08-07-2019 20:00:00 17.84 C 20.0000 %
1798 08-07-2019 21:00:00 15.64 C 20.0000 %
1799 08-07-2019 22:00:00 13.86 C 20.0000 %
1800 08-07-2019 23:00:00 13.92 C 20.0000 %
Sensor: Nr:Datum:Temp:Feuchte:
Aussen-T/F 1801 09-07-2019 00:00:00 13.12 C 22.6000 %
1802 09-07-2019 01:00:00 12.42 C 26.8000 %
1803 09-07-2019 02:00:00 11.56 C 31.2000 %
1804 09-07-2019 03:00:00 10.9 C 35.6000 %
1805 09-07-2019 04:00:00 10.1 C 38.8000 %
1806 09-07-2019 05:00:00 9.64 C 41.0000 %
1807 09-07-2019 06:00:00 9.74 C 42.0000 %
1808 09-07-2019 07:00:00 11.5 C 34.0000 %
1809 09-07-2019 08:00:00 13.68 C 20.0000 %
1810 09-07-2019 09:00:00 14.96 C 20.0000 %
1811 09-07-2019 10:00:00 15.48 C 20.0000 %
1812 09-07-2019 11:00:00 17.14 C 20.0000 %
1813 09-07-2019 12:00:00 17.72 C 20.0000 %
1814 09-07-2019 13:00:00 18.52 C 20.0000 %
1815 09-07-2019 14:00:00 19.54 C 20.0000 %
1816 09-07-2019 15:00:00 20.74 C 20.0000 %
1817 09-07-2019 16:00:00 21.1 C 20.0000 %
1818 09-07-2019 17:00:00 22.18 C 20.0000 %
1819 09-07-2019 18:00:00 21.4 C 20.0000 %
1820 09-07-2019 19:00:00 21.2 C 20.0000 %
1821 09-07-2019 20:00:00 19.32 C 20.0000 %
1822 09-07-2019 21:00:00 16.32 C 20.0000 %
1823 09-07-2019 22:00:00 14.36 C 20.0000 %
1824 09-07-2019 23:00:00 13.1 C 20.0000 %
1825 10-07-2019 00:00:00 11.74 C 20.0000 %
Sensor: Nr:Datum:Temp:Feuchte:
Aussen-T/F 1826 10-07-2019 01:00:00 10.88 C 20.2000 %
1827 10-07-2019 02:00:00 9.88 C 26.8000 %
1828 10-07-2019 03:00:00 9.06 C 32.2000 %
1829 10-07-2019 04:00:00 8.52 C 35.2000 %
1830 10-07-2019 05:00:00 8.24 C 36.8000 %
1831 10-07-2019 06:00:00 8.18 C 38.2000 %
1832 10-07-2019 07:00:00 8.78 C 38.8000 %
1833 10-07-2019 08:00:00 10.88 C 32.2000 %
1834 10-07-2019 09:00:00 15.86 C 20.6000 %
1835 10-07-2019 10:00:00 18.52 C 20.0000 %
1836 10-07-2019 11:00:00 21.08 C 20.0000 %
1837 10-07-2019 12:00:00 21.32 C 20.0000 %
1838 10-07-2019 13:00:00 22.12 C 20.0000 %
1839 10-07-2019 14:00:00 23.9 C 20.0000 %
1840 10-07-2019 15:00:00 25.8 C 20.0000 %
1841 10-07-2019 16:00:00 26 C 20.0000 %
1842 10-07-2019 17:00:00 26.78 C 20.0000 %
1843 10-07-2019 18:00:00 27.64 C 20.0000 %
1844 10-07-2019 19:00:00 25.92 C 20.0000 %
1845 10-07-2019 20:00:00 23.66 C 20.0000 %
1846 10-07-2019 21:00:00 20.32 C 20.0000 %
1847 10-07-2019 22:00:00 19.08 C 20.0000 %
1848 10-07-2019 23:00:00 19.22 C 20.0000 %
1849 11-07-2019 00:00:00 19.12 C 20.0000 %
1850 11-07-2019 01:00:00 17.76 C 20.0000 %
Sensor: Nr:Datum:Temp:Feuchte:
Aussen-T/F 1851 11-07-2019 02:00:00 17.32 C 20.0000 %
1852 11-07-2019 03:00:00 17.08 C 20.0000 %
1853 11-07-2019 04:00:00 16.76 C 20.0000 %
1854 11-07-2019 05:00:00 16.54 C 20.0000 %
1855 11-07-2019 06:00:00 16.74 C 20.0000 %
1856 11-07-2019 07:00:00 17.82 C 20.0000 %
1857 11-07-2019 08:00:00 18.34 C 20.0000 %
1858 11-07-2019 09:00:00 19.06 C 20.0000 %
1859 11-07-2019 10:00:00 18.8 C 20.0000 %
1860 11-07-2019 11:00:00 18.92 C 20.0000 %
1861 11-07-2019 12:00:00 16.58 C 31.4000 %
1862 11-07-2019 13:00:00 16.04 C 42.6000 %
1863 11-07-2019 14:00:00 16.66 C 42.0000 %
1864 11-07-2019 15:00:00 17.56 C 41.0000 %
1865 11-07-2019 16:00:00 19.44 C 32.0000 %
1866 11-07-2019 17:00:00 20.36 C 29.0000 %
1867 11-07-2019 18:00:00 18.4 C 44.0000 %
1868 11-07-2019 19:00:00 17.58 C 46.6000 %
1869 11-07-2019 20:00:00 17.46 C 46.0000 %
1870 11-07-2019 21:00:00 16.9 C 46.8000 %
1871 11-07-2019 22:00:00 16.36 C 50.8000 %
1872 11-07-2019 23:00:00 16.02 C 58.0000 %
1873 12-07-2019 00:00:00 15.74 C 55.4000 %
1874 12-07-2019 01:00:00 15.4 C 54.2000 %
1875 12-07-2019 02:00:00 14.84 C 57.8000 %
Sensor: Nr:Datum:Temp:Feuchte:
Aussen-T/F 1876 12-07-2019 03:00:00 14.94 C 61.4000 %
1877 12-07-2019 04:00:00 14.32 C 59.4000 %
1878 12-07-2019 05:00:00 14.14 C 61.4000 %
1879 12-07-2019 06:00:00 14.42 C 61.8000 %
1880 12-07-2019 07:00:00 15.56 C 59.8000 %
1881 12-07-2019 08:00:00 16.26 C 52.4000 %
1882 12-07-2019 09:00:00 18.28 C 43.2000 %
1883 12-07-2019 10:00:00 20.26 C 30.2000 %
1884 12-07-2019 11:00:00 20.14 C 31.8000 %
1885 12-07-2019 12:00:00 18.04 C 45.6000 %
1886 12-07-2019 13:00:00 17.24 C 46.4000 %
1887 12-07-2019 14:00:00 17.8 C 40.8000 %
1888 12-07-2019 15:00:00 20.3 C 29.2000 %
1889 12-07-2019 16:00:00 20.3 C 32.2000 %
1890 12-07-2019 17:00:00 19.76 C 26.0000 %
1891 12-07-2019 18:00:00 18.06 C 30.2000 %
1892 12-07-2019 19:00:00 17.36 C 33.8000 %
1893 12-07-2019 20:00:00 17.92 C 34.6000 %
1894 12-07-2019 21:00:00 17.58 C 31.6000 %
1895 12-07-2019 22:00:00 17.04 C 32.2000 %
1896 12-07-2019 23:00:00 16.28 C 35.8000 %
1897 13-07-2019 00:00:00 16.4 C 31.2000 %
1898 13-07-2019 01:00:00 15.34 C 42.4000 %
1899 13-07-2019 02:00:00 14.9 C 49.0000 %
1900 13-07-2019 03:00:00 14.6 C 50.2000 %
Sensor: Nr:Datum:Temp:Feuchte:
Aussen-T/F 1901 13-07-2019 04:00:00 14.48 C 53.0000 %
1902 13-07-2019 05:00:00 14.46 C 56.4000 %
1903 13-07-2019 06:00:00 14.34 C 58.0000 %
1904 13-07-2019 07:00:00 14.68 C 48.4000 %
1905 13-07-2019 08:00:00 15.56 C 39.8000 %
1906 13-07-2019 09:00:00 16 C 39.0000 %
1907 13-07-2019 10:00:00 16.7 C 33.0000 %
1908 13-07-2019 11:00:00 17.9 C 30.2000 %
1909 13-07-2019 12:00:00 19.38 C 25.4000 %
1910 13-07-2019 13:00:00 20.28 C 21.8000 %
1911 13-07-2019 14:00:00 21.68 C 20.0000 %
1912 13-07-2019 15:00:00 21.98 C 20.0000 %
1913 13-07-2019 16:00:00 21.08 C 20.0000 %
1914 13-07-2019 17:00:00 22.36 C 20.0000 %
1915 13-07-2019 18:00:00 22.58 C 20.0000 %
1916 13-07-2019 19:00:00 22.64 C 20.0000 %
1917 13-07-2019 20:00:00 20.34 C 20.0000 %
1918 13-07-2019 21:00:00 19 C 23.8000 %
1919 13-07-2019 22:00:00 17.4 C 36.6000 %
1920 13-07-2019 23:00:00 16.9 C 40.8000 %
1921 14-07-2019 00:00:00 16.88 C 37.0000 %
1922 14-07-2019 01:00:00 16.98 C 35.0000 %
1923 14-07-2019 02:00:00 15.96 C 39.2000 %
1924 14-07-2019 03:00:00 14.92 C 42.2000 %
1925 14-07-2019 04:00:00 14.86 C 40.6000 %
Sensor: Nr:Datum:Temp:Feuchte:
Aussen-T/F 1926 14-07-2019 05:00:00 14.68 C 38.8000 %
1927 14-07-2019 06:00:00 14.66 C 39.2000 %
1928 14-07-2019 07:00:00 15.04 C 30.8000 %
1929 14-07-2019 08:00:00 15.68 C 29.2000 %
1930 14-07-2019 09:00:00 15.46 C 27.6000 %
1931 14-07-2019 10:00:00 16.52 C 20.4000 %
1932 14-07-2019 11:00:00 17.4 C 20.0000 %
1933 14-07-2019 12:00:00 18.32 C 20.0000 %
1934 14-07-2019 13:00:00 18.44 C 20.0000 %
1935 14-07-2019 14:00:00 18.86 C 20.0000 %
1936 14-07-2019 15:00:00 19.66 C 20.0000 %
1937 14-07-2019 16:00:00 19.76 C 20.0000 %
1938 14-07-2019 17:00:00 19.82 C 20.0000 %
1939 14-07-2019 18:00:00 19 C 20.0000 %
1940 14-07-2019 19:00:00 18.68 C 20.0000 %
1941 14-07-2019 20:00:00 18.04 C 20.0000 %
1942 14-07-2019 21:00:00 17.56 C 20.0000 %
1943 14-07-2019 22:00:00 17.18 C 20.0000 %
1944 14-07-2019 23:00:00 16.74 C 20.0000 %
1945 15-07-2019 00:00:00 15.86 C 22.2000 %
1946 15-07-2019 01:00:00 15.76 C 22.2000 %
1947 15-07-2019 02:00:00 15.32 C 25.8000 %
1948 15-07-2019 03:00:00 14.98 C 29.4000 %
1949 15-07-2019 04:00:00 15.54 C 20.4000 %
1950 15-07-2019 05:00:00 15.68 C 20.0000 %
Sensor: Nr:Datum:Temp:Feuchte:
Aussen-T/F 1951 15-07-2019 06:00:00 15.6 C 20.0000 %
1952 15-07-2019 07:00:00 15.74 C 20.0000 %
1953 15-07-2019 08:00:00 16.04 C 20.0000 %
1954 15-07-2019 09:00:00 16.94 C 20.0000 %
1955 15-07-2019 10:00:00 17.12 C 20.0000 %
1956 15-07-2019 11:00:00 17.38 C 20.0000 %
1957 15-07-2019 12:00:00 17.66 C 20.0000 %
1958 15-07-2019 13:00:00 18.06 C 20.0000 %
1959 15-07-2019 14:00:00 18.98 C 20.0000 %
1960 15-07-2019 15:00:00 18.3 C 20.0000 %
1961 15-07-2019 16:00:00 17.58 C 20.0000 %
1962 15-07-2019 17:00:00 17.04 C 20.0000 %
1963 15-07-2019 18:00:00 17.06 C 20.0000 %
1964 15-07-2019 19:00:00 17 C 20.0000 %
1965 15-07-2019 20:00:00 16.86 C 20.0000 %
1966 15-07-2019 21:00:00 16.28 C 20.6000 %
1967 15-07-2019 22:00:00 15.42 C 24.6000 %
1968 15-07-2019 23:00:00 15.4 C 21.0000 %
1969 16-07-2019 00:00:00 14.54 C 26.6000 %
1970 16-07-2019 01:00:00 13 C 31.2000 %
1971 16-07-2019 02:00:00 11.48 C 39.2000 %
1972 16-07-2019 03:00:00 10.52 C 44.8000 %
1973 16-07-2019 04:00:00 9.98 C 46.0000 %
1974 16-07-2019 05:00:00 9.8 C 47.6000 %
1975 16-07-2019 06:00:00 10.22 C 47.8000 %
Sensor: Nr:Datum:Temp:Feuchte:
Aussen-T/F 1976 16-07-2019 07:00:00 11.44 C 39.0000 %
1977 16-07-2019 08:00:00 13.38 C 32.4000 %
1978 16-07-2019 09:00:00 15.28 C 25.0000 %
1979 16-07-2019 10:00:00 16 C 20.2000 %
1980 16-07-2019 11:00:00 16.46 C 20.0000 %
1981 16-07-2019 12:00:00 17.36 C 20.0000 %
1982 16-07-2019 13:00:00 18.24 C 20.0000 %
1983 16-07-2019 14:00:00 19.82 C 20.0000 %
1984 16-07-2019 15:00:00 21.68 C 20.0000 %
1985 16-07-2019 16:00:00 22.88 C 20.0000 %
1986 16-07-2019 17:00:00 23.32 C 20.0000 %
1987 16-07-2019 18:00:00 23.46 C 20.0000 %
1988 16-07-2019 19:00:00 22.22 C 20.0000 %
1989 16-07-2019 20:00:00 20.84 C 20.0000 %
1990 16-07-2019 21:00:00 17.6 C 20.4000 %
1991 16-07-2019 22:00:00 15.7 C 25.4000 %
1992 16-07-2019 23:00:00 15.02 C 27.2000 %
1993 17-07-2019 00:00:00 13.82 C 33.2000 %
1994 17-07-2019 01:00:00 12.98 C 37.6000 %
1995 17-07-2019 02:00:00 12.12 C 40.6000 %
1996 17-07-2019 03:00:00 11.56 C 43.8000 %
1997 17-07-2019 04:00:00 11.1 C 45.0000 %
1998 17-07-2019 05:00:00 10.82 C 46.8000 %
1999 17-07-2019 06:00:00 10.94 C 47.0000 %
2000 17-07-2019 07:00:00 11.9 C 45.6000 %
Sensor: Nr:Datum:Temp:Feuchte:
Aussen-T/F 2001 17-07-2019 08:00:00 13.58 C 37.4000 %
2002 17-07-2019 09:00:00 16.04 C 26.8000 %
2003 17-07-2019 10:00:00 18.46 C 20.2000 %
2004 17-07-2019 11:00:00 19.9 C 20.0000 %
2005 17-07-2019 12:00:00 20.38 C 20.0000 %
2006 17-07-2019 13:00:00 21.48 C 20.0000 %
2007 17-07-2019 14:00:00 22.92 C 20.0000 %
2008 17-07-2019 15:00:00 23.68 C 20.0000 %
2009 17-07-2019 16:00:00 23.88 C 20.0000 %
2010 17-07-2019 17:00:00 25.06 C 20.0000 %
2011 17-07-2019 18:00:00 24.32 C 20.0000 %
2012 17-07-2019 19:00:00 23.14 C 20.0000 %
2013 17-07-2019 20:00:00 21.6 C 20.0000 %
2014 17-07-2019 21:00:00 19.3 C 20.4000 %
2015 17-07-2019 22:00:00 16.74 C 26.6000 %
2016 17-07-2019 23:00:00 15.92 C 30.0000 %
2017 18-07-2019 00:00:00 15.24 C 32.8000 %
2018 18-07-2019 01:00:00 14.06 C 37.4000 %
2019 18-07-2019 02:00:00 13.72 C 41.0000 %
2020 18-07-2019 03:00:00 13.6 C 41.8000 %
2021 18-07-2019 04:00:00 13.26 C 42.8000 %
2022 18-07-2019 05:00:00 12.56 C 45.0000 %
2023 18-07-2019 06:00:00 12.58 C 45.8000 %
2024 18-07-2019 07:00:00 13.8 C 42.4000 %
2025 18-07-2019 08:00:00 15.16 C 35.0000 %
Sensor: Nr:Datum:Temp:Feuchte:
Aussen-T/F 2026 18-07-2019 09:00:00 18.1 C 27.2000 %
2027 18-07-2019 10:00:00 20.6 C 20.0000 %
2028 18-07-2019 11:00:00 25.14 C 20.0000 %
2029 18-07-2019 12:00:00 25.22 C 20.0000 %
2030 18-07-2019 13:00:00 26.6 C 20.0000 %
2031 18-07-2019 14:00:00 27.84 C 20.0000 %
2032 18-07-2019 15:00:00 25.86 C 20.0000 %
2033 18-07-2019 16:00:00 24.46 C 20.0000 %
2034 18-07-2019 17:00:00 24.7 C 20.0000 %
2035 18-07-2019 18:00:00 22.84 C 22.2000 %
2036 18-07-2019 19:00:00 20.52 C 23.2000 %
2037 18-07-2019 20:00:00 20.88 C 20.0000 %
2038 18-07-2019 21:00:00 19.78 C 20.0000 %
2039 18-07-2019 22:00:00 19.4 C 20.0000 %
2040 18-07-2019 23:00:00 19.28 C 20.0000 %
2041 19-07-2019 00:00:00 18.98 C 21.6000 %
2042 19-07-2019 01:00:00 17.28 C 37.2000 %
2043 19-07-2019 02:00:00 16.38 C 45.6000 %
2044 19-07-2019 03:00:00 16.24 C 46.0000 %
2045 19-07-2019 04:00:00 16.06 C 45.4000 %
2046 19-07-2019 05:00:00 16.02 C 47.2000 %
2047 19-07-2019 06:00:00 16.1 C 49.8000 %
2048 19-07-2019 07:00:00 16.54 C 54.2000 %
2049 19-07-2019 08:00:00 17.2 C 48.0000 %
2050 19-07-2019 09:00:00 18.24 C 39.4000 %
Sensor: Nr:Datum:Temp:Feuchte:
Aussen-T/F 2051 19-07-2019 10:00:00 19.76 C 31.8000 %
2052 19-07-2019 11:00:00 21.08 C 26.6000 %
2053 19-07-2019 12:00:00 19.94 C 31.4000 %
2054 19-07-2019 13:00:00 22.46 C 21.2000 %
2055 19-07-2019 14:00:00 24.08 C 20.0000 %
2056 19-07-2019 15:00:00 25.52 C 20.0000 %
2057 19-07-2019 16:00:00 25.66 C 20.0000 %
2058 19-07-2019 17:00:00 26.26 C 20.0000 %
2059 19-07-2019 18:00:00 25.52 C 20.0000 %
2060 19-07-2019 19:00:00 24.38 C 20.0000 %
2061 19-07-2019 20:00:00 22.56 C 20.0000 %
2062 19-07-2019 21:00:00 19.94 C 22.4000 %
2063 19-07-2019 22:00:00 18.72 C 28.8000 %
2064 19-07-2019 23:00:00 18.12 C 30.8000 %
2065 20-07-2019 00:00:00 17 C 34.8000 %
2066 20-07-2019 01:00:00 16.1 C 38.4000 %
2067 20-07-2019 02:00:00 15.32 C 41.2000 %
2068 20-07-2019 03:00:00 14.68 C 44.4000 %
2069 20-07-2019 04:00:00 14.26 C 45.2000 %
2070 20-07-2019 05:00:00 13.94 C 46.4000 %
2071 20-07-2019 06:00:00 14 C 47.0000 %
2072 20-07-2019 07:00:00 14.62 C 46.8000 %
2073 20-07-2019 08:00:00 16.36 C 45.2000 %
2074 20-07-2019 09:00:00 19.92 C 31.4000 %
2075 20-07-2019 10:00:00 23.1 C 24.0000 %
Sensor: Nr:Datum:Temp:Feuchte:
Aussen-T/F 2076 20-07-2019 11:00:00 28.06 C 20.0000 %
2077 20-07-2019 12:00:00 28.12 C 20.0000 %
2078 20-07-2019 13:00:00 28.58 C 20.0000 %
2079 20-07-2019 14:00:00 30.92 C 20.0000 %
2080 20-07-2019 15:00:00 31.38 C 20.0000 %
2081 20-07-2019 16:00:00 27.34 C 24.6000 %
2082 20-07-2019 17:00:00 28.26 C 20.4000 %
2083 20-07-2019 18:00:00 29.28 C 20.0000 %
2084 20-07-2019 19:00:00 27.18 C 20.0000 %
2085 20-07-2019 20:00:00 23.64 C 20.0000 %
2086 20-07-2019 21:00:00 21.58 C 21.4000 %
2087 20-07-2019 22:00:00 20.36 C 26.2000 %
2088 20-07-2019 23:00:00 19.6 C 30.0000 %
2089 21-07-2019 00:00:00 18.9 C 33.2000 %
2090 21-07-2019 01:00:00 18.46 C 36.2000 %
2091 21-07-2019 02:00:00 18.88 C 34.4000 %
2092 21-07-2019 03:00:00 18.56 C 36.8000 %
2093 21-07-2019 04:00:00 17.56 C 39.4000 %
2094 21-07-2019 05:00:00 17.38 C 40.8000 %
2095 21-07-2019 06:00:00 18.08 C 38.0000 %
2096 21-07-2019 07:00:00 19 C 33.0000 %
2097 21-07-2019 08:00:00 19.52 C 24.4000 %
2098 21-07-2019 09:00:00 21.6 C 20.4000 %
2099 21-07-2019 10:00:00 23.02 C 20.0000 %
2100 21-07-2019 11:00:00 26.6 C 20.0000 %
Sensor: Nr:Datum:Temp:Feuchte:
Aussen-T/F 2101 21-07-2019 12:00:00 25.92 C 20.0000 %
2102 21-07-2019 13:00:00 25.72 C 20.0000 %
2103 21-07-2019 14:00:00 27 C 20.0000 %
2104 21-07-2019 15:00:00 27.98 C 20.0000 %
2105 21-07-2019 16:00:00 28.48 C 20.0000 %
2106 21-07-2019 17:00:00 27.66 C 20.0000 %
2107 21-07-2019 18:00:00 26.82 C 20.0000 %
2108 21-07-2019 19:00:00 25.74 C 20.0000 %
2109 21-07-2019 20:00:00 24.78 C 20.0000 %
2110 21-07-2019 21:00:00 21.82 C 20.0000 %
2111 21-07-2019 22:00:00 19.38 C 20.0000 %
2112 21-07-2019 23:00:00 18.1 C 24.6000 %
2113 22-07-2019 00:00:00 16.88 C 27.8000 %
2114 22-07-2019 01:00:00 16.06 C 32.0000 %
2115 22-07-2019 02:00:00 15.64 C 36.4000 %
2116 22-07-2019 03:00:00 15.4 C 37.2000 %
2117 22-07-2019 04:00:00 14.66 C 40.2000 %
2118 22-07-2019 05:00:00 14.28 C 40.8000 %
2119 22-07-2019 06:00:00 14.26 C 42.0000 %
2120 22-07-2019 07:00:00 15.22 C 40.2000 %
2121 22-07-2019 08:00:00 17.08 C 30.8000 %
2122 22-07-2019 09:00:00 19.98 C 23.4000 %
2123 22-07-2019 10:00:00 22.3 C 20.0000 %
2124 22-07-2019 11:00:00 26.8 C 20.0000 %
2125 22-07-2019 12:00:00 26.56 C 20.0000 %
Sensor: Nr:Datum:Temp:Feuchte:
Aussen-T/F 2126 22-07-2019 13:00:00 27.1 C 20.0000 %
2127 22-07-2019 14:00:00 28.9 C 20.0000 %
2128 22-07-2019 15:00:00 30.18 C 20.0000 %
2129 22-07-2019 16:00:00 31.36 C 20.0000 %
2130 22-07-2019 17:00:00 31.78 C 20.0000 %
2131 22-07-2019 18:00:00 32.56 C 20.0000 %
2132 22-07-2019 19:00:00 31.3 C 20.0000 %
2133 22-07-2019 20:00:00 29.16 C 20.0000 %
2134 22-07-2019 21:00:00 25.02 C 20.0000 %
2135 22-07-2019 22:00:00 22.36 C 20.0000 %
2136 22-07-2019 23:00:00 20.5 C 20.0000 %
2137 23-07-2019 00:00:00 19.16 C 22.6000 %
2138 23-07-2019 01:00:00 18.26 C 26.6000 %
2139 23-07-2019 02:00:00 17.44 C 30.6000 %
2140 23-07-2019 03:00:00 16.78 C 33.4000 %
2141 23-07-2019 04:00:00 16.24 C 36.6000 %
2142 23-07-2019 05:00:00 15.82 C 39.4000 %
2143 23-07-2019 06:00:00 15.8 C 40.6000 %
2144 23-07-2019 07:00:00 16.4 C 39.2000 %
2145 23-07-2019 08:00:00 17.1 C 37.6000 %
2146 23-07-2019 09:00:00 20.66 C 26.2000 %
2147 23-07-2019 10:00:00 24.16 C 20.0000 %
2148 23-07-2019 11:00:00 30.34 C 20.0000 %
2149 23-07-2019 12:00:00 30.36 C 20.0000 %
2150 23-07-2019 13:00:00 31.18 C 20.0000 %
Sensor: Nr:Datum:Temp:Feuchte:
Aussen-T/F 2151 23-07-2019 14:00:00 32.98 C 20.0000 %
2152 23-07-2019 15:00:00 35.06 C 20.0000 %
2153 23-07-2019 16:00:00 36.14 C 20.0000 %
2154 23-07-2019 17:00:00 36.66 C 20.0000 %
2155 23-07-2019 18:00:00 37.2 C 20.0000 %
2156 23-07-2019 19:00:00 35.44 C 20.0000 %
2157 23-07-2019 20:00:00 31.38 C 20.0000 %
2158 23-07-2019 21:00:00 26.4 C 20.0000 %
2159 23-07-2019 22:00:00 24.64 C 20.0000 %
2160 23-07-2019 23:00:00 22.58 C 20.0000 %
2161 24-07-2019 00:00:00 21.24 C 20.0000 %
2162 24-07-2019 01:00:00 20.08 C 23.4000 %
2163 24-07-2019 02:00:00 19.18 C 26.2000 %
2164 24-07-2019 03:00:00 18.48 C 29.2000 %
2165 24-07-2019 04:00:00 17.72 C 33.4000 %
2166 24-07-2019 05:00:00 17.16 C 35.8000 %
2167 24-07-2019 06:00:00 17.14 C 36.8000 %
2168 24-07-2019 07:00:00 17.6 C 37.2000 %
2169 24-07-2019 08:00:00 18.7 C 35.0000 %
2170 24-07-2019 09:00:00 21.9 C 25.6000 %
2171 24-07-2019 10:00:00 24.8 C 20.0000 %
2172 24-07-2019 11:00:00 30.88 C 20.0000 %
2173 24-07-2019 12:00:00 33.1 C 20.0000 %
2174 24-07-2019 13:00:00 33.9 C 20.0000 %
2175 24-07-2019 14:00:00 35.86 C 20.0000 %
Sensor: Nr:Datum:Temp:Feuchte:
Aussen-T/F 2176 24-07-2019 15:00:00 38.24 C 20.0000 %
2177 24-07-2019 16:00:00 39.58 C 20.0000 %
2178 24-07-2019 17:00:00 39.4 C 20.0000 %
2179 24-07-2019 18:00:00 39.08 C 20.0000 %
2180 24-07-2019 19:00:00 37.46 C 20.0000 %
2181 24-07-2019 20:00:00 31 C 20.0000 %
2182 24-07-2019 21:00:00 28.2 C 20.0000 %
2183 24-07-2019 22:00:00 26.98 C 20.0000 %
2184 24-07-2019 23:00:00 25.06 C 20.0000 %
2185 25-07-2019 00:00:00 23.22 C 20.0000 %
2186 25-07-2019 01:00:00 22.2 C 20.0000 %
2187 25-07-2019 02:00:00 21.38 C 20.0000 %
2188 25-07-2019 03:00:00 20.6 C 21.0000 %
2189 25-07-2019 04:00:00 19.84 C 25.0000 %
2190 25-07-2019 05:00:00 19.22 C 27.0000 %
2191 25-07-2019 06:00:00 19.2 C 29.6000 %
2192 25-07-2019 07:00:00 19.84 C 30.4000 %
2193 25-07-2019 08:00:00 21.24 C 27.2000 %
2194 25-07-2019 09:00:00 24.12 C 21.4000 %
2195 25-07-2019 10:00:00 27.16 C 20.0000 %
2196 25-07-2019 11:00:00 33.6 C 20.0000 %
2197 25-07-2019 12:00:00 35.58 C 20.0000 %
2198 25-07-2019 13:00:00 36.8 C 20.0000 %
2199 25-07-2019 14:00:00 38.16 C 20.0000 %
2200 25-07-2019 15:00:00 39.7 C 20.0000 %
Sensor: Nr:Datum:Temp:Feuchte:
Aussen-T/F 2201 25-07-2019 16:00:00 40.2 C 20.0000 %
2202 25-07-2019 17:00:00 39.8 C 20.0000 %
2203 25-07-2019 18:00:00 39.04 C 20.0000 %
2204 25-07-2019 19:00:00 35.58 C 20.0000 %
2205 25-07-2019 20:00:00 32.22 C 20.0000 %
2206 25-07-2019 21:00:00 29.7 C 20.0000 %
2207 25-07-2019 22:00:00 28.2 C 20.0000 %
2208 25-07-2019 23:00:00 27.04 C 20.0000 %
2209 26-07-2019 00:00:00 25.76 C 20.0000 %
2210 26-07-2019 01:00:00 24.54 C 20.0000 %
2211 26-07-2019 02:00:00 22.02 C 20.0000 %
2212 26-07-2019 03:00:00 20.8 C 20.2000 %
2213 26-07-2019 04:00:00 19.92 C 24.6000 %
2214 26-07-2019 05:00:00 19.28 C 25.6000 %
2215 26-07-2019 06:00:00 19.22 C 27.2000 %
2216 26-07-2019 07:00:00 20.1 C 28.4000 %
2217 26-07-2019 08:00:00 21.62 C 24.0000 %
2218 26-07-2019 09:00:00 25.3 C 20.0000 %
2219 26-07-2019 10:00:00 30.02 C 20.0000 %
2220 26-07-2019 11:00:00 34.9 C 20.0000 %
2221 26-07-2019 12:00:00 35.1 C 20.0000 %
2222 26-07-2019 13:00:00 36.48 C 20.0000 %
2223 26-07-2019 14:00:00 38 C 20.0000 %
2224 26-07-2019 15:00:00 37.32 C 20.0000 %
2225 26-07-2019 16:00:00 35.56 C 20.0000 %
Sensor: Nr:Datum:Temp:Feuchte:
Aussen-T/F 2226 26-07-2019 17:00:00 32.52 C 20.0000 %
2227 26-07-2019 18:00:00 30.92 C 20.0000 %
2228 26-07-2019 19:00:00 28.52 C 20.0000 %
2229 26-07-2019 20:00:00 27.36 C 20.0000 %
2230 26-07-2019 21:00:00 26.16 C 20.0000 %
2231 26-07-2019 22:00:00 25.36 C 20.0000 %
2232 26-07-2019 23:00:00 24.28 C 20.0000 %
2233 27-07-2019 00:00:00 23.16 C 20.0000 %
2234 27-07-2019 01:00:00 22.62 C 20.0000 %
2235 27-07-2019 02:00:00 22.5 C 20.2000 %
2236 27-07-2019 03:00:00 22.32 C 23.2000 %
2237 27-07-2019 04:00:00 20.18 C 39.8000 %
2238 27-07-2019 05:00:00 20.36 C 37.8000 %
2239 27-07-2019 06:00:00 20.72 C 37.4000 %
2240 27-07-2019 07:00:00 21.76 C 33.4000 %
2241 27-07-2019 08:00:00 23.12 C 23.4000 %
2242 27-07-2019 09:00:00 25.52 C 20.0000 %
2243 27-07-2019 10:00:00 23.94 C 30.2000 %
2244 27-07-2019 11:00:00 23.42 C 34.4000 %
2245 27-07-2019 12:00:00 24.36 C 27.2000 %
2246 27-07-2019 13:00:00 26.8 C 20.0000 %
2247 27-07-2019 14:00:00 25.9 C 20.0000 %
2248 27-07-2019 15:00:00 25.6 C 20.0000 %
2249 27-07-2019 16:00:00 26.76 C 20.0000 %
2250 27-07-2019 17:00:00 24.98 C 20.0000 %
Sensor: Nr:Datum:Temp:Feuchte:
Aussen-T/F 2251 27-07-2019 18:00:00 25.7 C 20.0000 %
2252 27-07-2019 19:00:00 24.1 C 24.8000 %
2253 27-07-2019 20:00:00 23.26 C 29.0000 %
2254 27-07-2019 21:00:00 22.36 C 30.6000 %
2255 27-07-2019 22:00:00 21.68 C 33.8000 %
2256 27-07-2019 23:00:00 21.38 C 35.2000 %
2257 28-07-2019 00:00:00 21.14 C 36.0000 %
2258 28-07-2019 01:00:00 20.98 C 36.2000 %
2259 28-07-2019 02:00:00 20.92 C 36.8000 %
2260 28-07-2019 03:00:00 20.88 C 37.2000 %
2261 28-07-2019 04:00:00 20.76 C 38.6000 %
2262 28-07-2019 05:00:00 20.72 C 38.6000 %
2263 28-07-2019 06:00:00 20.78 C 38.2000 %
2264 28-07-2019 07:00:00 21 C 34.8000 %
2265 28-07-2019 08:00:00 21 C 34.4000 %
2266 28-07-2019 09:00:00 20.66 C 36.6000 %
2267 28-07-2019 10:00:00 20.14 C 40.2000 %
2268 28-07-2019 11:00:00 20.44 C 37.2000 %
2269 28-07-2019 12:00:00 20.78 C 31.0000 %
2270 28-07-2019 13:00:00 20.42 C 32.8000 %
2271 28-07-2019 14:00:00 20.12 C 35.2000 %
2272 28-07-2019 15:00:00 20.12 C 33.4000 %
2273 28-07-2019 16:00:00 19.92 C 33.6000 %
2274 28-07-2019 17:00:00 19.06 C 39.8000 %
2275 28-07-2019 18:00:00 19 C 38.8000 %
Sensor: Nr:Datum:Temp:Feuchte:
Aussen-T/F 2276 28-07-2019 19:00:00 18.64 C 42.4000 %
2277 28-07-2019 20:00:00 18.14 C 43.6000 %
2278 28-07-2019 21:00:00 17.84 C 45.8000 %
2279 28-07-2019 22:00:00 17.6 C 46.8000 %
2280 28-07-2019 23:00:00 17.28 C 47.2000 %
2281 29-07-2019 00:00:00 17.1 C 48.6000 %
2282 29-07-2019 01:00:00 16.98 C 46.8000 %
2283 29-07-2019 02:00:00 16.9 C 45.2000 %
2284 29-07-2019 03:00:00 16.82 C 45.0000 %
2285 29-07-2019 04:00:00 16.82 C 44.0000 %
2286 29-07-2019 05:00:00 16.72 C 44.0000 %
2287 29-07-2019 06:00:00 16.76 C 44.0000 %
2288 29-07-2019 07:00:00 17.16 C 40.4000 %
2289 29-07-2019 08:00:00 18.04 C 33.0000 %
2290 29-07-2019 09:00:00 19 C 27.8000 %
2291 29-07-2019 10:00:00 20.08 C 23.0000 %
2292 29-07-2019 11:00:00 23.18 C 20.0000 %
2293 29-07-2019 12:00:00 22.96 C 20.0000 %
2294 29-07-2019 13:00:00 23.98 C 20.0000 %
2295 29-07-2019 14:00:00 25.48 C 20.0000 %
2296 29-07-2019 15:00:00 26.76 C 20.0000 %
2297 29-07-2019 16:00:00 27.78 C 20.0000 %
2298 29-07-2019 17:00:00 28.4 C 20.0000 %
2299 29-07-2019 18:00:00 28.2 C 20.0000 %
2300 29-07-2019 19:00:00 28 C 20.0000 %
Sensor: Nr:Datum:Temp:Feuchte:
Aussen-T/F 2301 29-07-2019 20:00:00 26.12 C 20.0000 %
2302 29-07-2019 21:00:00 22.18 C 20.0000 %
2303 29-07-2019 22:00:00 20.5 C 20.0000 %
2304 29-07-2019 23:00:00 19.02 C 22.2000 %
2305 30-07-2019 00:00:00 17.84 C 27.4000 %
2306 30-07-2019 01:00:00 17.34 C 29.4000 %
2307 30-07-2019 02:00:00 16.46 C 32.2000 %
2308 30-07-2019 03:00:00 15.82 C 35.4000 %
2309 30-07-2019 04:00:00 15.38 C 38.0000 %
2310 30-07-2019 05:00:00 14.9 C 40.4000 %
2311 30-07-2019 06:00:00 14.78 C 42.8000 %
2312 30-07-2019 07:00:00 15.16 C 42.0000 %
2313 30-07-2019 08:00:00 16.4 C 40.2000 %
2314 30-07-2019 09:00:00 18.94 C 30.6000 %
2315 30-07-2019 10:00:00 21.58 C 22.8000 %
2316 30-07-2019 11:00:00 27.86 C 20.0000 %
2317 30-07-2019 12:00:00 27.54 C 20.0000 %
2318 30-07-2019 13:00:00 28.42 C 20.0000 %
2319 30-07-2019 14:00:00 30.28 C 20.0000 %
2320 30-07-2019 15:00:00 32.06 C 20.0000 %
2321 30-07-2019 16:00:00 32.16 C 20.0000 %
2322 30-07-2019 17:00:00 29.68 C 20.0000 %
2323 30-07-2019 18:00:00 27.08 C 20.0000 %
2324 30-07-2019 19:00:00 25.5 C 20.0000 %
2325 30-07-2019 20:00:00 24.96 C 20.0000 %
Sensor: Nr:Datum:Temp:Feuchte:
Aussen-T/F 2326 30-07-2019 21:00:00 23.38 C 20.0000 %
2327 30-07-2019 22:00:00 22.18 C 20.0000 %
2328 30-07-2019 23:00:00 20.9 C 20.0000 %
2329 31-07-2019 00:00:00 20.54 C 20.0000 %
2330 31-07-2019 01:00:00 20.64 C 20.0000 %
2331 31-07-2019 02:00:00 19.48 C 20.0000 %
2332 31-07-2019 03:00:00 18.46 C 21.2000 %
2333 31-07-2019 04:00:00 18.96 C 20.4000 %
2334 31-07-2019 05:00:00 17.74 C 23.4000 %
2335 31-07-2019 06:00:00 17.66 C 23.2000 %
2336 31-07-2019 07:00:00 17.6 C 24.0000 %
2337 31-07-2019 08:00:00 18.92 C 20.6000 %
2338 31-07-2019 09:00:00 20.82 C 20.0000 %
2339 31-07-2019 10:00:00 22.18 C 20.0000 %
2340 31-07-2019 11:00:00 23.2 C 20.0000 %
2341 31-07-2019 12:00:00 23.46 C 20.0000 %
2342 31-07-2019 13:00:00 24.36 C 20.0000 %
2343 31-07-2019 14:00:00 25.84 C 20.0000 %
2344 31-07-2019 15:00:00 26.86 C 20.0000 %
2345 31-07-2019 16:00:00 25.82 C 20.0000 %
2346 31-07-2019 17:00:00 26.16 C 20.0000 %
2347 31-07-2019 18:00:00 24.44 C 20.0000 %
2348 31-07-2019 19:00:00 23.76 C 20.0000 %
2349 31-07-2019 20:00:00 21.96 C 20.0000 %
2350 31-07-2019 21:00:00 19.42 C 20.0000 %
Sensor: Nr:Datum:Temp:Feuchte:
Aussen-T/F 2351 31-07-2019 22:00:00 19.04 C 20.0000 %
2352 31-07-2019 23:00:00 18.3 C 20.0000 %
2353 01-08-2019 00:00:00 16.62 C 20.0000 %
2354 01-08-2019 01:00:00 15.28 C 20.0000 %
2355 01-08-2019 02:00:00 14.76 C 24.2000 %
2356 01-08-2019 03:00:00 14.1 C 26.8000 %
2357 01-08-2019 04:00:00 13.06 C 31.8000 %
2358 01-08-2019 05:00:00 12.6 C 34.8000 %
2359 01-08-2019 06:00:00 12.24 C 37.4000 %
2360 01-08-2019 07:00:00 13.12 C 35.6000 %
2361 01-08-2019 08:00:00 16.3 C 20.8000 %
2362 01-08-2019 09:00:00 19.04 C 20.0000 %
2363 01-08-2019 10:00:00 21.4 C 20.0000 %
2364 01-08-2019 11:00:00 23.2 C 20.0000 %
2365 01-08-2019 12:00:00 23.16 C 20.0000 %
2366 01-08-2019 13:00:00 24.02 C 20.0000 %
2367 01-08-2019 14:00:00 24.72 C 20.0000 %
2368 01-08-2019 15:00:00 25.06 C 20.0000 %
2369 01-08-2019 16:00:00 25.02 C 20.0000 %
2370 01-08-2019 17:00:00 25.9 C 20.0000 %
2371 01-08-2019 18:00:00 26.82 C 20.0000 %
2372 01-08-2019 19:00:00 26.36 C 20.0000 %
2373 01-08-2019 20:00:00 23.74 C 20.0000 %
2374 01-08-2019 21:00:00 20.66 C 20.0000 %
2375 01-08-2019 22:00:00 19.6 C 20.0000 %
Sensor: Nr:Datum:Temp:Feuchte:
Aussen-T/F 2376 01-08-2019 23:00:00 19.24 C 20.0000 %
2377 02-08-2019 00:00:00 18.84 C 20.0000 %
2378 02-08-2019 01:00:00 18.4 C 20.0000 %
2379 02-08-2019 02:00:00 17.8 C 21.6000 %
2380 02-08-2019 03:00:00 16.74 C 25.6000 %
2381 02-08-2019 04:00:00 16.3 C 29.0000 %
2382 02-08-2019 05:00:00 16.3 C 29.8000 %
2383 02-08-2019 06:00:00 16.56 C 30.8000 %
2384 02-08-2019 07:00:00 17.58 C 28.0000 %
2385 02-08-2019 08:00:00 18.6 C 25.2000 %
2386 02-08-2019 09:00:00 20.32 C 20.0000 %
2387 02-08-2019 10:00:00 21.78 C 20.0000 %
2388 02-08-2019 11:00:00 23.86 C 20.0000 %
2389 02-08-2019 12:00:00 20.26 C 25.2000 %
2390 02-08-2019 13:00:00 22.08 C 20.0000 %
2391 02-08-2019 14:00:00 24.52 C 20.0000 %
2392 02-08-2019 15:00:00 25.52 C 20.0000 %
2393 02-08-2019 16:00:00 26.32 C 20.0000 %
2394 02-08-2019 17:00:00 27.18 C 20.0000 %
2395 02-08-2019 18:00:00 25.3 C 20.0000 %
2396 02-08-2019 19:00:00 23.94 C 20.0000 %
2397 02-08-2019 20:00:00 22.5 C 20.0000 %
2398 02-08-2019 21:00:00 21.36 C 20.0000 %
2399 02-08-2019 22:00:00 21.12 C 20.0000 %
2400 02-08-2019 23:00:00 17.88 C 33.2000 %
Sensor: Nr:Datum:Temp:Feuchte:
Aussen-T/F 2401 03-08-2019 00:00:00 18.18 C 29.8000 %
2402 03-08-2019 01:00:00 18.5 C 27.4000 %
2403 03-08-2019 02:00:00 18.42 C 30.4000 %
2404 03-08-2019 03:00:00 18.3 C 32.6000 %
2405 03-08-2019 04:00:00 18.26 C 35.0000 %
2406 03-08-2019 05:00:00 18.22 C 35.0000 %
2407 03-08-2019 06:00:00 18 C 34.8000 %
2408 03-08-2019 07:00:00 18.02 C 31.2000 %
2409 03-08-2019 08:00:00 18.22 C 29.2000 %
2410 03-08-2019 09:00:00 18.96 C 21.4000 %
2411 03-08-2019 10:00:00 20.22 C 20.0000 %
2412 03-08-2019 11:00:00 21.54 C 20.0000 %
2413 03-08-2019 12:00:00 22.56 C 20.0000 %
2414 03-08-2019 13:00:00 22.72 C 20.0000 %
2415 03-08-2019 14:00:00 23.16 C 20.0000 %
2416 03-08-2019 15:00:00 24.6 C 20.0000 %
2417 03-08-2019 16:00:00 26.04 C 20.0000 %
2418 03-08-2019 17:00:00 26.04 C 20.0000 %
2419 03-08-2019 18:00:00 25.92 C 20.0000 %
2420 03-08-2019 19:00:00 24.46 C 20.0000 %
2421 03-08-2019 20:00:00 22.74 C 20.0000 %
2422 03-08-2019 21:00:00 20.38 C 20.0000 %
2423 03-08-2019 22:00:00 17.96 C 20.0000 %
2424 03-08-2019 23:00:00 17.1 C 24.4000 %
2425 04-08-2019 00:00:00 16.12 C 29.0000 %
Sensor: Nr:Datum:Temp:Feuchte:
Aussen-T/F 2426 04-08-2019 01:00:00 14.88 C 35.4000 %
2427 04-08-2019 02:00:00 13.86 C 40.2000 %
2428 04-08-2019 03:00:00 13.32 C 41.4000 %
2429 04-08-2019 04:00:00 12.94 C 43.2000 %
2430 04-08-2019 05:00:00 12.56 C 44.2000 %
2431 04-08-2019 06:00:00 12.56 C 45.0000 %
2432 04-08-2019 07:00:00 13.16 C 44.0000 %
2433 04-08-2019 08:00:00 14.34 C 41.8000 %
2434 04-08-2019 09:00:00 16.7 C 32.6000 %
2435 04-08-2019 10:00:00 19.46 C 22.4000 %
2436 04-08-2019 11:00:00 24.16 C 20.0000 %
2437 04-08-2019 12:00:00 24.26 C 20.0000 %
2438 04-08-2019 13:00:00 25.1 C 20.0000 %
2439 04-08-2019 14:00:00 26.86 C 20.0000 %
2440 04-08-2019 15:00:00 29.46 C 20.0000 %
2441 04-08-2019 16:00:00 30.64 C 20.0000 %
2442 04-08-2019 17:00:00 31.9 C 20.0000 %
2443 04-08-2019 18:00:00 31.46 C 20.0000 %
2444 04-08-2019 19:00:00 28.12 C 20.0000 %
2445 04-08-2019 20:00:00 24.86 C 20.0000 %
2446 04-08-2019 21:00:00 22.22 C 20.0000 %
2447 04-08-2019 22:00:00 22.24 C 20.0000 %
2448 04-08-2019 23:00:00 22.98 C 20.0000 %
2449 05-08-2019 00:00:00 23.08 C 20.0000 %
2450 05-08-2019 01:00:00 21.12 C 20.0000 %
Sensor: Nr:Datum:Temp:Feuchte:
Aussen-T/F 2451 05-08-2019 02:00:00 20.02 C 20.0000 %
2452 05-08-2019 03:00:00 19.54 C 20.0000 %
2453 05-08-2019 04:00:00 19.06 C 22.6000 %
2454 05-08-2019 05:00:00 19.16 C 24.4000 %
2455 05-08-2019 06:00:00 17.68 C 40.4000 %
2456 05-08-2019 07:00:00 17.1 C 46.4000 %
2457 05-08-2019 08:00:00 17.54 C 48.0000 %
2458 05-08-2019 09:00:00 18.92 C 41.4000 %
2459 05-08-2019 10:00:00 21 C 30.8000 %
2460 05-08-2019 11:00:00 23.2 C 23.0000 %
2461 05-08-2019 12:00:00 24.72 C 20.0000 %
2462 05-08-2019 13:00:00 26.5 C 20.0000 %
2463 05-08-2019 14:00:00 27.7 C 20.0000 %
2464 05-08-2019 15:00:00 28.88 C 20.0000 %
2465 05-08-2019 16:00:00 29.14 C 20.0000 %
2466 05-08-2019 17:00:00 28.56 C 20.0000 %
2467 05-08-2019 18:00:00 27.7 C 20.0000 %
2468 05-08-2019 19:00:00 26.58 C 20.0000 %
2469 05-08-2019 20:00:00 24.32 C 20.0000 %
2470 05-08-2019 21:00:00 21.2 C 20.0000 %
2471 05-08-2019 22:00:00 20.1 C 20.0000 %
2472 05-08-2019 23:00:00 18.82 C 21.0000 %
2473 06-08-2019 00:00:00 17.8 C 24.8000 %
2474 06-08-2019 01:00:00 16.9 C 27.6000 %
2475 06-08-2019 02:00:00 17.12 C 28.8000 %
Sensor: Nr:Datum:Temp:Feuchte:
Aussen-T/F 2476 06-08-2019 03:00:00 17.64 C 28.2000 %
2477 06-08-2019 04:00:00 17.1 C 29.6000 %
2478 06-08-2019 05:00:00 16.5 C 32.0000 %
2479 06-08-2019 06:00:00 16.94 C 31.4000 %
2480 06-08-2019 07:00:00 18.28 C 25.8000 %
2481 06-08-2019 08:00:00 19 C 25.0000 %
2482 06-08-2019 09:00:00 20.56 C 20.0000 %
2483 06-08-2019 10:00:00 18.76 C 36.8000 %
2484 06-08-2019 11:00:00 19.78 C 36.6000 %
2485 06-08-2019 12:00:00 21.9 C 24.0000 %
2486 06-08-2019 13:00:00 22.76 C 21.0000 %
2487 06-08-2019 14:00:00 24.26 C 20.0000 %
2488 06-08-2019 15:00:00 25.48 C 20.0000 %
2489 06-08-2019 16:00:00 26.22 C 20.0000 %
2490 06-08-2019 17:00:00 27.04 C 20.0000 %
2491 06-08-2019 18:00:00 25.06 C 20.0000 %
2492 06-08-2019 19:00:00 20.86 C 30.6000 %
2493 06-08-2019 20:00:00 18.38 C 45.8000 %
2494 06-08-2019 21:00:00 17.74 C 49.2000 %
2495 06-08-2019 22:00:00 17.26 C 54.6000 %
2496 06-08-2019 23:00:00 16.84 C 56.2000 %
2497 07-08-2019 00:00:00 16.42 C 56.0000 %
2498 07-08-2019 01:00:00 16.08 C 57.2000 %
2499 07-08-2019 02:00:00 16.32 C 59.2000 %
2500 07-08-2019 03:00:00 16.4 C 59.0000 %
Sensor: Nr:Datum:Temp:Feuchte:
Aussen-T/F 2501 07-08-2019 04:00:00 16.36 C 58.6000 %
2502 07-08-2019 05:00:00 16.48 C 60.4000 %
2503 07-08-2019 06:00:00 16.74 C 61.8000 %
2504 07-08-2019 07:00:00 17.04 C 61.2000 %
2505 07-08-2019 08:00:00 17.6 C 61.4000 %
2506 07-08-2019 09:00:00 18.2 C 55.0000 %
2507 07-08-2019 10:00:00 19.02 C 40.2000 %
2508 07-08-2019 11:00:00 20.58 C 32.8000 %
2509 07-08-2019 12:00:00 21.56 C 27.4000 %
2510 07-08-2019 13:00:00 22.46 C 22.4000 %
2511 07-08-2019 14:00:00 22.98 C 22.0000 %
2512 07-08-2019 15:00:00 23.1 C 20.8000 %
2513 07-08-2019 16:00:00 22.42 C 21.4000 %
2514 07-08-2019 17:00:00 22.82 C 20.2000 %
2515 07-08-2019 18:00:00 23.8 C 20.2000 %
2516 07-08-2019 19:00:00 21.74 C 25.0000 %
2517 07-08-2019 20:00:00 19.34 C 35.0000 %
2518 07-08-2019 21:00:00 17.62 C 38.6000 %
2519 07-08-2019 22:00:00 16.7 C 39.6000 %
2520 07-08-2019 23:00:00 16.66 C 37.8000 %
2521 08-08-2019 00:00:00 15.76 C 43.8000 %
2522 08-08-2019 01:00:00 16.54 C 40.4000 %
2523 08-08-2019 02:00:00 16.44 C 41.8000 %
2524 08-08-2019 03:00:00 16.38 C 40.8000 %
2525 08-08-2019 04:00:00 15.94 C 44.8000 %
Sensor: Nr:Datum:Temp:Feuchte:
Aussen-T/F 2526 08-08-2019 05:00:00 14.86 C 46.6000 %
2527 08-08-2019 06:00:00 15.88 C 42.8000 %
2528 08-08-2019 07:00:00 15.98 C 42.6000 %
2529 08-08-2019 08:00:00 17.22 C 37.4000 %
2530 08-08-2019 09:00:00 18.8 C 29.8000 %
2531 08-08-2019 10:00:00 20.8 C 21.8000 %
2532 08-08-2019 11:00:00 23.92 C 20.0000 %
2533 08-08-2019 12:00:00 23.46 C 20.0000 %
2534 08-08-2019 13:00:00 24.56 C 20.0000 %
2535 08-08-2019 14:00:00 24.6 C 20.0000 %
2536 08-08-2019 15:00:00 25.12 C 20.0000 %
2537 08-08-2019 16:00:00 27.4 C 20.0000 %
2538 08-08-2019 17:00:00 27.76 C 20.0000 %
2539 08-08-2019 18:00:00 27.98 C 20.0000 %
2540 08-08-2019 19:00:00 24.9 C 20.0000 %
2541 08-08-2019 20:00:00 22.38 C 22.2000 %
2542 08-08-2019 21:00:00 19.92 C 28.6000 %
2543 08-08-2019 22:00:00 18.76 C 33.6000 %
2544 08-08-2019 23:00:00 18 C 38.4000 %
2545 09-08-2019 00:00:00 16.78 C 42.0000 %
2546 09-08-2019 01:00:00 16.16 C 43.2000 %
2547 09-08-2019 02:00:00 15.84 C 44.2000 %
2548 09-08-2019 03:00:00 15.04 C 45.6000 %
2549 09-08-2019 04:00:00 14.66 C 46.6000 %
2550 09-08-2019 05:00:00 14.42 C 46.8000 %
Sensor: Nr:Datum:Temp:Feuchte:
Aussen-T/F 2551 09-08-2019 06:00:00 14.76 C 47.2000 %
2552 09-08-2019 07:00:00 16.18 C 42.0000 %
2553 09-08-2019 08:00:00 17.24 C 36.8000 %
2554 09-08-2019 09:00:00 19.18 C 30.4000 %
2555 09-08-2019 10:00:00 21.6 C 25.6000 %
2556 09-08-2019 11:00:00 25.26 C 20.0000 %
2557 09-08-2019 12:00:00 25.24 C 20.0000 %
2558 09-08-2019 13:00:00 25.1 C 20.2000 %
2559 09-08-2019 14:00:00 22.92 C 31.4000 %
2560 09-08-2019 15:00:00 24.42 C 29.6000 %
2561 09-08-2019 16:00:00 26.96 C 21.2000 %
2562 09-08-2019 17:00:00 23.68 C 36.6000 %
2563 09-08-2019 18:00:00 21.68 C 44.8000 %
2564 09-08-2019 19:00:00 20.86 C 46.8000 %
2565 09-08-2019 20:00:00 19.16 C 48.4000 %
2566 09-08-2019 21:00:00 19.1 C 58.6000 %
2567 09-08-2019 22:00:00 18.98 C 59.4000 %
2568 09-08-2019 23:00:00 18.5 C 59.6000 %
2569 10-08-2019 00:00:00 18.66 C 61.8000 %
2570 10-08-2019 01:00:00 18.54 C 61.6000 %
2571 10-08-2019 02:00:00 18.16 C 61.2000 %
2572 10-08-2019 03:00:00 18 C 62.2000 %
2573 10-08-2019 04:00:00 17.66 C 62.2000 %
2574 10-08-2019 05:00:00 17.14 C 63.0000 %
2575 10-08-2019 06:00:00 17.16 C 63.2000 %
Sensor: Nr:Datum:Temp:Feuchte:
Aussen-T/F 2576 10-08-2019 07:00:00 17.1 C 62.0000 %
2577 10-08-2019 08:00:00 17.66 C 42.4000 %
2578 10-08-2019 09:00:00 19.52 C 32.4000 %
2579 10-08-2019 10:00:00 20.96 C 28.8000 %
2580 10-08-2019 11:00:00 22.14 C 24.6000 %
2581 10-08-2019 12:00:00 23.08 C 21.6000 %
2582 10-08-2019 13:00:00 23.86 C 20.0000 %
2583 10-08-2019 14:00:00 24.64 C 20.0000 %
2584 10-08-2019 15:00:00 25.62 C 20.0000 %
2585 10-08-2019 16:00:00 25.72 C 20.0000 %
2586 10-08-2019 17:00:00 26.9 C 20.0000 %
2587 10-08-2019 18:00:00 26.2 C 20.0000 %
2588 10-08-2019 19:00:00 25.06 C 20.0000 %
2589 10-08-2019 20:00:00 21.68 C 21.6000 %
2590 10-08-2019 21:00:00 18.7 C 28.4000 %
2591 10-08-2019 22:00:00 17.24 C 32.6000 %
2592 10-08-2019 23:00:00 16.1 C 34.8000 %
2593 11-08-2019 00:00:00 15.52 C 36.6000 %
2594 11-08-2019 01:00:00 15.36 C 39.6000 %
2595 11-08-2019 02:00:00 15.84 C 36.4000 %
2596 11-08-2019 03:00:00 14.8 C 39.6000 %
2597 11-08-2019 04:00:00 14.2 C 41.6000 %
2598 11-08-2019 05:00:00 13.34 C 45.0000 %
2599 11-08-2019 06:00:00 13.56 C 45.8000 %
2600 11-08-2019 07:00:00 14.38 C 41.0000 %
Sensor: Nr:Datum:Temp:Feuchte:
Aussen-T/F 2601 11-08-2019 08:00:00 15.22 C 39.2000 %
2602 11-08-2019 09:00:00 16.8 C 35.4000 %
2603 11-08-2019 10:00:00 20.3 C 22.8000 %
2604 11-08-2019 11:00:00 22.84 C 20.0000 %
2605 11-08-2019 12:00:00 22.84 C 20.0000 %
2606 11-08-2019 13:00:00 23.44 C 20.0000 %
2607 11-08-2019 14:00:00 23.04 C 20.0000 %
2608 11-08-2019 15:00:00 21.38 C 20.0000 %
2609 11-08-2019 16:00:00 19.08 C 27.6000 %
2610 11-08-2019 17:00:00 16.16 C 46.6000 %
2611 11-08-2019 18:00:00 15.72 C 44.6000 %
2612 11-08-2019 19:00:00 15.84 C 42.2000 %
2613 11-08-2019 20:00:00 15.36 C 45.2000 %
2614 11-08-2019 21:00:00 15 C 42.6000 %
2615 11-08-2019 22:00:00 14.14 C 46.4000 %
2616 11-08-2019 23:00:00 14.64 C 43.4000 %
2617 12-08-2019 00:00:00 15.04 C 41.4000 %
2618 12-08-2019 01:00:00 14.22 C 45.6000 %
2619 12-08-2019 02:00:00 13.46 C 49.0000 %
2620 12-08-2019 03:00:00 12.6 C 50.4000 %
2621 12-08-2019 04:00:00 12.6 C 50.4000 %
2622 12-08-2019 05:00:00 12.5 C 48.4000 %
2623 12-08-2019 06:00:00 12.7 C 49.4000 %
2624 12-08-2019 07:00:00 12.82 C 49.0000 %
2625 12-08-2019 08:00:00 13.56 C 49.8000 %
Sensor: Nr:Datum:Temp:Feuchte:
Aussen-T/F 2626 12-08-2019 09:00:00 15.56 C 38.6000 %
2627 12-08-2019 10:00:00 18.28 C 29.8000 %
2628 12-08-2019 11:00:00 22 C 21.0000 %
2629 12-08-2019 12:00:00 21.74 C 20.2000 %
2630 12-08-2019 13:00:00 22.24 C 20.0000 %
2631 12-08-2019 14:00:00 23.4 C 20.0000 %
2632 12-08-2019 15:00:00 24.24 C 20.0000 %
2633 12-08-2019 16:00:00 22.54 C 20.0000 %
2634 12-08-2019 17:00:00 17.06 C 33.4000 %
2635 12-08-2019 18:00:00 15.5 C 45.0000 %
2636 12-08-2019 19:00:00 15.56 C 46.2000 %
2637 12-08-2019 20:00:00 15.2 C 46.4000 %
2638 12-08-2019 21:00:00 15.04 C 48.6000 %
2639 12-08-2019 22:00:00 14.72 C 48.6000 %
2640 12-08-2019 23:00:00 13.8 C 44.4000 %
2641 13-08-2019 00:00:00 13.52 C 48.4000 %
2642 13-08-2019 01:00:00 12.86 C 49.6000 %
2643 13-08-2019 02:00:00 12.84 C 49.4000 %
2644 13-08-2019 03:00:00 12.74 C 49.8000 %
2645 13-08-2019 04:00:00 13.34 C 47.4000 %
2646 13-08-2019 05:00:00 13.12 C 45.8000 %
2647 13-08-2019 06:00:00 12.6 C 48.8000 %
2648 13-08-2019 07:00:00 13.2 C 42.0000 %
2649 13-08-2019 08:00:00 13.7 C 39.0000 %
2650 13-08-2019 09:00:00 15.24 C 32.6000 %
Sensor: Nr:Datum:Temp:Feuchte:
Aussen-T/F 2651 13-08-2019 10:00:00 16.7 C 24.0000 %
2652 13-08-2019 11:00:00 18.62 C 20.0000 %
2653 13-08-2019 12:00:00 18.6 C 20.0000 %
2654 13-08-2019 13:00:00 19.48 C 20.0000 %
2655 13-08-2019 14:00:00 20.48 C 20.0000 %
2656 13-08-2019 15:00:00 22.26 C 20.0000 %
2657 13-08-2019 16:00:00 22.1 C 20.0000 %
2658 13-08-2019 17:00:00 21.58 C 20.0000 %
2659 13-08-2019 18:00:00 21.54 C 20.0000 %
2660 13-08-2019 19:00:00 17.72 C 23.8000 %
2661 13-08-2019 20:00:00 13.98 C 43.0000 %
2662 13-08-2019 21:00:00 13.64 C 47.2000 %
2663 13-08-2019 22:00:00 13.5 C 48.2000 %
2664 13-08-2019 23:00:00 13.24 C 47.8000 %
2665 14-08-2019 00:00:00 12.92 C 48.2000 %
2666 14-08-2019 01:00:00 12.54 C 48.0000 %
2667 14-08-2019 02:00:00 11.9 C 48.2000 %
2668 14-08-2019 03:00:00 11.9 C 49.6000 %
2669 14-08-2019 04:00:00 11.1 C 49.8000 %
2670 14-08-2019 05:00:00 10.66 C 51.0000 %
2671 14-08-2019 06:00:00 10.22 C 51.6000 %
2672 14-08-2019 07:00:00 10.52 C 52.0000 %
2673 14-08-2019 08:00:00 11.46 C 51.4000 %
2674 14-08-2019 09:00:00 13.78 C 38.4000 %
2675 14-08-2019 10:00:00 14.84 C 37.6000 %
Sensor: Nr:Datum:Temp:Feuchte:
Aussen-T/F 2676 14-08-2019 11:00:00 17.64 C 27.2000 %
2677 14-08-2019 12:00:00 18.28 C 20.4000 %
2678 14-08-2019 13:00:00 19.6 C 20.0000 %
2679 14-08-2019 14:00:00 21.76 C 20.0000 %
2680 14-08-2019 15:00:00 23.44 C 20.0000 %
2681 14-08-2019 16:00:00 24.54 C 20.0000 %
2682 14-08-2019 17:00:00 25.06 C 20.0000 %
2683 14-08-2019 18:00:00 24.66 C 20.0000 %
2684 14-08-2019 19:00:00 21.82 C 20.0000 %
2685 14-08-2019 20:00:00 19.02 C 22.4000 %
2686 14-08-2019 21:00:00 17.9 C 26.6000 %
2687 14-08-2019 22:00:00 17.54 C 27.4000 %
2688 14-08-2019 23:00:00 17.4 C 27.2000 %
2689 15-08-2019 00:00:00 17.4 C 27.0000 %
2690 15-08-2019 01:00:00 17.02 C 29.4000 %
2691 15-08-2019 02:00:00 15.22 C 45.2000 %
2692 15-08-2019 03:00:00 14.74 C 49.6000 %
2693 15-08-2019 04:00:00 14.68 C 49.8000 %
2694 15-08-2019 05:00:00 14.72 C 48.8000 %
2695 15-08-2019 06:00:00 14.92 C 47.6000 %
2696 15-08-2019 07:00:00 16.16 C 38.8000 %
2697 15-08-2019 08:00:00 17.7 C 31.0000 %
2698 15-08-2019 09:00:00 18.72 C 29.8000 %
2699 15-08-2019 10:00:00 19.64 C 28.4000 %
2700 15-08-2019 11:00:00 19.6 C 29.6000 %
Sensor: Nr:Datum:Temp:Feuchte:
Aussen-T/F 2701 15-08-2019 12:00:00 20.02 C 29.0000 %
2702 15-08-2019 13:00:00 18.22 C 44.0000 %
2703 15-08-2019 14:00:00 20.02 C 33.2000 %
2704 15-08-2019 15:00:00 20.5 C 34.4000 %
2705 15-08-2019 16:00:00 18.94 C 39.4000 %
2706 15-08-2019 17:00:00 16.88 C 47.0000 %
2707 15-08-2019 18:00:00 16.76 C 46.0000 %
2708 15-08-2019 19:00:00 17.2 C 44.8000 %
2709 15-08-2019 20:00:00 16.82 C 46.4000 %
2710 15-08-2019 21:00:00 16.3 C 45.0000 %
2711 15-08-2019 22:00:00 15.52 C 48.0000 %
2712 15-08-2019 23:00:00 15.24 C 48.4000 %
2713 16-08-2019 00:00:00 14.98 C 47.4000 %
2714 16-08-2019 01:00:00 14.3 C 50.0000 %
2715 16-08-2019 02:00:00 14.34 C 50.4000 %
2716 16-08-2019 03:00:00 14.44 C 49.6000 %
2717 16-08-2019 04:00:00 13.56 C 49.4000 %
2718 16-08-2019 05:00:00 13.2 C 51.6000 %
2719 16-08-2019 06:00:00 13.64 C 50.4000 %
2720 16-08-2019 07:00:00 14.46 C 40.8000 %
2721 16-08-2019 08:00:00 14.84 C 38.4000 %
2722 16-08-2019 09:00:00 15.92 C 34.6000 %
2723 16-08-2019 10:00:00 17.14 C 30.8000 %
2724 16-08-2019 11:00:00 18.72 C 25.8000 %
2725 16-08-2019 12:00:00 18.82 C 25.8000 %
Sensor: Nr:Datum:Temp:Feuchte:
Aussen-T/F 2726 16-08-2019 13:00:00 19.94 C 21.2000 %
2727 16-08-2019 14:00:00 21.04 C 20.4000 %
2728 16-08-2019 15:00:00 22.72 C 20.0000 %
2729 16-08-2019 16:00:00 24.3 C 20.0000 %
2730 16-08-2019 17:00:00 25.2 C 20.0000 %
2731 16-08-2019 18:00:00 25 C 20.0000 %
2732 16-08-2019 19:00:00 22.98 C 20.0000 %
2733 16-08-2019 20:00:00 18.66 C 28.2000 %
2734 16-08-2019 21:00:00 17.34 C 32.6000 %
2735 16-08-2019 22:00:00 16.64 C 36.2000 %
2736 16-08-2019 23:00:00 15.98 C 37.8000 %
2737 17-08-2019 00:00:00 15.6 C 40.0000 %
2738 17-08-2019 01:00:00 15.94 C 40.2000 %
2739 17-08-2019 02:00:00 15.7 C 40.6000 %
2740 17-08-2019 03:00:00 15.26 C 45.4000 %
2741 17-08-2019 04:00:00 15.3 C 47.8000 %
2742 17-08-2019 05:00:00 15.48 C 47.4000 %
2743 17-08-2019 06:00:00 15.72 C 45.4000 %
2744 17-08-2019 07:00:00 16.52 C 42.0000 %
2745 17-08-2019 08:00:00 17.46 C 36.0000 %
2746 17-08-2019 09:00:00 18.66 C 28.4000 %
2747 17-08-2019 10:00:00 18.68 C 30.8000 %
2748 17-08-2019 11:00:00 17.82 C 39.4000 %
2749 17-08-2019 12:00:00 19.06 C 35.6000 %
2750 17-08-2019 13:00:00 20.9 C 25.2000 %
Sensor: Nr:Datum:Temp:Feuchte:
Aussen-T/F 2751 17-08-2019 14:00:00 21.28 C 24.0000 %
2752 17-08-2019 15:00:00 21.42 C 23.6000 %
2753 17-08-2019 16:00:00 21.14 C 24.8000 %
2754 17-08-2019 17:00:00 20.4 C 27.2000 %
2755 17-08-2019 18:00:00 19.4 C 34.2000 %
2756 17-08-2019 19:00:00 18.2 C 44.2000 %
2757 17-08-2019 20:00:00 17.66 C 46.8000 %
2758 17-08-2019 21:00:00 17.46 C 47.4000 %
2759 17-08-2019 22:00:00 17.28 C 48.4000 %
2760 17-08-2019 23:00:00 17.1 C 49.0000 %
2761 18-08-2019 00:00:00 17.12 C 49.4000 %
2762 18-08-2019 01:00:00 17 C 50.2000 %
2763 18-08-2019 02:00:00 16.88 C 51.8000 %
2764 18-08-2019 03:00:00 16.86 C 54.0000 %
2765 18-08-2019 04:00:00 16.86 C 56.8000 %
2766 18-08-2019 05:00:00 17 C 59.6000 %
2767 18-08-2019 06:00:00 16.92 C 60.6000 %
2768 18-08-2019 07:00:00 17.12 C 61.4000 %
2769 18-08-2019 08:00:00 17.72 C 60.2000 %
2770 18-08-2019 09:00:00 18.68 C 56.2000 %
2771 18-08-2019 10:00:00 20.06 C 43.8000 %
2772 18-08-2019 11:00:00 23.14 C 31.2000 %
2773 18-08-2019 12:00:00 24.44 C 25.6000 %
2774 18-08-2019 13:00:00 24.62 C 24.6000 %
2775 18-08-2019 14:00:00 24.74 C 24.0000 %
Sensor: Nr:Datum:Temp:Feuchte:
Aussen-T/F 2776 18-08-2019 15:00:00 24.9 C 23.8000 %
2777 18-08-2019 16:00:00 25.16 C 22.2000 %
2778 18-08-2019 17:00:00 23.82 C 25.6000 %
2779 18-08-2019 18:00:00 19.86 C 48.0000 %
2780 18-08-2019 19:00:00 19.48 C 48.0000 %
2781 18-08-2019 20:00:00 19.1 C 47.8000 %
2782 18-08-2019 21:00:00 18.32 C 47.2000 %
2783 18-08-2019 22:00:00 17.12 C 48.6000 %
2784 18-08-2019 23:00:00 16.32 C 47.4000 %
2785 19-08-2019 00:00:00 16.04 C 48.0000 %
2786 19-08-2019 01:00:00 16.08 C 46.2000 %
2787 19-08-2019 02:00:00 15.72 C 47.4000 %
2788 19-08-2019 03:00:00 15.16 C 48.4000 %
2789 19-08-2019 04:00:00 14.76 C 50.6000 %
2790 19-08-2019 05:00:00 14.88 C 50.4000 %
2791 19-08-2019 06:00:00 14.26 C 51.0000 %
2792 19-08-2019 07:00:00 14.86 C 54.2000 %
2793 19-08-2019 08:00:00 15.48 C 46.4000 %
2794 19-08-2019 09:00:00 16.28 C 40.0000 %
2795 19-08-2019 10:00:00 18.2 C 29.0000 %
2796 19-08-2019 11:00:00 20.96 C 20.2000 %
2797 19-08-2019 12:00:00 20.6 C 20.0000 %
2798 19-08-2019 13:00:00 21.88 C 20.0000 %
2799 19-08-2019 14:00:00 23.42 C 20.0000 %
2800 19-08-2019 15:00:00 23.9 C 20.0000 %
Sensor: Nr:Datum:Temp:Feuchte:
Aussen-T/F 2801 19-08-2019 16:00:00 24.46 C 20.0000 %
2802 19-08-2019 17:00:00 23.98 C 20.0000 %
2803 19-08-2019 18:00:00 23.88 C 20.0000 %
2804 19-08-2019 19:00:00 22.16 C 20.0000 %
2805 19-08-2019 20:00:00 18.58 C 24.6000 %
2806 19-08-2019 21:00:00 16.62 C 28.8000 %
2807 19-08-2019 22:00:00 16.2 C 31.0000 %
2808 19-08-2019 23:00:00 14.48 C 36.0000 %
2809 20-08-2019 00:00:00 13.62 C 39.0000 %
2810 20-08-2019 01:00:00 13.06 C 41.4000 %
2811 20-08-2019 02:00:00 12.78 C 41.8000 %
2812 20-08-2019 03:00:00 11.86 C 45.0000 %
2813 20-08-2019 04:00:00 11.1 C 48.0000 %
2814 20-08-2019 05:00:00 10.74 C 50.2000 %
2815 20-08-2019 06:00:00 10.32 C 50.6000 %
2816 20-08-2019 07:00:00 11.08 C 49.8000 %
2817 20-08-2019 08:00:00 11.72 C 48.0000 %
2818 20-08-2019 09:00:00 13.52 C 42.0000 %
2819 20-08-2019 10:00:00 16.54 C 28.6000 %
2820 20-08-2019 11:00:00 18.02 C 21.6000 %
2821 20-08-2019 12:00:00 19.26 C 20.0000 %
2822 20-08-2019 13:00:00 20.14 C 20.0000 %
2823 20-08-2019 14:00:00 21.18 C 20.0000 %
2824 20-08-2019 15:00:00 21.82 C 20.0000 %
2825 20-08-2019 16:00:00 21.38 C 20.0000 %
Sensor: Nr:Datum:Temp:Feuchte:
Aussen-T/F 2826 20-08-2019 17:00:00 20.68 C 20.0000 %
2827 20-08-2019 18:00:00 20.02 C 22.8000 %
2828 20-08-2019 19:00:00 18.38 C 26.8000 %
2829 20-08-2019 20:00:00 17.18 C 28.6000 %
2830 20-08-2019 21:00:00 16.38 C 31.0000 %
2831 20-08-2019 22:00:00 16.14 C 30.6000 %
2832 20-08-2019 23:00:00 14.96 C 34.0000 %
2833 21-08-2019 00:00:00 13.7 C 40.8000 %
2834 21-08-2019 01:00:00 13.04 C 42.8000 %
2835 21-08-2019 02:00:00 12.12 C 46.4000 %
2836 21-08-2019 03:00:00 11.6 C 49.2000 %
2837 21-08-2019 04:00:00 10.92 C 49.6000 %
2838 21-08-2019 05:00:00 10.46 C 50.6000 %
2839 21-08-2019 06:00:00 10.14 C 51.0000 %
2840 21-08-2019 07:00:00 10.4 C 51.0000 %
2841 21-08-2019 08:00:00 11.04 C 50.4000 %
2842 21-08-2019 09:00:00 12.2 C 49.0000 %
2843 21-08-2019 10:00:00 14.46 C 41.4000 %
2844 21-08-2019 11:00:00 19.18 C 25.4000 %
2845 21-08-2019 12:00:00 18.86 C 22.6000 %
2846 21-08-2019 13:00:00 20.62 C 20.0000 %
2847 21-08-2019 14:00:00 22.36 C 20.0000 %
2848 21-08-2019 15:00:00 23.68 C 20.0000 %
2849 21-08-2019 16:00:00 24.7 C 20.0000 %
2850 21-08-2019 17:00:00 24.62 C 20.0000 %
Sensor: Nr:Datum:Temp:Feuchte:
Aussen-T/F 2851 21-08-2019 18:00:00 24.52 C 20.0000 %
2852 21-08-2019 19:00:00 22.52 C 20.0000 %
2853 21-08-2019 20:00:00 18.84 C 20.0000 %
2854 21-08-2019 21:00:00 16.78 C 20.2000 %
2855 21-08-2019 22:00:00 15.66 C 23.2000 %
2856 21-08-2019 23:00:00 14.28 C 29.8000 %
2857 22-08-2019 00:00:00 12.86 C 35.6000 %
2858 22-08-2019 01:00:00 11.88 C 38.8000 %
2859 22-08-2019 02:00:00 11.24 C 42.4000 %
2860 22-08-2019 03:00:00 10.78 C 45.2000 %
2861 22-08-2019 04:00:00 10.2 C 47.0000 %
2862 22-08-2019 05:00:00 9.66 C 49.0000 %
2863 22-08-2019 06:00:00 9.58 C 50.4000 %
2864 22-08-2019 07:00:00 9.76 C 50.4000 %
2865 22-08-2019 08:00:00 10.5 C 50.0000 %
2866 22-08-2019 09:00:00 11.8 C 48.8000 %
2867 22-08-2019 10:00:00 14.66 C 36.4000 %
2868 22-08-2019 11:00:00 19.62 C 23.2000 %
2869 22-08-2019 12:00:00 20.3 C 21.6000 %
2870 22-08-2019 13:00:00 22.36 C 20.0000 %
2871 22-08-2019 14:00:00 24.34 C 20.0000 %
2872 22-08-2019 15:00:00 26.72 C 20.0000 %
2873 22-08-2019 16:00:00 27.32 C 20.0000 %
2874 22-08-2019 17:00:00 27.78 C 20.0000 %
2875 22-08-2019 18:00:00 27.86 C 20.0000 %
Sensor: Nr:Datum:Temp:Feuchte:
Aussen-T/F 2876 22-08-2019 19:00:00 23.98 C 20.0000 %
2877 22-08-2019 20:00:00 20 C 20.0000 %
2878 22-08-2019 21:00:00 17.6 C 20.8000 %
2879 22-08-2019 22:00:00 15.84 C 26.4000 %
2880 22-08-2019 23:00:00 14.32 C 30.8000 %
2881 23-08-2019 00:00:00 13.4 C 34.0000 %
2882 23-08-2019 01:00:00 12.92 C 36.8000 %
2883 23-08-2019 02:00:00 12.28 C 40.0000 %
2884 23-08-2019 03:00:00 11.62 C 43.6000 %
2885 23-08-2019 04:00:00 11.28 C 45.6000 %
2886 23-08-2019 05:00:00 10.88 C 46.8000 %
2887 23-08-2019 06:00:00 10.42 C 48.6000 %
2888 23-08-2019 07:00:00 10.76 C 49.2000 %
2889 23-08-2019 08:00:00 11.42 C 48.4000 %
2890 23-08-2019 09:00:00 12.68 C 47.2000 %
2891 23-08-2019 10:00:00 15.6 C 37.2000 %
2892 23-08-2019 11:00:00 19.44 C 25.8000 %
2893 23-08-2019 12:00:00 21.32 C 22.0000 %
2894 23-08-2019 13:00:00 23.68 C 20.0000 %
2895 23-08-2019 14:00:00 26.44 C 20.0000 %
2896 23-08-2019 15:00:00 28.44 C 20.0000 %
2897 23-08-2019 16:00:00 29.28 C 20.0000 %
2898 23-08-2019 17:00:00 29.2 C 20.0000 %
2899 23-08-2019 18:00:00 28.88 C 20.0000 %
2900 23-08-2019 19:00:00 25.8 C 20.0000 %
Sensor: Nr:Datum:Temp:Feuchte:
Aussen-T/F 2901 23-08-2019 20:00:00 21.8 C 20.0000 %
2902 23-08-2019 21:00:00 19.28 C 20.0000 %
2903 23-08-2019 22:00:00 17.16 C 23.4000 %
2904 23-08-2019 23:00:00 15.62 C 27.6000 %
2905 24-08-2019 00:00:00 14.4 C 31.4000 %
2906 24-08-2019 01:00:00 13.64 C 36.0000 %
2907 24-08-2019 02:00:00 13 C 39.0000 %
2908 24-08-2019 03:00:00 12.34 C 41.6000 %
2909 24-08-2019 04:00:00 11.76 C 44.6000 %
2910 24-08-2019 05:00:00 11.46 C 46.8000 %
2911 24-08-2019 06:00:00 11.28 C 47.6000 %
2912 24-08-2019 07:00:00 11.62 C 47.8000 %
2913 24-08-2019 08:00:00 12.24 C 46.6000 %
2914 24-08-2019 09:00:00 13.48 C 45.0000 %
2915 24-08-2019 10:00:00 16.54 C 34.4000 %
2916 24-08-2019 11:00:00 20.06 C 24.4000 %
2917 24-08-2019 12:00:00 22.2 C 21.4000 %
2918 24-08-2019 13:00:00 25.32 C 20.0000 %
2919 24-08-2019 14:00:00 27.52 C 20.0000 %
2920 24-08-2019 15:00:00 29.28 C 20.0000 %
2921 24-08-2019 16:00:00 30.1 C 20.0000 %
2922 24-08-2019 17:00:00 30.38 C 20.0000 %
2923 24-08-2019 18:00:00 30.32 C 20.0000 %
2924 24-08-2019 19:00:00 27 C 20.0000 %
2925 24-08-2019 20:00:00 23.14 C 20.0000 %
Sensor: Nr:Datum:Temp:Feuchte:
Aussen-T/F 2926 24-08-2019 21:00:00 21.02 C 20.8000 %
2927 24-08-2019 22:00:00 19.08 C 26.0000 %
2928 24-08-2019 23:00:00 17.54 C 30.2000 %
2929 25-08-2019 00:00:00 17 C 31.8000 %
2930 25-08-2019 01:00:00 16.56 C 34.6000 %
2931 25-08-2019 02:00:00 15.64 C 37.4000 %
2932 25-08-2019 03:00:00 15.34 C 39.4000 %
2933 25-08-2019 04:00:00 14.9 C 40.6000 %
2934 25-08-2019 05:00:00 14.5 C 42.2000 %
2935 25-08-2019 06:00:00 14.32 C 43.0000 %
2936 25-08-2019 07:00:00 15.1 C 41.6000 %
2937 25-08-2019 08:00:00 16.42 C 37.4000 %
2938 25-08-2019 09:00:00 17.74 C 34.2000 %
2939 25-08-2019 10:00:00 19.48 C 30.2000 %
2940 25-08-2019 11:00:00 22.88 C 22.8000 %
2941 25-08-2019 12:00:00 25.08 C 20.0000 %
2942 25-08-2019 13:00:00 26.88 C 20.0000 %
2943 25-08-2019 14:00:00 28.7 C 20.0000 %
2944 25-08-2019 15:00:00 31.24 C 20.0000 %
2945 25-08-2019 16:00:00 31.48 C 20.0000 %
2946 25-08-2019 17:00:00 32.12 C 20.0000 %
2947 25-08-2019 18:00:00 29.24 C 20.0000 %
2948 25-08-2019 19:00:00 26.04 C 20.0000 %
2949 25-08-2019 20:00:00 23.72 C 22.8000 %
2950 25-08-2019 21:00:00 22.42 C 27.6000 %
Sensor: Nr:Datum:Temp:Feuchte:
Aussen-T/F 2951 25-08-2019 22:00:00 20.7 C 34.0000 %
2952 25-08-2019 23:00:00 19.6 C 37.8000 %
2953 26-08-2019 00:00:00 19.16 C 40.2000 %
2954 26-08-2019 01:00:00 18.62 C 41.4000 %
2955 26-08-2019 02:00:00 18.12 C 43.6000 %
2956 26-08-2019 03:00:00 17.6 C 44.2000 %
2957 26-08-2019 04:00:00 17.08 C 46.2000 %
2958 26-08-2019 05:00:00 16.88 C 46.6000 %
2959 26-08-2019 06:00:00 16.5 C 47.2000 %
2960 26-08-2019 07:00:00 16.66 C 47.4000 %
2961 26-08-2019 08:00:00 17.9 C 45.6000 %
2962 26-08-2019 09:00:00 19.14 C 42.6000 %
2963 26-08-2019 10:00:00 21.16 C 35.2000 %
2964 26-08-2019 11:00:00 24.26 C 25.6000 %
2965 26-08-2019 12:00:00 26 C 21.8000 %
2966 26-08-2019 13:00:00 28.46 C 20.0000 %
2967 26-08-2019 14:00:00 30.14 C 20.0000 %
2968 26-08-2019 15:00:00 30.56 C 20.0000 %
2969 26-08-2019 16:00:00 28.26 C 20.0000 %
2970 26-08-2019 17:00:00 26.6 C 20.0000 %
2971 26-08-2019 18:00:00 27.26 C 20.2000 %
2972 26-08-2019 19:00:00 26.38 C 20.6000 %
2973 26-08-2019 20:00:00 23.52 C 25.8000 %
2974 26-08-2019 21:00:00 21.72 C 31.8000 %
2975 26-08-2019 22:00:00 20.48 C 37.0000 %
Sensor: Nr:Datum:Temp:Feuchte:
Aussen-T/F 2976 26-08-2019 23:00:00 19.62 C 40.6000 %
2977 27-08-2019 00:00:00 18.86 C 43.4000 %
2978 27-08-2019 01:00:00 18.6 C 44.8000 %
2979 27-08-2019 02:00:00 17.94 C 46.0000 %
2980 27-08-2019 03:00:00 17.6 C 47.2000 %
2981 27-08-2019 04:00:00 17.16 C 46.6000 %
2982 27-08-2019 05:00:00 16.82 C 47.8000 %
2983 27-08-2019 06:00:00 16.42 C 48.0000 %
2984 27-08-2019 07:00:00 16.7 C 48.4000 %
2985 27-08-2019 08:00:00 17.48 C 47.8000 %
2986 27-08-2019 09:00:00 18.8 C 46.2000 %
2987 27-08-2019 10:00:00 20.94 C 37.2000 %
2988 27-08-2019 11:00:00 23.78 C 27.8000 %
2989 27-08-2019 12:00:00 25.76 C 24.2000 %
2990 27-08-2019 13:00:00 28.72 C 20.0000 %
2991 27-08-2019 14:00:00 30.84 C 20.0000 %
2992 27-08-2019 15:00:00 32.76 C 20.0000 %
2993 27-08-2019 16:00:00 33.56 C 20.0000 %
2994 27-08-2019 17:00:00 31 C 20.0000 %
2995 27-08-2019 18:00:00 29.48 C 20.0000 %
2996 27-08-2019 19:00:00 26.06 C 24.4000 %
2997 27-08-2019 20:00:00 22.76 C 32.2000 %
2998 27-08-2019 21:00:00 21.88 C 34.2000 %
2999 27-08-2019 22:00:00 20.76 C 38.2000 %
3000 27-08-2019 23:00:00 20.2 C 39.6000 %
Sensor: Nr:Datum:Temp:Feuchte:
Aussen-T/F 3001 28-08-2019 00:00:00 19.66 C 41.8000 %
3002 28-08-2019 01:00:00 19.46 C 43.4000 %
3003 28-08-2019 02:00:00 19.02 C 44.8000 %
3004 28-08-2019 03:00:00 18.6 C 45.6000 %
3005 28-08-2019 04:00:00 17.96 C 46.0000 %
3006 28-08-2019 05:00:00 17.78 C 47.0000 %
3007 28-08-2019 06:00:00 17.86 C 47.0000 %
3008 28-08-2019 07:00:00 17.84 C 47.0000 %
3009 28-08-2019 08:00:00 19.28 C 42.8000 %
3010 28-08-2019 09:00:00 20.86 C 34.8000 %
3011 28-08-2019 10:00:00 23.26 C 22.4000 %
3012 28-08-2019 11:00:00 24.24 C 20.6000 %
3013 28-08-2019 12:00:00 24.98 C 21.0000 %
3014 28-08-2019 13:00:00 27.06 C 20.0000 %
3015 28-08-2019 14:00:00 29.7 C 20.0000 %
3016 28-08-2019 15:00:00 31.14 C 20.0000 %
3017 28-08-2019 16:00:00 32.3 C 20.0000 %
3018 28-08-2019 17:00:00 32.4 C 20.0000 %
3019 28-08-2019 18:00:00 30.7 C 20.0000 %
3020 28-08-2019 19:00:00 26.9 C 20.0000 %
3021 28-08-2019 20:00:00 24.94 C 20.0000 %
3022 28-08-2019 21:00:00 23.6 C 20.0000 %
3023 28-08-2019 22:00:00 21.96 C 21.8000 %
3024 28-08-2019 23:00:00 21.12 C 25.0000 %
3025 29-08-2019 00:00:00 20.54 C 27.6000 %
Sensor: Nr:Datum:Temp:Feuchte:
Aussen-T/F 3026 29-08-2019 01:00:00 19.76 C 29.8000 %
3027 29-08-2019 02:00:00 18.9 C 32.4000 %
3028 29-08-2019 03:00:00 17.88 C 36.2000 %
3029 29-08-2019 04:00:00 17.34 C 39.4000 %
3030 29-08-2019 05:00:00 18.16 C 40.2000 %
3031 29-08-2019 06:00:00 18.74 C 39.0000 %
3032 29-08-2019 07:00:00 19.28 C 38.2000 %
3033 29-08-2019 08:00:00 20.32 C 34.2000 %
3034 29-08-2019 09:00:00 21.26 C 30.2000 %
3035 29-08-2019 10:00:00 20.98 C 35.2000 %
3036 29-08-2019 11:00:00 22.88 C 26.2000 %
3037 29-08-2019 12:00:00 23.92 C 23.4000 %
3038 29-08-2019 13:00:00 25.94 C 20.0000 %
3039 29-08-2019 14:00:00 27.48 C 20.0000 %
3040 29-08-2019 15:00:00 28.48 C 20.0000 %
3041 29-08-2019 16:00:00 28.46 C 20.0000 %
3042 29-08-2019 17:00:00 27.62 C 20.0000 %
3043 29-08-2019 18:00:00 26.48 C 20.0000 %
3044 29-08-2019 19:00:00 24.74 C 20.0000 %
3045 29-08-2019 20:00:00 22.12 C 22.8000 %
3046 29-08-2019 21:00:00 20.68 C 27.4000 %
3047 29-08-2019 22:00:00 20.46 C 29.2000 %
3048 29-08-2019 23:00:00 20.46 C 29.2000 %
3049 30-08-2019 00:00:00 20.18 C 28.6000 %
3050 30-08-2019 01:00:00 18.84 C 34.4000 %
Sensor: Nr:Datum:Temp:Feuchte:
Aussen-T/F 3051 30-08-2019 02:00:00 17.74 C 38.8000 %
3052 30-08-2019 03:00:00 17.16 C 41.0000 %
3053 30-08-2019 04:00:00 16.32 C 43.0000 %
3054 30-08-2019 05:00:00 16.02 C 45.4000 %
3055 30-08-2019 06:00:00 15.8 C 44.2000 %
3056 30-08-2019 07:00:00 15.48 C 45.8000 %
3057 30-08-2019 08:00:00 16.74 C 44.6000 %
3058 30-08-2019 09:00:00 19.02 C 31.4000 %
3059 30-08-2019 10:00:00 20.02 C 27.4000 %
3060 30-08-2019 11:00:00 21.62 C 23.4000 %
3061 30-08-2019 12:00:00 22.64 C 20.8000 %
3062 30-08-2019 13:00:00 23.96 C 20.0000 %
3063 30-08-2019 14:00:00 25.76 C 20.0000 %
3064 30-08-2019 15:00:00 27.66 C 20.0000 %
3065 30-08-2019 16:00:00 28.84 C 20.0000 %
3066 30-08-2019 17:00:00 29.94 C 20.0000 %
3067 30-08-2019 18:00:00 29.46 C 20.0000 %
3068 30-08-2019 19:00:00 25.96 C 20.0000 %
3069 30-08-2019 20:00:00 21.84 C 20.0000 %
3070 30-08-2019 21:00:00 19.64 C 20.4000 %
3071 30-08-2019 22:00:00 18.06 C 24.8000 %
3072 30-08-2019 23:00:00 16.98 C 28.2000 %
3073 31-08-2019 00:00:00 16.28 C 31.8000 %
3074 31-08-2019 01:00:00 15.54 C 35.4000 %
3075 31-08-2019 02:00:00 15 C 38.0000 %
Sensor: Nr:Datum:Temp:Feuchte:
Aussen-T/F 3076 31-08-2019 03:00:00 14.56 C 40.8000 %
3077 31-08-2019 04:00:00 14.28 C 42.0000 %
3078 31-08-2019 05:00:00 14.44 C 43.2000 %
3079 31-08-2019 06:00:00 14.26 C 43.4000 %
3080 31-08-2019 07:00:00 14.48 C 43.8000 %
3081 31-08-2019 08:00:00 15.24 C 42.2000 %
3082 31-08-2019 09:00:00 16.56 C 40.0000 %
3083 31-08-2019 10:00:00 18.76 C 32.0000 %
3084 31-08-2019 11:00:00 21.52 C 25.8000 %
3085 31-08-2019 12:00:00 23.92 C 22.4000 %
3086 31-08-2019 13:00:00 28.3 C 20.0000 %
3087 31-08-2019 14:00:00 30.52 C 20.0000 %
3088 31-08-2019 15:00:00 32.16 C 20.0000 %
3089 31-08-2019 16:00:00 32.7 C 20.0000 %
3090 31-08-2019 17:00:00 34.2 C 20.0000 %
3091 31-08-2019 18:00:00 33.5 C 20.0000 %
3092 31-08-2019 19:00:00 29.2 C 20.0000 %
3093 31-08-2019 20:00:00 24.82 C 20.0000 %
3094 31-08-2019 21:00:00 24.84 C 20.0000 %
3095 31-08-2019 22:00:00 22.54 C 32.4000 %
3096 31-08-2019 23:00:00 19.78 C 45.0000 %
3097 01-09-2019 00:00:00 19.48 C 45.0000 %
3098 01-09-2019 01:00:00 19.56 C 39.6000 %
3099 01-09-2019 02:00:00 18.68 C 36.4000 %
3100 01-09-2019 03:00:00 17.78 C 35.6000 %
Sensor: Nr:Datum:Temp:Feuchte:
Aussen-T/F 3101 01-09-2019 04:00:00 17.28 C 32.4000 %
3102 01-09-2019 05:00:00 17.98 C 27.6000 %
3103 01-09-2019 06:00:00 16.82 C 31.2000 %
3104 01-09-2019 07:00:00 16.32 C 36.0000 %
3105 01-09-2019 08:00:00 18.12 C 28.6000 %
3106 01-09-2019 09:00:00 18.82 C 26.2000 %
3107 01-09-2019 10:00:00 19.82 C 22.8000 %
3108 01-09-2019 11:00:00 20.6 C 21.2000 %
3109 01-09-2019 12:00:00 20.56 C 22.2000 %
3110 01-09-2019 13:00:00 19.84 C 25.6000 %
3111 01-09-2019 14:00:00 20.96 C 21.0000 %
3112 01-09-2019 15:00:00 21.1 C 20.0000 %
3113 01-09-2019 16:00:00 20.8 C 20.0000 %
3114 01-09-2019 17:00:00 20.4 C 20.0000 %
3115 01-09-2019 18:00:00 21.48 C 20.0000 %
3116 01-09-2019 19:00:00 20.22 C 20.0000 %
3117 01-09-2019 20:00:00 17.58 C 21.2000 %
3118 01-09-2019 21:00:00 16.7 C 22.8000 %
3119 01-09-2019 22:00:00 16.18 C 22.8000 %
3120 01-09-2019 23:00:00 15.38 C 25.8000 %
3121 02-09-2019 00:00:00 14.08 C 26.8000 %
3122 02-09-2019 01:00:00 13.18 C 28.6000 %
3123 02-09-2019 02:00:00 13.68 C 30.0000 %
3124 02-09-2019 03:00:00 12.9 C 34.8000 %
3125 02-09-2019 04:00:00 11.9 C 36.6000 %
Sensor: Nr:Datum:Temp:Feuchte:
Aussen-T/F 3126 02-09-2019 05:00:00 10.96 C 40.8000 %
3127 02-09-2019 06:00:00 9.88 C 45.2000 %
3128 02-09-2019 07:00:00 9.9 C 46.8000 %
3129 02-09-2019 08:00:00 10.36 C 46.6000 %
3130 02-09-2019 09:00:00 11.24 C 44.4000 %
3131 02-09-2019 10:00:00 13.88 C 32.6000 %
3132 02-09-2019 11:00:00 17.08 C 20.0000 %
3133 02-09-2019 12:00:00 17.8 C 20.0000 %
3134 02-09-2019 13:00:00 18.82 C 20.0000 %
3135 02-09-2019 14:00:00 20.1 C 20.0000 %
3136 02-09-2019 15:00:00 20.82 C 20.0000 %
3137 02-09-2019 16:00:00 22.68 C 20.0000 %
3138 02-09-2019 17:00:00 23.32 C 20.0000 %
3139 02-09-2019 18:00:00 23.12 C 20.0000 %
3140 02-09-2019 19:00:00 19.22 C 20.0000 %
3141 02-09-2019 20:00:00 16.3 C 20.0000 %
3142 02-09-2019 21:00:00 14.52 C 20.0000 %
3143 02-09-2019 22:00:00 13.18 C 20.2000 %
3144 02-09-2019 23:00:00 12.92 C 23.4000 %
3145 03-09-2019 00:00:00 12.3 C 25.8000 %
3146 03-09-2019 01:00:00 12.04 C 26.8000 %
3147 03-09-2019 02:00:00 10.56 C 31.2000 %
3148 03-09-2019 03:00:00 9.98 C 34.0000 %
3149 03-09-2019 04:00:00 10.16 C 35.4000 %
3150 03-09-2019 05:00:00 9.26 C 38.0000 %
Sensor: Nr:Datum:Temp:Feuchte:
Aussen-T/F 3151 03-09-2019 06:00:00 8.68 C 40.6000 %
3152 03-09-2019 07:00:00 8.78 C 42.6000 %
3153 03-09-2019 08:00:00 9.48 C 41.8000 %
3154 03-09-2019 09:00:00 10.86 C 38.6000 %
3155 03-09-2019 10:00:00 14.2 C 26.6000 %
3156 03-09-2019 11:00:00 18.08 C 20.0000 %
3157 03-09-2019 12:00:00 19.94 C 20.0000 %
3158 03-09-2019 13:00:00 21.3 C 20.0000 %
3159 03-09-2019 14:00:00 22.94 C 20.0000 %
3160 03-09-2019 15:00:00 24.54 C 20.0000 %
3161 03-09-2019 16:00:00 23.98 C 20.0000 %
3162 03-09-2019 17:00:00 24.1 C 20.0000 %
3163 03-09-2019 18:00:00 23.28 C 20.0000 %
3164 03-09-2019 19:00:00 20.88 C 20.0000 %
3165 03-09-2019 20:00:00 18.1 C 20.6000 %
3166 03-09-2019 21:00:00 15.66 C 26.6000 %
3167 03-09-2019 22:00:00 14.88 C 29.6000 %
3168 03-09-2019 23:00:00 13.52 C 35.8000 %
3169 04-09-2019 00:00:00 12.66 C 40.0000 %
3170 04-09-2019 01:00:00 12.08 C 42.8000 %
3171 04-09-2019 02:00:00 11.6 C 45.2000 %
3172 04-09-2019 03:00:00 11.14 C 46.2000 %
3173 04-09-2019 04:00:00 10.66 C 48.0000 %
3174 04-09-2019 05:00:00 10.28 C 48.2000 %
3175 04-09-2019 06:00:00 10.14 C 49.2000 %
Sensor: Nr:Datum:Temp:Feuchte:
Aussen-T/F 3176 04-09-2019 07:00:00 10.16 C 48.8000 %
3177 04-09-2019 08:00:00 11.28 C 48.6000 %
3178 04-09-2019 09:00:00 14.16 C 34.8000 %
3179 04-09-2019 10:00:00 15.52 C 31.0000 %
3180 04-09-2019 11:00:00 18.7 C 21.8000 %
3181 04-09-2019 12:00:00 19.8 C 20.0000 %
3182 04-09-2019 13:00:00 21.18 C 20.0000 %
3183 04-09-2019 14:00:00 23 C 20.0000 %
3184 04-09-2019 15:00:00 25.04 C 20.0000 %
3185 04-09-2019 16:00:00 26.38 C 20.0000 %
3186 04-09-2019 17:00:00 27.44 C 20.0000 %
3187 04-09-2019 18:00:00 25.16 C 20.0000 %
3188 04-09-2019 19:00:00 23.22 C 20.0000 %
3189 04-09-2019 20:00:00 19.36 C 22.6000 %
3190 04-09-2019 21:00:00 16.5 C 40.6000 %
3191 04-09-2019 22:00:00 15.74 C 45.4000 %
3192 04-09-2019 23:00:00 15.66 C 42.0000 %
3193 05-09-2019 00:00:00 15.54 C 41.8000 %
3194 05-09-2019 01:00:00 15.24 C 38.8000 %
3195 05-09-2019 02:00:00 14.08 C 36.6000 %
3196 05-09-2019 03:00:00 14.26 C 33.4000 %
3197 05-09-2019 04:00:00 14.32 C 31.0000 %
3198 05-09-2019 05:00:00 13.46 C 32.4000 %
3199 05-09-2019 06:00:00 12.76 C 34.8000 %
3200 05-09-2019 07:00:00 12.38 C 35.2000 %
Sensor: Nr:Datum:Temp:Feuchte:
Aussen-T/F 3201 05-09-2019 08:00:00 12.82 C 32.6000 %
3202 05-09-2019 09:00:00 14 C 28.6000 %
3203 05-09-2019 10:00:00 16.02 C 23.2000 %
3204 05-09-2019 11:00:00 16.84 C 20.4000 %
3205 05-09-2019 12:00:00 17.8 C 20.0000 %
3206 05-09-2019 13:00:00 18.44 C 20.0000 %
3207 05-09-2019 14:00:00 18.42 C 20.0000 %
3208 05-09-2019 15:00:00 19.06 C 20.0000 %
3209 05-09-2019 16:00:00 19.2 C 20.0000 %
3210 05-09-2019 17:00:00 17.3 C 20.0000 %
3211 05-09-2019 18:00:00 16.88 C 20.0000 %
3212 05-09-2019 19:00:00 16.42 C 20.0000 %
3213 05-09-2019 20:00:00 15.8 C 20.0000 %
3214 05-09-2019 21:00:00 14.8 C 20.0000 %
3215 05-09-2019 22:00:00 14.56 C 20.2000 %
3216 05-09-2019 23:00:00 13.76 C 22.0000 %
3217 06-09-2019 00:00:00 11.42 C 33.2000 %
3218 06-09-2019 01:00:00 10.92 C 35.6000 %
3219 06-09-2019 02:00:00 10.22 C 39.4000 %
3220 06-09-2019 03:00:00 9.58 C 42.4000 %
3221 06-09-2019 04:00:00 8.76 C 44.8000 %
3222 06-09-2019 05:00:00 7.86 C 47.0000 %
3223 06-09-2019 06:00:00 7.4 C 49.4000 %
3224 06-09-2019 07:00:00 7.46 C 50.0000 %
3225 06-09-2019 08:00:00 8.26 C 49.2000 %
Sensor: Nr:Datum:Temp:Feuchte:
Aussen-T/F 3226 06-09-2019 09:00:00 9.12 C 49.2000 %
3227 06-09-2019 10:00:00 11.06 C 42.2000 %
3228 06-09-2019 11:00:00 13.7 C 25.8000 %
3229 06-09-2019 12:00:00 15.26 C 20.0000 %
3230 06-09-2019 13:00:00 16.54 C 20.0000 %
3231 06-09-2019 14:00:00 18.72 C 20.0000 %
3232 06-09-2019 15:00:00 20.5 C 20.0000 %
3233 06-09-2019 16:00:00 22.14 C 20.0000 %
3234 06-09-2019 17:00:00 23.12 C 20.0000 %
3235 06-09-2019 18:00:00 22.8 C 20.0000 %
3236 06-09-2019 19:00:00 17.22 C 20.0000 %
3237 06-09-2019 20:00:00 15.38 C 20.0000 %
3238 06-09-2019 21:00:00 13.74 C 20.0000 %
3239 06-09-2019 22:00:00 12.2 C 20.0000 %
3240 06-09-2019 23:00:00 12.76 C 20.4000 %
3241 07-09-2019 00:00:00 12.28 C 23.4000 %
3242 07-09-2019 01:00:00 12.32 C 22.0000 %
3243 07-09-2019 02:00:00 12.38 C 22.6000 %
3244 07-09-2019 03:00:00 12.64 C 21.2000 %
3245 07-09-2019 04:00:00 12.74 C 22.0000 %
3246 07-09-2019 05:00:00 12.48 C 24.2000 %
3247 07-09-2019 06:00:00 12.14 C 27.0000 %
3248 07-09-2019 07:00:00 11.18 C 39.0000 %
3249 07-09-2019 08:00:00 11.26 C 49.6000 %
3250 07-09-2019 09:00:00 11.54 C 50.0000 %
Sensor: Nr:Datum:Temp:Feuchte:
Aussen-T/F 3251 07-09-2019 10:00:00 11.94 C 49.8000 %
3252 07-09-2019 11:00:00 12.68 C 48.4000 %
3253 07-09-2019 12:00:00 13.26 C 46.4000 %
3254 07-09-2019 13:00:00 13.9 C 45.2000 %
3255 07-09-2019 14:00:00 14.2 C 43.4000 %
3256 07-09-2019 15:00:00 14.82 C 38.8000 %
3257 07-09-2019 16:00:00 15.26 C 37.0000 %
3258 07-09-2019 17:00:00 14.92 C 39.2000 %
3259 07-09-2019 18:00:00 13.86 C 43.8000 %
3260 07-09-2019 19:00:00 12.74 C 47.4000 %
3261 07-09-2019 20:00:00 11.94 C 50.8000 %
3262 07-09-2019 21:00:00 11.46 C 52.0000 %
3263 07-09-2019 22:00:00 11.4 C 52.0000 %
3264 07-09-2019 23:00:00 11.4 C 52.8000 %
3265 08-09-2019 00:00:00 11.4 C 54.4000 %
3266 08-09-2019 01:00:00 11.36 C 55.2000 %
3267 08-09-2019 02:00:00 10.72 C 59.4000 %
3268 08-09-2019 03:00:00 11.04 C 63.8000 %
3269 08-09-2019 04:00:00 11.48 C 63.2000 %
3270 08-09-2019 05:00:00 11.72 C 54.2000 %
3271 08-09-2019 06:00:00 11.9 C 50.0000 %
3272 08-09-2019 07:00:00 12.1 C 47.6000 %
3273 08-09-2019 08:00:00 12.2 C 46.4000 %
3274 08-09-2019 09:00:00 11.92 C 48.4000 %
3275 08-09-2019 10:00:00 12.1 C 50.4000 %
Sensor: Nr:Datum:Temp:Feuchte:
Aussen-T/F 3276 08-09-2019 11:00:00 12.28 C 51.0000 %
3277 08-09-2019 12:00:00 13.28 C 43.2000 %
3278 08-09-2019 13:00:00 17 C 29.2500 %
3279 08-09-2019 14:00:00 17.02 C 26.8000 %
3280 08-09-2019 15:00:00 18.78333 C 21.6667 %
3281 08-09-2019 16:00:00 15.16 C 36.4000 %
3282 08-09-2019 17:00:00 12.8 C 50.3333 %
3283 08-09-2019 18:00:00 12.36 C 50.0000 %
3284 08-09-2019 19:00:00 12.62 C 53.0000 %
3285 08-09-2019 20:00:00 12.15 C 49.6667 %
3286 08-09-2019 21:00:00 11.62 C 51.6000 %
3287 08-09-2019 22:00:00 11.46667 C 53.8333 %
3288 08-09-2019 23:00:00 11.38 C 56.4000 %
3289 09-09-2019 00:00:00 11.08333 C 61.6667 %
3290 09-09-2019 01:00:00 10.94 C 63.6000 %
3291 09-09-2019 02:00:00 10.95 C 62.8333 %
3292 09-09-2019 03:00:00 11 C 61.0000 %
3293 09-09-2019 04:00:00 10.94 C 58.6000 %
3294 09-09-2019 05:00:00 10.9 C 56.6667 %
3295 09-09-2019 06:00:00 10.9 C 55.0000 %
3296 09-09-2019 07:00:00 10.91667 C 56.5000 %
3297 09-09-2019 08:00:00 10.96 C 53.6000 %
3298 09-09-2019 09:00:00 11.85 C 44.8333 %
3299 09-09-2019 10:00:00 11.94 C 45.2000 %
3300 09-09-2019 11:00:00 13.55 C 36.1667 %
Sensor: Nr:Datum:Temp:Feuchte:
Aussen-T/F 3301 09-09-2019 12:00:00 14.3 C 31.6000 %
3302 09-09-2019 13:00:00 15.71667 C 27.1667 %
3303 09-09-2019 14:00:00 15.72 C 24.4000 %
3304 09-09-2019 15:00:00 16.06 C 24.8000 %
3305 09-09-2019 16:00:00 25.0375 C 29.5000 %
3306 09-09-2019 17:00:00 30.3 C 33.0000 %
3307 09-09-2019 18:00:00 18.9 C 22.6000 %
3308 09-09-2019 19:00:00 12.91667 C 20.0000 %
3309 09-09-2019 20:00:00 11.21667 C 20.0000 %
3310 09-09-2019 21:00:00 10.03333 C 20.0000 %
3311 09-09-2019 22:00:00 9.2 C 20.1667 %
3312 09-09-2019 23:00:00 8.5 C 24.3333 %
3313 10-09-2019 00:00:00 7.98333 C 25.5000 %
3314 10-09-2019 01:00:00 7.73333 C 26.1667 %
3315 10-09-2019 02:00:00 7.78333 C 26.8333 %
3316 10-09-2019 03:00:00 8.1 C 27.5000 %
3317 10-09-2019 04:00:00 8.2 C 28.0000 %
3318 10-09-2019 05:00:00 8 C 28.0000 %
3319 10-09-2019 06:00:00 7.8 C 27.6667 %
3320 10-09-2019 07:00:00 7.8 C 27.6667 %
3321 10-09-2019 08:00:00 7.98333 C 26.1667 %
3322 10-09-2019 09:00:00 8.73333 C 24.1667 %
3323 10-09-2019 10:00:00 10.13333 C 20.1667 %
3324 10-09-2019 11:00:00 10.48333 C 20.0000 %
3325 10-09-2019 12:00:00 12.45 C 20.0000 %
Sensor: Nr:Datum:Temp:Feuchte:
Aussen-T/F 3326 10-09-2019 13:00:00 15.11667 C 20.0000 %
3327 10-09-2019 14:00:00 20.85 C 20.0000 %
3328 10-09-2019 15:00:00 26.2 C 20.0000 %
3329 10-09-2019 16:00:00 24.08333 C 20.0000 %
3330 10-09-2019 17:00:00 18.5 C 20.0000 %
3331 10-09-2019 18:00:00 17.53333 C 20.0000 %
3332 10-09-2019 19:00:00 14.95 C 20.0000 %
3333 10-09-2019 20:00:00 12.78333 C 20.0000 %
3334 10-09-2019 21:00:00 10.9 C 20.0000 %
3335 10-09-2019 22:00:00 9.76667 C 20.0000 %
3336 10-09-2019 23:00:00 9.05 C 20.0000 %
3337 11-09-2019 00:00:00 8.7 C 20.0000 %
3338 11-09-2019 01:00:00 7.85 C 20.0000 %
3339 11-09-2019 02:00:00 7.35 C 20.0000 %
3340 11-09-2019 03:00:00 6.98333 C 20.8333 %
3341 11-09-2019 04:00:00 6.5 C 23.3333 %
3342 11-09-2019 05:00:00 6.35 C 25.0000 %
3343 11-09-2019 06:00:00 6.03333 C 25.0000 %
3344 11-09-2019 07:00:00 6.1 C 25.1667 %
3345 11-09-2019 08:00:00 8.46667 C 21.0000 %
3346 11-09-2019 09:00:00 9.86667 C 20.0000 %
3347 11-09-2019 10:00:00 11.08333 C 20.0000 %
3348 11-09-2019 11:00:00 13.96667 C 20.0000 %
3349 11-09-2019 12:00:00 18.01667 C 20.0000 %
3350 11-09-2019 13:00:00 20.46667 C 20.0000 %
Sensor: Nr:Datum:Temp:Feuchte:
Aussen-T/F 3351 11-09-2019 14:00:00 22.4 C 20.0000 %
3352 11-09-2019 15:00:00 21.43333 C 20.0000 %
3353 11-09-2019 16:00:00 19.91667 C 20.0000 %
3354 11-09-2019 17:00:00 19.26667 C 20.0000 %
3355 11-09-2019 18:00:00 18.2 C 20.0000 %
3356 11-09-2019 19:00:00 17.31667 C 20.0000 %
3357 11-09-2019 20:00:00 16.38333 C 20.0000 %
3358 11-09-2019 21:00:00 16.35 C 20.0000 %
3359 11-09-2019 22:00:00 16.2 C 20.0000 %
3360 11-09-2019 23:00:00 15.33333 C 20.0000 %
3361 12-09-2019 00:00:00 15.96667 C 20.0000 %
3362 12-09-2019 01:00:00 16.4 C 20.0000 %
3363 12-09-2019 02:00:00 17.78333 C 20.0000 %
3364 12-09-2019 03:00:00 17.5 C 20.0000 %
3365 12-09-2019 04:00:00 17.2 C 20.0000 %
3366 12-09-2019 05:00:00 17.18333 C 20.0000 %
3367 12-09-2019 06:00:00 16.68333 C 20.0000 %
3368 12-09-2019 07:00:00 16.16667 C 20.0000 %
3369 12-09-2019 08:00:00 17.08333 C 20.0000 %
3370 12-09-2019 09:00:00 17.56667 C 20.0000 %
3371 12-09-2019 10:00:00 18.45 C 20.0000 %
3372 12-09-2019 11:00:00 20.03333 C 20.0000 %
3373 12-09-2019 12:00:00 20.8 C 20.0000 %
3374 12-09-2019 13:00:00 21.58333 C 20.0000 %
3375 12-09-2019 14:00:00 21.28333 C 20.0000 %
Sensor: Nr:Datum:Temp:Feuchte:
Aussen-T/F 3376 12-09-2019 15:00:00 24.55 C 20.0000 %
3377 12-09-2019 16:00:00 25.35 C 20.0000 %
3378 12-09-2019 17:00:00 26.23333 C 20.0000 %
3379 12-09-2019 18:00:00 23.53333 C 20.0000 %
3380 12-09-2019 19:00:00 20.8 C 20.0000 %
3381 12-09-2019 20:00:00 18.53333 C 20.0000 %
3382 12-09-2019 21:00:00 18.63333 C 20.0000 %
3383 12-09-2019 22:00:00 18.25 C 20.0000 %
3384 12-09-2019 23:00:00 16.23333 C 20.0000 %
3385 13-09-2019 00:00:00 15.36667 C 20.0000 %
3386 13-09-2019 01:00:00 15.4 C 20.0000 %
3387 13-09-2019 02:00:00 15.03333 C 20.0000 %
3388 13-09-2019 03:00:00 15.06667 C 20.0000 %
3389 13-09-2019 04:00:00 15.78333 C 20.0000 %
3390 13-09-2019 05:00:00 16.26667 C 20.0000 %
3391 13-09-2019 06:00:00 16.28333 C 20.0000 %
3392 13-09-2019 07:00:00 16.51667 C 20.0000 %
3393 13-09-2019 08:00:00 16.95 C 20.0000 %
3394 13-09-2019 09:00:00 18.03333 C 20.0000 %
3395 13-09-2019 10:00:00 19.55 C 20.0000 %
3396 13-09-2019 11:00:00 20.26667 C 20.0000 %
3397 13-09-2019 12:00:00 22.25 C 20.0000 %
3398 13-09-2019 13:00:00 21.55 C 20.0000 %
3399 13-09-2019 14:00:00 22.01667 C 20.0000 %
3400 13-09-2019 15:00:00 21.61667 C 20.0000 %
Sensor: Nr:Datum:Temp:Feuchte:
Aussen-T/F 3401 13-09-2019 16:00:00 19.15 C 20.0000 %
3402 13-09-2019 17:00:00 19.58333 C 20.0000 %
3403 13-09-2019 18:00:00 19.93333 C 20.0000 %
3404 13-09-2019 19:00:00 18 C 20.0000 %
3405 13-09-2019 20:00:00 17.15 C 20.0000 %
3406 13-09-2019 21:00:00 16.48333 C 20.0000 %
3407 13-09-2019 22:00:00 15.66667 C 20.3333 %
3408 13-09-2019 23:00:00 14.91667 C 22.3333 %
3409 14-09-2019 00:00:00 14.83333 C 22.5000 %
3410 14-09-2019 01:00:00 13.85 C 23.6667 %
3411 14-09-2019 02:00:00 12.66667 C 24.6667 %
3412 14-09-2019 03:00:00 11.93333 C 25.6667 %
3413 14-09-2019 04:00:00 11.23333 C 26.3333 %
3414 14-09-2019 05:00:00 10.58333 C 26.6667 %
3415 14-09-2019 06:00:00 10.15 C 26.5000 %
3416 14-09-2019 07:00:00 9.78333 C 27.6667 %
3417 14-09-2019 08:00:00 10.03333 C 26.6667 %
3418 14-09-2019 09:00:00 10.88333 C 25.6667 %
3419 14-09-2019 10:00:00 12.46667 C 22.5000 %
3420 14-09-2019 11:00:00 14.13333 C 20.0000 %
3421 14-09-2019 12:00:00 16.11667 C 20.0000 %
3422 14-09-2019 13:00:00 18.16667 C 20.0000 %
3423 14-09-2019 14:00:00 23.15 C 20.0000 %
3424 14-09-2019 15:00:00 28.55 C 20.0000 %
3425 14-09-2019 16:00:00 29.58333 C 20.0000 %
Sensor: Nr:Datum:Temp:Feuchte:
Aussen-T/F 3426 14-09-2019 17:00:00 27.55 C 20.0000 %
3427 14-09-2019 18:00:00 22.16667 C 20.0000 %
3428 14-09-2019 19:00:00 18.38333 C 20.0000 %
3429 14-09-2019 20:00:00 16.31667 C 20.0000 %
3430 14-09-2019 21:00:00 14.98333 C 20.0000 %
3431 14-09-2019 22:00:00 12.98333 C 20.0000 %
3432 14-09-2019 23:00:00 11.9 C 20.0000 %
3433 15-09-2019 00:00:00 10.93333 C 20.0000 %
3434 15-09-2019 01:00:00 10.16667 C 20.0000 %
3435 15-09-2019 02:00:00 9.9 C 20.0000 %
3436 15-09-2019 03:00:00 9.61667 C 20.8333 %
3437 15-09-2019 04:00:00 9.3 C 21.0000 %
3438 15-09-2019 05:00:00 8.76667 C 24.6667 %
3439 15-09-2019 06:00:00 8.23333 C 25.3333 %
3440 15-09-2019 07:00:00 8.4 C 26.0000 %
3441 15-09-2019 08:00:00 9.01667 C 25.5000 %
3442 15-09-2019 09:00:00 9.91667 C 24.3333 %
3443 15-09-2019 10:00:00 11.53333 C 23.0000 %
3444 15-09-2019 11:00:00 14.38333 C 20.0000 %
3445 15-09-2019 12:00:00 17.21667 C 20.0000 %
3446 15-09-2019 13:00:00 20.66667 C 20.0000 %
3447 15-09-2019 14:00:00 25.71667 C 20.0000 %
3448 15-09-2019 15:00:00 30.01667 C 20.0000 %
3449 15-09-2019 16:00:00 29.35 C 20.0000 %
3450 15-09-2019 17:00:00 28.58333 C 20.0000 %
Sensor: Nr:Datum:Temp:Feuchte:
Aussen-T/F 3451 15-09-2019 18:00:00 24.73333 C 20.0000 %
3452 15-09-2019 19:00:00 20.05 C 20.0000 %
3453 15-09-2019 20:00:00 17.53333 C 20.0000 %
3454 15-09-2019 21:00:00 15.83333 C 20.0000 %
3455 15-09-2019 22:00:00 13.63333 C 20.0000 %
3456 15-09-2019 23:00:00 12.26667 C 20.0000 %
3457 16-09-2019 00:00:00 12.15 C 20.0000 %
3458 16-09-2019 01:00:00 11.83333 C 20.0000 %
3459 16-09-2019 02:00:00 11.06667 C 20.0000 %
3460 16-09-2019 03:00:00 10.81667 C 20.0000 %
3461 16-09-2019 04:00:00 11.48333 C 20.0000 %
3462 16-09-2019 05:00:00 11.16667 C 20.0000 %
3463 16-09-2019 06:00:00 11.03333 C 20.0000 %
3464 16-09-2019 07:00:00 11.33333 C 20.0000 %
3465 16-09-2019 08:00:00 12.5 C 20.0000 %
3466 16-09-2019 09:00:00 14.03333 C 20.0000 %
3467 16-09-2019 10:00:00 16.11667 C 20.0000 %
3468 16-09-2019 11:00:00 19 C 20.0000 %
3469 16-09-2019 12:00:00 20.83333 C 20.0000 %
3470 16-09-2019 13:00:00 22.28333 C 20.0000 %
3471 16-09-2019 14:00:00 22.86667 C 20.0000 %
3472 16-09-2019 15:00:00 22.45 C 20.0000 %
3473 16-09-2019 16:00:00 22.66667 C 20.0000 %
3474 16-09-2019 17:00:00 21.93333 C 20.0000 %
3475 16-09-2019 18:00:00 20.5 C 20.0000 %
Sensor: Nr:Datum:Temp:Feuchte:
Aussen-T/F 3476 16-09-2019 19:00:00 19.03333 C 20.0000 %
3477 16-09-2019 20:00:00 16.53333 C 20.0000 %
3478 16-09-2019 21:00:00 16.46667 C 20.0000 %
3479 16-09-2019 22:00:00 16.13333 C 20.0000 %
3480 16-09-2019 23:00:00 14.9 C 20.0000 %
3481 17-09-2019 00:00:00 14.78333 C 20.0000 %
3482 17-09-2019 01:00:00 14.58333 C 20.0000 %
3483 17-09-2019 02:00:00 14.45 C 20.0000 %
3484 17-09-2019 03:00:00 14.33333 C 20.0000 %
3485 17-09-2019 04:00:00 14.1 C 20.0000 %
3486 17-09-2019 05:00:00 14 C 20.0000 %
3487 17-09-2019 06:00:00 13.96667 C 20.0000 %
3488 17-09-2019 07:00:00 13.85 C 20.0000 %
3489 17-09-2019 08:00:00 13.75 C 20.0000 %
3490 17-09-2019 09:00:00 13.78333 C 20.0000 %
3491 17-09-2019 10:00:00 15.28333 C 20.0000 %
3492 17-09-2019 11:00:00 16.25 C 20.0000 %
3493 17-09-2019 12:00:00 16.56667 C 20.0000 %
3494 17-09-2019 13:00:00 17.1 C 20.0000 %
3495 17-09-2019 14:00:00 19.23333 C 20.0000 %
3496 17-09-2019 15:00:00 20.15 C 20.0000 %
3497 17-09-2019 16:00:00 21 C 20.0000 %
3498 17-09-2019 17:00:00 19.2 C 20.0000 %
3499 17-09-2019 18:00:00 18.2 C 20.0000 %
3500 17-09-2019 19:00:00 17.03333 C 20.0000 %
Sensor: Nr:Datum:Temp:Feuchte:
Aussen-T/F 3501 17-09-2019 20:00:00 16.56667 C 20.0000 %
3502 17-09-2019 21:00:00 15.73333 C 20.0000 %
3503 17-09-2019 22:00:00 14.31667 C 20.0000 %
3504 17-09-2019 23:00:00 12.81667 C 20.0000 %
3505 18-09-2019 00:00:00 10.93333 C 20.0000 %
3506 18-09-2019 01:00:00 10.06667 C 20.0000 %
3507 18-09-2019 02:00:00 8.53333 C 20.0000 %
3508 18-09-2019 03:00:00 7.41667 C 20.0000 %
3509 18-09-2019 04:00:00 6.7 C 20.0000 %
3510 18-09-2019 05:00:00 5.98333 C 20.0000 %
3511 18-09-2019 06:00:00 5.36667 C 22.0000 %
3512 18-09-2019 07:00:00 5.28333 C 24.0000 %
3513 18-09-2019 08:00:00 5.88333 C 25.0000 %
3514 18-09-2019 09:00:00 6.86667 C 25.0000 %
3515 18-09-2019 10:00:00 8.58333 C 23.0000 %
3516 18-09-2019 11:00:00 11.31667 C 20.0000 %
3517 18-09-2019 12:00:00 14.06667 C 20.0000 %
3518 18-09-2019 13:00:00 15.38333 C 20.0000 %
3519 18-09-2019 14:00:00 18.96667 C 20.0000 %
3520 18-09-2019 15:00:00 20.95 C 20.0000 %
3521 18-09-2019 16:00:00 20.23333 C 20.0000 %
3522 18-09-2019 17:00:00 20.75 C 20.0000 %
3523 18-09-2019 18:00:00 17.11667 C 20.0000 %
3524 18-09-2019 19:00:00 14.2 C 20.0000 %
3525 18-09-2019 20:00:00 11.61667 C 20.0000 %
Sensor: Nr:Datum:Temp:Feuchte:
Aussen-T/F 3526 18-09-2019 21:00:00 10.66667 C 20.0000 %
3527 18-09-2019 22:00:00 9.6 C 20.0000 %
3528 18-09-2019 23:00:00 8.88333 C 20.0000 %
3529 19-09-2019 00:00:00 8.43333 C 20.0000 %
3530 19-09-2019 01:00:00 7.28333 C 20.0000 %
3531 19-09-2019 02:00:00 6.33333 C 20.0000 %
3532 19-09-2019 03:00:00 5.75 C 20.8333 %
3533 19-09-2019 04:00:00 5.25 C 23.3333 %
3534 19-09-2019 05:00:00 4.76667 C 25.8333 %
3535 19-09-2019 06:00:00 4.46667 C 26.8333 %
3536 19-09-2019 07:00:00 4.46667 C 27.8333 %
3537 19-09-2019 08:00:00 4.95 C 27.1667 %
3538 19-09-2019 09:00:00 6.06667 C 28.0000 %
3539 19-09-2019 10:00:00 7.83333 C 23.8333 %
3540 19-09-2019 11:00:00 10.45 C 20.0000 %
3541 19-09-2019 12:00:00 13.9 C 20.0000 %
3542 19-09-2019 13:00:00 14.6 C 20.0000 %
3543 19-09-2019 14:00:00 18.11667 C 20.0000 %
3544 19-09-2019 15:00:00 21.33333 C 20.0000 %
3545 19-09-2019 16:00:00 21.76667 C 20.0000 %
3546 19-09-2019 17:00:00 19.43333 C 20.0000 %
3547 19-09-2019 18:00:00 17.01667 C 20.0000 %
3548 19-09-2019 19:00:00 13.7 C 20.0000 %
3549 19-09-2019 20:00:00 10.96667 C 20.0000 %
3550 19-09-2019 21:00:00 9.53333 C 20.0000 %
Sensor: Nr:Datum:Temp:Feuchte:
Aussen-T/F 3551 19-09-2019 22:00:00 8.7 C 20.0000 %
3552 19-09-2019 23:00:00 7.68333 C 20.0000 %
3553 20-09-2019 00:00:00 6.85 C 20.0000 %
3554 20-09-2019 01:00:00 6.21667 C 20.0000 %
3555 20-09-2019 02:00:00 5.46667 C 20.0000 %
3556 20-09-2019 03:00:00 4.98333 C 20.0000 %
3557 20-09-2019 04:00:00 4.35 C 20.0000 %
3558 20-09-2019 05:00:00 3.98333 C 20.8333 %
3559 20-09-2019 06:00:00 3.7 C 24.0000 %
3560 20-09-2019 07:00:00 3.41667 C 25.3333 %
3561 20-09-2019 08:00:00 4.16667 C 25.5000 %
3562 20-09-2019 09:00:00 5.41667 C 24.6667 %
3563 20-09-2019 10:00:00 7.86667 C 20.0000 %
3564 20-09-2019 11:00:00 10.55 C 20.0000 %
3565 20-09-2019 12:00:00 13.71667 C 20.0000 %
3566 20-09-2019 13:00:00 15.5 C 20.0000 %
3567 20-09-2019 14:00:00 20.5 C 20.0000 %
3568 20-09-2019 15:00:00 22.55 C 20.0000 %
3569 20-09-2019 16:00:00 24.55 C 20.0000 %
3570 20-09-2019 17:00:00 22.78333 C 20.0000 %
3571 20-09-2019 18:00:00 18.9 C 20.0000 %
3572 20-09-2019 19:00:00 14.33333 C 20.0000 %
3573 20-09-2019 20:00:00 12.65 C 20.0000 %
3574 20-09-2019 21:00:00 10.68333 C 20.0000 %
3575 20-09-2019 22:00:00 8.66667 C 20.0000 %
Sensor: Nr:Datum:Temp:Feuchte:
Aussen-T/F 3576 20-09-2019 23:00:00 7.51667 C 20.0000 %
3577 21-09-2019 00:00:00 6.73333 C 20.0000 %
3578 21-09-2019 01:00:00 6.06667 C 20.0000 %
3579 21-09-2019 02:00:00 5.41667 C 20.0000 %
3580 21-09-2019 03:00:00 4.98333 C 20.0000 %
3581 21-09-2019 04:00:00 4.73333 C 20.0000 %
3582 21-09-2019 05:00:00 4.45 C 20.1667 %
3583 21-09-2019 06:00:00 3.95 C 22.3333 %
3584 21-09-2019 07:00:00 3.88333 C 25.0000 %
3585 21-09-2019 08:00:00 4.13333 C 25.0000 %
3586 21-09-2019 09:00:00 5.66667 C 23.3333 %
3587 21-09-2019 10:00:00 8.86667 C 20.0000 %
3588 21-09-2019 11:00:00 12.1 C 20.0000 %
3589 21-09-2019 12:00:00 14.98333 C 20.0000 %
3590 21-09-2019 13:00:00 18.3 C 20.0000 %
3591 21-09-2019 14:00:00 23.76667 C 20.0000 %
3592 21-09-2019 15:00:00 27.33333 C 20.0000 %
3593 21-09-2019 16:00:00 30.03333 C 20.0000 %
3594 21-09-2019 17:00:00 27.15 C 20.0000 %
3595 21-09-2019 18:00:00 21.03333 C 20.0000 %
3596 21-09-2019 19:00:00 16.65 C 20.0000 %
3597 21-09-2019 20:00:00 14.88333 C 20.0000 %
3598 21-09-2019 21:00:00 12.65 C 20.0000 %
3599 21-09-2019 22:00:00 11.11667 C 20.0000 %
3600 21-09-2019 23:00:00 9.98333 C 20.0000 %
Sensor: Nr:Datum:Temp:Feuchte:
Aussen-T/F 3601 22-09-2019 00:00:00 9.06667 C 20.0000 %
3602 22-09-2019 01:00:00 8.33333 C 20.0000 %
3603 22-09-2019 02:00:00 7.51667 C 20.0000 %
3604 22-09-2019 03:00:00 7 C 20.0000 %
3605 22-09-2019 04:00:00 6.46667 C 20.0000 %
3606 22-09-2019 05:00:00 6.31667 C 22.0000 %
3607 22-09-2019 06:00:00 6.35 C 24.0000 %
3608 22-09-2019 07:00:00 6.48333 C 25.0000 %
3609 22-09-2019 08:00:00 7.3 C 24.6667 %
3610 22-09-2019 09:00:00 8.78333 C 22.3333 %
3611 22-09-2019 10:00:00 12.16667 C 20.0000 %
3612 22-09-2019 11:00:00 15.93333 C 20.0000 %
3613 22-09-2019 12:00:00 18.3 C 20.0000 %
3614 22-09-2019 13:00:00 22.51667 C 20.0000 %
3615 22-09-2019 14:00:00 26.23333 C 20.0000 %
3616 22-09-2019 15:00:00 25.73333 C 20.0000 %
3617 22-09-2019 16:00:00 24.73333 C 20.0000 %
3618 22-09-2019 17:00:00 22.66667 C 20.0000 %
3619 22-09-2019 18:00:00 21.16667 C 20.0000 %
3620 22-09-2019 19:00:00 19.36667 C 20.0000 %
3621 22-09-2019 20:00:00 19 C 20.0000 %
3622 22-09-2019 21:00:00 18.05 C 20.0000 %
3623 22-09-2019 22:00:00 17.83333 C 20.0000 %
3624 22-09-2019 23:00:00 17.53333 C 20.0000 %
3625 23-09-2019 00:00:00 17.9 C 20.0000 %
Sensor: Nr:Datum:Temp:Feuchte:
Aussen-T/F 3626 23-09-2019 01:00:00 18.4 C 20.0000 %
3627 23-09-2019 02:00:00 18.03333 C 20.0000 %
3628 23-09-2019 03:00:00 16.81667 C 20.0000 %
3629 23-09-2019 04:00:00 15.21667 C 21.5000 %
3630 23-09-2019 05:00:00 14.4 C 24.1667 %
3631 23-09-2019 06:00:00 13.9 C 26.8333 %
3632 23-09-2019 07:00:00 13.78333 C 29.8333 %
3633 23-09-2019 08:00:00 13.9 C 30.0000 %
3634 23-09-2019 09:00:00 14.76667 C 27.8333 %
3635 23-09-2019 10:00:00 16.33333 C 22.1667 %
3636 23-09-2019 11:00:00 16.53333 C 21.5000 %
3637 23-09-2019 12:00:00 17.63333 C 20.1667 %
3638 23-09-2019 13:00:00 19 C 20.0000 %
3639 23-09-2019 14:00:00 21.11667 C 20.0000 %
3640 23-09-2019 15:00:00 20.9 C 20.0000 %
3641 23-09-2019 16:00:00 21.85 C 20.0000 %
3642 23-09-2019 17:00:00 21.03333 C 20.0000 %
3643 23-09-2019 18:00:00 17.65 C 20.0000 %
3644 23-09-2019 19:00:00 15.68333 C 20.0000 %
3645 23-09-2019 20:00:00 13.98333 C 20.0000 %
3646 23-09-2019 21:00:00 13.66667 C 22.0000 %
3647 23-09-2019 22:00:00 13.9 C 22.6667 %
3648 23-09-2019 23:00:00 14.1 C 23.0000 %
3649 24-09-2019 00:00:00 14.13333 C 23.0000 %
3650 24-09-2019 01:00:00 13.16667 C 24.6667 %
Sensor: Nr:Datum:Temp:Feuchte:
Aussen-T/F 3651 24-09-2019 02:00:00 11.81667 C 28.5000 %
3652 24-09-2019 03:00:00 11.28333 C 29.5000 %
3653 24-09-2019 04:00:00 10.78333 C 30.0000 %
3654 24-09-2019 05:00:00 9.9 C 30.5000 %
3655 24-09-2019 06:00:00 9.43333 C 31.6667 %
3656 24-09-2019 07:00:00 9.41667 C 32.3333 %
3657 24-09-2019 08:00:00 10.71667 C 32.1667 %
3658 24-09-2019 09:00:00 11.55 C 29.1667 %
3659 24-09-2019 10:00:00 13.43333 C 25.0000 %
3660 24-09-2019 11:00:00 16.36667 C 20.5000 %
3661 24-09-2019 12:00:00 18.86667 C 20.0000 %
3662 24-09-2019 13:00:00 19.48333 C 20.0000 %
3663 24-09-2019 14:00:00 19.58333 C 20.0000 %
3664 24-09-2019 15:00:00 18.51667 C 20.0000 %
3665 24-09-2019 16:00:00 16.33333 C 21.5000 %
3666 24-09-2019 17:00:00 16.28333 C 23.5000 %
3667 24-09-2019 18:00:00 15.33333 C 27.0000 %
3668 24-09-2019 19:00:00 14.35 C 29.0000 %
3669 24-09-2019 20:00:00 13.58333 C 30.0000 %
3670 24-09-2019 21:00:00 13.36667 C 30.0000 %
3671 24-09-2019 22:00:00 13.4 C 30.1667 %
3672 24-09-2019 23:00:00 13.53333 C 31.0000 %
3673 25-09-2019 00:00:00 13.68333 C 31.0000 %
3674 25-09-2019 01:00:00 13.9 C 30.3333 %
3675 25-09-2019 02:00:00 14.51667 C 26.3333 %
Sensor: Nr:Datum:Temp:Feuchte:
Aussen-T/F 3676 25-09-2019 03:00:00 14.41667 C 28.0000 %
3677 25-09-2019 04:00:00 14.15 C 30.0000 %
3678 25-09-2019 05:00:00 13.6 C 28.5000 %
3679 25-09-2019 06:00:00 13.35 C 28.8333 %
3680 25-09-2019 07:00:00 13.51667 C 27.6667 %
3681 25-09-2019 08:00:00 13.61667 C 29.1667 %
3682 25-09-2019 09:00:00 14.35 C 26.6667 %
3683 25-09-2019 10:00:00 15.5 C 22.3333 %
3684 25-09-2019 11:00:00 16.73333 C 20.0000 %
3685 25-09-2019 12:00:00 17.53333 C 20.0000 %
3686 25-09-2019 13:00:00 18.13333 C 20.0000 %
3687 25-09-2019 14:00:00 17.26667 C 20.0000 %
3688 25-09-2019 15:00:00 17 C 20.5000 %
3689 25-09-2019 16:00:00 19.5 C 20.0000 %
3690 25-09-2019 17:00:00 18.01667 C 20.0000 %
3691 25-09-2019 18:00:00 16.25 C 20.0000 %
3692 25-09-2019 19:00:00 15.31667 C 21.1667 %
3693 25-09-2019 20:00:00 14.5 C 25.8333 %
3694 25-09-2019 21:00:00 14.4 C 26.0000 %
3695 25-09-2019 22:00:00 14.2 C 28.6667 %
3696 25-09-2019 23:00:00 14.18333 C 30.0000 %
3697 26-09-2019 00:00:00 14.11667 C 29.8333 %
3698 26-09-2019 01:00:00 13.75 C 30.3333 %
3699 26-09-2019 02:00:00 13.68333 C 31.0000 %
3700 26-09-2019 03:00:00 12.93333 C 31.3333 %
Sensor: Nr:Datum:Temp:Feuchte:
Aussen-T/F 3701 26-09-2019 04:00:00 12.73333 C 32.5000 %
3702 26-09-2019 05:00:00 13.5 C 31.5000 %
3703 26-09-2019 06:00:00 13.96667 C 29.5000 %
3704 26-09-2019 07:00:00 14.26667 C 28.8333 %
3705 26-09-2019 08:00:00 14.6 C 27.8333 %
3706 26-09-2019 09:00:00 14.93333 C 27.0000 %
3707 26-09-2019 10:00:00 15.98333 C 26.1667 %
3708 26-09-2019 11:00:00 16.63333 C 25.5000 %
3709 26-09-2019 12:00:00 17.7 C 23.5000 %
3710 26-09-2019 13:00:00 17.26667 C 25.0000 %
3711 26-09-2019 14:00:00 17.71667 C 24.3333 %
3712 26-09-2019 15:00:00 18.56667 C 22.8333 %
3713 26-09-2019 16:00:00 19.03333 C 20.8333 %
3714 26-09-2019 17:00:00 19.08333 C 20.3333 %
3715 26-09-2019 18:00:00 18.48333 C 22.3333 %
3716 26-09-2019 19:00:00 17.41667 C 25.3333 %
3717 26-09-2019 20:00:00 17.3 C 23.3333 %
3718 26-09-2019 21:00:00 17.33333 C 22.6667 %
3719 26-09-2019 22:00:00 17.78333 C 21.3333 %
3720 26-09-2019 23:00:00 17.83333 C 20.8333 %
3721 27-09-2019 00:00:00 17.96667 C 20.0000 %
3722 27-09-2019 01:00:00 18.15 C 20.0000 %
3723 27-09-2019 02:00:00 17.51667 C 20.5000 %
3724 27-09-2019 03:00:00 16.01667 C 25.1667 %
3725 27-09-2019 04:00:00 15.86667 C 26.0000 %
Sensor: Nr:Datum:Temp:Feuchte:
Aussen-T/F 3726 27-09-2019 05:00:00 15.53333 C 27.3333 %
3727 27-09-2019 06:00:00 15 C 30.8333 %
3728 27-09-2019 07:00:00 13.83333 C 29.3333 %
3729 27-09-2019 08:00:00 13.56667 C 29.5000 %
3730 27-09-2019 09:00:00 13.83333 C 27.0000 %
3731 27-09-2019 10:00:00 14.95 C 25.3333 %
3732 27-09-2019 11:00:00 15.6 C 23.8333 %
3733 27-09-2019 12:00:00 16.51667 C 21.3333 %
3734 27-09-2019 13:00:00 17.73333 C 20.0000 %
3735 27-09-2019 14:00:00 19.26667 C 20.0000 %
3736 27-09-2019 15:00:00 18.45 C 20.0000 %
3737 27-09-2019 16:00:00 21.21667 C 20.0000 %
3738 27-09-2019 17:00:00 20.26667 C 20.0000 %
3739 27-09-2019 18:00:00 17.66667 C 20.0000 %
3740 27-09-2019 19:00:00 15.58333 C 20.0000 %
3741 27-09-2019 20:00:00 14.9 C 22.1667 %
3742 27-09-2019 21:00:00 13.86667 C 25.3333 %
3743 27-09-2019 22:00:00 13.36667 C 27.5000 %
3744 27-09-2019 23:00:00 12.93333 C 29.3333 %
3745 28-09-2019 00:00:00 12.23333 C 30.5000 %
3746 28-09-2019 01:00:00 12.75 C 29.3333 %
3747 28-09-2019 02:00:00 14.65 C 23.5000 %
3748 28-09-2019 03:00:00 14.51667 C 24.1667 %
3749 28-09-2019 04:00:00 13.86667 C 26.0000 %
3750 28-09-2019 05:00:00 14.1 C 25.0000 %
Sensor: Nr:Datum:Temp:Feuchte:
Aussen-T/F 3751 28-09-2019 06:00:00 14.08333 C 25.3333 %
3752 28-09-2019 07:00:00 13.46667 C 28.1667 %
3753 28-09-2019 08:00:00 13.63333 C 26.3333 %
3754 28-09-2019 09:00:00 14.43333 C 23.5000 %
3755 28-09-2019 10:00:00 15.73333 C 20.1667 %
3756 28-09-2019 11:00:00 16.63333 C 20.0000 %
3757 28-09-2019 12:00:00 17.36667 C 20.0000 %
3758 28-09-2019 13:00:00 17.65 C 20.0000 %
3759 28-09-2019 14:00:00 18.11667 C 20.0000 %
3760 28-09-2019 15:00:00 17.45 C 20.0000 %
3761 28-09-2019 16:00:00 19.06667 C 20.0000 %
3762 28-09-2019 17:00:00 18.35 C 20.0000 %
3763 28-09-2019 18:00:00 16.75 C 20.0000 %
3764 28-09-2019 19:00:00 15.7 C 20.0000 %
3765 28-09-2019 20:00:00 15.23333 C 20.0000 %
3766 28-09-2019 21:00:00 15.06667 C 20.0000 %
3767 28-09-2019 22:00:00 14.83333 C 20.0000 %
3768 28-09-2019 23:00:00 13.96667 C 20.0000 %
3769 29-09-2019 00:00:00 14.06667 C 20.0000 %
3770 29-09-2019 01:00:00 13.66667 C 20.5000 %
3771 29-09-2019 02:00:00 13.33333 C 23.0000 %
3772 29-09-2019 03:00:00 13.16667 C 24.6667 %
3773 29-09-2019 04:00:00 13.4 C 24.8333 %
3774 29-09-2019 05:00:00 13.65 C 23.0000 %
3775 29-09-2019 06:00:00 13.61667 C 21.3333 %
Sensor: Nr:Datum:Temp:Feuchte:
Aussen-T/F 3776 29-09-2019 07:00:00 13.8 C 21.0000 %
3777 29-09-2019 08:00:00 15.11667 C 20.0000 %
3778 29-09-2019 09:00:00 16.81667 C 20.0000 %
3779 29-09-2019 10:00:00 17.71667 C 20.0000 %
3780 29-09-2019 11:00:00 18.11667 C 20.0000 %
3781 29-09-2019 12:00:00 18.35 C 20.0000 %
3782 29-09-2019 13:00:00 18.33333 C 20.0000 %
3783 29-09-2019 14:00:00 18.91667 C 20.0000 %
3784 29-09-2019 15:00:00 18.51667 C 20.0000 %
3785 29-09-2019 16:00:00 16.8 C 20.0000 %
3786 29-09-2019 17:00:00 17.23333 C 20.0000 %
3787 29-09-2019 18:00:00 17.36667 C 20.0000 %
3788 29-09-2019 19:00:00 17.76667 C 20.0000 %
3789 29-09-2019 20:00:00 16.33333 C 24.5000 %
3790 29-09-2019 21:00:00 16.38333 C 26.3333 %
3791 29-09-2019 22:00:00 16.58333 C 25.6667 %
3792 29-09-2019 23:00:00 16.38333 C 25.0000 %
3793 30-09-2019 00:00:00 15.88333 C 20.6667 %
3794 30-09-2019 01:00:00 15.13333 C 21.5000 %
3795 30-09-2019 02:00:00 15.15 C 21.0000 %
3796 30-09-2019 03:00:00 15 C 22.0000 %
3797 30-09-2019 04:00:00 14.28333 C 25.0000 %
3798 30-09-2019 05:00:00 13.18333 C 26.6667 %
3799 30-09-2019 06:00:00 13.05 C 25.8333 %
3800 30-09-2019 07:00:00 13.21667 C 23.5000 %
Sensor: Nr:Datum:Temp:Feuchte:
Aussen-T/F 3801 30-09-2019 08:00:00 13.53333 C 20.6667 %
3802 30-09-2019 09:00:00 14.15 C 20.0000 %
3803 30-09-2019 10:00:00 14.61667 C 20.0000 %
3804 30-09-2019 11:00:00 15.41667 C 20.0000 %
3805 30-09-2019 12:00:00 16.01667 C 20.0000 %
3806 30-09-2019 13:00:00 16.93333 C 20.0000 %
3807 30-09-2019 14:00:00 17.75 C 20.0000 %
3808 30-09-2019 15:00:00 18.65 C 20.0000 %
3809 30-09-2019 16:00:00 21.2 C 20.0000 %
3810 30-09-2019 17:00:00 18.93333 C 20.0000 %
3811 30-09-2019 18:00:00 16.71667 C 20.0000 %
3812 30-09-2019 19:00:00 14.6 C 20.0000 %
3813 30-09-2019 20:00:00 14.61667 C 20.0000 %
3814 30-09-2019 21:00:00 14.7 C 20.0000 %
3815 30-09-2019 22:00:00 14.85 C 20.0000 %
3816 30-09-2019 23:00:00 13.98333 C 20.3333 %
3817 01-10-2019 00:00:00 14.06667 C 20.1667 %
3818 01-10-2019 01:00:00 13.7 C 20.6667 %
3819 01-10-2019 02:00:00 13.13333 C 22.6667 %
3820 01-10-2019 03:00:00 11.98333 C 26.1667 %
3821 01-10-2019 04:00:00 13.53333 C 22.6667 %
3822 01-10-2019 05:00:00 14.05 C 21.5000 %
3823 01-10-2019 06:00:00 14.93333 C 20.3333 %
3824 01-10-2019 07:00:00 15.28333 C 21.0000 %
3825 01-10-2019 08:00:00 15.38333 C 21.1667 %
Sensor: Nr:Datum:Temp:Feuchte:
Aussen-T/F 3826 01-10-2019 09:00:00 16.21667 C 20.3333 %
3827 01-10-2019 10:00:00 17.3 C 20.0000 %
3828 01-10-2019 11:00:00 17.7 C 20.0000 %
3829 01-10-2019 12:00:00 17.35 C 21.5000 %
3830 01-10-2019 13:00:00 18.93333 C 20.0000 %
3831 01-10-2019 14:00:00 18.95 C 20.0000 %
3832 01-10-2019 15:00:00 19.76667 C 20.0000 %
3833 01-10-2019 16:00:00 17.45 C 24.6667 %
3834 01-10-2019 17:00:00 16.98333 C 27.1667 %
3835 01-10-2019 18:00:00 16.21667 C 27.5000 %
3836 01-10-2019 19:00:00 15.63333 C 31.0000 %
3837 01-10-2019 20:00:00 15.5 C 31.1667 %
3838 01-10-2019 21:00:00 15.88333 C 27.0000 %
3839 01-10-2019 22:00:00 15.13333 C 29.5000 %
3840 01-10-2019 23:00:00 15.16667 C 27.6667 %
3841 02-10-2019 00:00:00 14.86667 C 28.8333 %
3842 02-10-2019 01:00:00 15.16667 C 26.1667 %
3843 02-10-2019 02:00:00 14.5 C 29.3333 %
3844 02-10-2019 03:00:00 14.98333 C 26.0000 %
3845 02-10-2019 04:00:00 14.95 C 25.5000 %
3846 02-10-2019 05:00:00 14.15 C 27.1667 %
3847 02-10-2019 06:00:00 12.81667 C 28.0000 %
3848 02-10-2019 07:00:00 11.01667 C 29.5000 %
3849 02-10-2019 08:00:00 10.1 C 29.8333 %
3850 02-10-2019 09:00:00 10.33333 C 26.6667 %
Sensor: Nr:Datum:Temp:Feuchte:
Aussen-T/F 3851 02-10-2019 10:00:00 11.11667 C 24.5000 %
3852 02-10-2019 11:00:00 11.56667 C 20.3333 %
3853 02-10-2019 12:00:00 12.25 C 20.0000 %
3854 02-10-2019 13:00:00 13.31667 C 20.0000 %
3855 02-10-2019 14:00:00 14.21667 C 20.0000 %
3856 02-10-2019 15:00:00 14.26667 C 20.0000 %
3857 02-10-2019 16:00:00 16.76667 C 20.0000 %
3858 02-10-2019 17:00:00 16.08333 C 20.0000 %
3859 02-10-2019 18:00:00 12.51667 C 20.0000 %
3860 02-10-2019 19:00:00 10.76667 C 20.0000 %
3861 02-10-2019 20:00:00 9.85 C 20.0000 %
3862 02-10-2019 21:00:00 9.38333 C 20.1667 %
3863 02-10-2019 22:00:00 8.26667 C 22.3333 %
3864 02-10-2019 23:00:00 8.56667 C 22.3333 %
3865 03-10-2019 00:00:00 9.01667 C 21.3333 %
3866 03-10-2019 01:00:00 8.9 C 22.3333 %
3867 03-10-2019 02:00:00 8.83333 C 22.8333 %
3868 03-10-2019 03:00:00 7.9 C 26.0000 %
3869 03-10-2019 04:00:00 7.36667 C 27.0000 %
3870 03-10-2019 05:00:00 7.73333 C 26.3333 %
3871 03-10-2019 06:00:00 6.71667 C 30.0000 %
3872 03-10-2019 07:00:00 6.91667 C 29.1667 %
3873 03-10-2019 08:00:00 7.85 C 26.5000 %
3874 03-10-2019 09:00:00 9.3 C 25.0000 %
3875 03-10-2019 10:00:00 10.41667 C 22.0000 %
Sensor: Nr:Datum:Temp:Feuchte:
Aussen-T/F 3876 03-10-2019 11:00:00 12.36667 C 20.0000 %
3877 03-10-2019 12:00:00 12.15 C 20.6667 %
3878 03-10-2019 13:00:00 11.18333 C 27.5000 %
3879 03-10-2019 14:00:00 10.93333 C 29.8333 %
3880 03-10-2019 15:00:00 11.56667 C 28.1667 %
3881 03-10-2019 16:00:00 11.96667 C 25.6667 %
3882 03-10-2019 17:00:00 11.21667 C 29.1667 %
3883 03-10-2019 18:00:00 10.13333 C 30.6667 %
3884 03-10-2019 19:00:00 9.31667 C 32.3333 %
3885 03-10-2019 20:00:00 8.78333 C 35.0000 %
3886 03-10-2019 21:00:00 8.36667 C 35.3333 %
3887 03-10-2019 22:00:00 7.88333 C 35.8333 %
3888 03-10-2019 23:00:00 7.73333 C 36.0000 %
3889 04-10-2019 00:00:00 7.58333 C 35.5000 %
3890 04-10-2019 01:00:00 7.75 C 36.0000 %
3891 04-10-2019 02:00:00 7.63333 C 35.6667 %
3892 04-10-2019 03:00:00 7.51667 C 35.6667 %
3893 04-10-2019 04:00:00 7.16667 C 35.6667 %
3894 04-10-2019 05:00:00 7.46667 C 35.8333 %
3895 04-10-2019 06:00:00 7.45 C 35.1667 %
3896 04-10-2019 07:00:00 7.76667 C 33.6667 %
3897 04-10-2019 08:00:00 8.18333 C 33.3333 %
3898 04-10-2019 09:00:00 8.36667 C 34.8333 %
3899 04-10-2019 10:00:00 8.93333 C 33.0000 %
3900 04-10-2019 11:00:00 9.75 C 30.8333 %
Sensor: Nr:Datum:Temp:Feuchte:
Aussen-T/F 3901 04-10-2019 12:00:00 10.76667 C 29.8333 %
3902 04-10-2019 13:00:00 11.71667 C 28.3333 %
3903 04-10-2019 14:00:00 13.83333 C 23.6667 %
3904 04-10-2019 15:00:00 13.93333 C 22.8333 %
3905 04-10-2019 16:00:00 13.41667 C 26.3333 %
3906 04-10-2019 17:00:00 12.4 C 31.3333 %
3907 04-10-2019 18:00:00 11.38333 C 32.6667 %
3908 04-10-2019 19:00:00 11.26667 C 33.5000 %
3909 04-10-2019 20:00:00 11.33333 C 31.3333 %
3910 04-10-2019 21:00:00 11.7 C 30.3333 %
3911 04-10-2019 22:00:00 11.61667 C 30.0000 %
3912 04-10-2019 23:00:00 11.95 C 28.8333 %
3913 05-10-2019 00:00:00 12.15 C 27.0000 %
3914 05-10-2019 01:00:00 11.88333 C 27.8333 %
3915 05-10-2019 02:00:00 12.23333 C 26.1667 %
3916 05-10-2019 03:00:00 11.46667 C 29.5000 %
3917 05-10-2019 04:00:00 10.61667 C 31.0000 %
3918 05-10-2019 05:00:00 9.85 C 31.3333 %
3919 05-10-2019 06:00:00 9.35 C 32.0000 %
3920 05-10-2019 07:00:00 9.33333 C 30.3333 %
3921 05-10-2019 08:00:00 9.38333 C 29.0000 %
3922 05-10-2019 09:00:00 10.05 C 26.8333 %
3923 05-10-2019 10:00:00 10.61667 C 25.5000 %
3924 05-10-2019 11:00:00 10.76667 C 20.8333 %
3925 05-10-2019 12:00:00 11.7 C 20.0000 %
Sensor: Nr:Datum:Temp:Feuchte:
Aussen-T/F 3926 05-10-2019 13:00:00 12.43333 C 20.0000 %
3927 05-10-2019 14:00:00 12.33333 C 20.0000 %
3928 05-10-2019 15:00:00 12.65 C 20.0000 %
3929 05-10-2019 16:00:00 12.06667 C 21.0000 %
3930 05-10-2019 17:00:00 11.6 C 21.5000 %
3931 05-10-2019 18:00:00 10.46667 C 24.8333 %
3932 05-10-2019 19:00:00 8.68333 C 26.0000 %
3933 05-10-2019 20:00:00 7.83333 C 26.8333 %
3934 05-10-2019 21:00:00 6.93333 C 31.5000 %
3935 05-10-2019 22:00:00 6.75 C 34.1667 %
3936 05-10-2019 23:00:00 6.76667 C 35.0000 %
3937 06-10-2019 00:00:00 6.43333 C 34.3333 %
3938 06-10-2019 01:00:00 5.85 C 35.6667 %
3939 06-10-2019 02:00:00 6.35 C 35.5000 %
3940 06-10-2019 03:00:00 6.75 C 35.0000 %
3941 06-10-2019 04:00:00 6.83333 C 34.3333 %
3942 06-10-2019 05:00:00 6.8 C 35.0000 %
3943 06-10-2019 06:00:00 7.11667 C 33.3333 %
3944 06-10-2019 07:00:00 7.36667 C 32.6667 %
3945 06-10-2019 08:00:00 7.61667 C 31.5000 %
3946 06-10-2019 09:00:00 8 C 32.8333 %
3947 06-10-2019 10:00:00 8.18333 C 31.0000 %
3948 06-10-2019 11:00:00 8.01667 C 33.6667 %
3949 06-10-2019 12:00:00 8.33333 C 33.3333 %
3950 06-10-2019 13:00:00 8.71667 C 33.0000 %
Sensor: Nr:Datum:Temp:Feuchte:
Aussen-T/F 3951 06-10-2019 14:00:00 8.91667 C 31.8333 %
3952 06-10-2019 15:00:00 9.03333 C 32.5000 %
3953 06-10-2019 16:00:00 9.1 C 32.1667 %
3954 06-10-2019 17:00:00 8.81667 C 35.3333 %
3955 06-10-2019 18:00:00 8.63333 C 36.0000 %
3956 06-10-2019 19:00:00 8.46667 C 36.0000 %
3957 06-10-2019 20:00:00 8.4 C 36.0000 %
3958 06-10-2019 21:00:00 8.38333 C 36.0000 %
3959 06-10-2019 22:00:00 8.16667 C 36.0000 %
3960 06-10-2019 23:00:00 8.3 C 36.0000 %
3961 07-10-2019 00:00:00 8.28333 C 36.0000 %
3962 07-10-2019 01:00:00 8.08333 C 36.0000 %
3963 07-10-2019 02:00:00 8.06667 C 36.0000 %
3964 07-10-2019 03:00:00 8.06667 C 35.3333 %
3965 07-10-2019 04:00:00 8.06667 C 36.0000 %
3966 07-10-2019 05:00:00 7.96667 C 35.8333 %
3967 07-10-2019 06:00:00 7.95 C 36.1667 %
3968 07-10-2019 07:00:00 8 C 36.3333 %
3969 07-10-2019 08:00:00 8.16667 C 37.0000 %
3970 07-10-2019 09:00:00 8.43333 C 35.3333 %
3971 07-10-2019 10:00:00 9.01667 C 31.3333 %
3972 07-10-2019 11:00:00 10.45 C 27.5000 %
3973 07-10-2019 12:00:00 11.36667 C 25.1667 %
3974 07-10-2019 13:00:00 11.21667 C 25.5000 %
3975 07-10-2019 14:00:00 12.2 C 23.0000 %
Sensor: Nr:Datum:Temp:Feuchte:
Aussen-T/F 3976 07-10-2019 15:00:00 12.65 C 22.3333 %
3977 07-10-2019 16:00:00 12.46667 C 23.5000 %
3978 07-10-2019 17:00:00 12 C 25.0000 %
3979 07-10-2019 18:00:00 11.11667 C 29.0000 %
3980 07-10-2019 19:00:00 10.18333 C 32.8333 %
3981 07-10-2019 20:00:00 10.18333 C 34.5000 %
3982 07-10-2019 21:00:00 10.46667 C 34.6667 %
3983 07-10-2019 22:00:00 10.4 C 35.6667 %
3984 07-10-2019 23:00:00 10.58333 C 35.1667 %
3985 08-10-2019 00:00:00 10.8 C 34.1667 %
3986 08-10-2019 01:00:00 11.31667 C 30.0000 %
3987 08-10-2019 02:00:00 11.18333 C 30.8333 %
3988 08-10-2019 03:00:00 11.3 C 31.1667 %
3989 08-10-2019 04:00:00 11.41667 C 30.5000 %
3990 08-10-2019 05:00:00 11.95 C 27.0000 %
3991 08-10-2019 06:00:00 11.18333 C 32.0000 %
3992 08-10-2019 07:00:00 11.01667 C 35.3333 %
3993 08-10-2019 08:00:00 11.3 C 33.0000 %
3994 08-10-2019 09:00:00 11.8 C 30.3333 %
3995 08-10-2019 10:00:00 12.23333 C 29.0000 %
3996 08-10-2019 11:00:00 13.53333 C 26.1667 %
3997 08-10-2019 12:00:00 13.75 C 25.8333 %
3998 08-10-2019 13:00:00 13.81667 C 26.1667 %
3999 08-10-2019 14:00:00 14.2 C 26.0000 %
4000 08-10-2019 15:00:00 13.78333 C 28.3333 %
Sensor: Nr:Datum:Temp:Feuchte:
Aussen-T/F 4001 08-10-2019 16:00:00 13.56667 C 30.0000 %
4002 08-10-2019 17:00:00 13.41667 C 31.8333 %
4003 08-10-2019 18:00:00 13.33333 C 32.8333 %
4004 08-10-2019 19:00:00 13.18333 C 34.8333 %
4005 08-10-2019 20:00:00 12.85 C 35.0000 %
4006 08-10-2019 21:00:00 12.58333 C 35.0000 %
4007 08-10-2019 22:00:00 12.06667 C 35.0000 %
4008 08-10-2019 23:00:00 11.01667 C 35.3333 %
4009 09-10-2019 00:00:00 9.91667 C 36.3333 %
4010 09-10-2019 01:00:00 9.8 C 36.8333 %
4011 09-10-2019 02:00:00 10.11667 C 35.6667 %
4012 09-10-2019 03:00:00 10.21667 C 35.8333 %
4013 09-10-2019 04:00:00 10.96667 C 31.0000 %
4014 09-10-2019 05:00:00 10.71667 C 32.3333 %
4015 09-10-2019 06:00:00 11.11667 C 29.8333 %
4016 09-10-2019 07:00:00 10.73333 C 30.0000 %
4017 09-10-2019 08:00:00 10.91667 C 29.5000 %
4018 09-10-2019 09:00:00 11.46667 C 28.0000 %
4019 09-10-2019 10:00:00 13.01667 C 23.6667 %
4020 09-10-2019 11:00:00 13.81667 C 21.5000 %
4021 09-10-2019 12:00:00 13.15 C 24.0000 %
4022 09-10-2019 13:00:00 13.21667 C 27.0000 %
4023 09-10-2019 14:00:00 11.83333 C 29.0000 %
4024 09-10-2019 15:00:00 12.28333 C 25.8333 %
4025 09-10-2019 16:00:00 13.55 C 20.3333 %
Sensor: Nr:Datum:Temp:Feuchte:
Aussen-T/F 4026 09-10-2019 17:00:00 13.7 C 20.0000 %
4027 09-10-2019 18:00:00 12.11667 C 22.8333 %
4028 09-10-2019 19:00:00 11.41667 C 25.3333 %
4029 09-10-2019 20:00:00 10.83333 C 25.8333 %
4030 09-10-2019 21:00:00 10.98333 C 25.6667 %
4031 09-10-2019 22:00:00 11.03333 C 24.6667 %
4032 09-10-2019 23:00:00 10.68333 C 24.8333 %
4033 10-10-2019 00:00:00 10.1 C 25.0000 %
4034 10-10-2019 01:00:00 9.9 C 26.6667 %
4035 10-10-2019 02:00:00 10.31667 C 26.0000 %
4036 10-10-2019 03:00:00 9.98333 C 29.3333 %
4037 10-10-2019 04:00:00 9.91667 C 30.1667 %
4038 10-10-2019 05:00:00 9.78333 C 31.6667 %
4039 10-10-2019 06:00:00 9.86667 C 30.8333 %
4040 10-10-2019 07:00:00 9.68333 C 29.6667 %
4041 10-10-2019 08:00:00 9.81667 C 27.8333 %
4042 10-10-2019 09:00:00 10.68333 C 26.3333 %
4043 10-10-2019 10:00:00 11.25 C 25.1667 %
4044 10-10-2019 11:00:00 12.43333 C 21.6667 %
4045 10-10-2019 12:00:00 13.68333 C 20.0000 %
4046 10-10-2019 13:00:00 14.68333 C 20.0000 %
4047 10-10-2019 14:00:00 14.8 C 20.0000 %
4048 10-10-2019 15:00:00 15.26667 C 20.0000 %
4049 10-10-2019 16:00:00 15.56667 C 20.3333 %
4050 10-10-2019 17:00:00 14.16667 C 20.0000 %
Sensor: Nr:Datum:Temp:Feuchte:
Aussen-T/F 4051 10-10-2019 18:00:00 12.71667 C 21.5000 %
4052 10-10-2019 19:00:00 11.38333 C 26.1667 %
4053 10-10-2019 20:00:00 11.75 C 25.5000 %
4054 10-10-2019 21:00:00 9.88333 C 32.0000 %
4055 10-10-2019 22:00:00 9.23333 C 36.3333 %
4056 10-10-2019 23:00:00 8.91667 C 37.0000 %
4057 11-10-2019 00:00:00 8.81667 C 37.0000 %
4058 11-10-2019 01:00:00 8.25 C 36.5000 %
4059 11-10-2019 02:00:00 8.01667 C 37.1667 %
4060 11-10-2019 03:00:00 8.65 C 36.1667 %
4061 11-10-2019 04:00:00 9.35 C 30.8333 %
4062 11-10-2019 05:00:00 9 C 31.5000 %
4063 11-10-2019 06:00:00 8.8 C 35.1667 %
4064 11-10-2019 07:00:00 9.61667 C 33.0000 %
4065 11-10-2019 08:00:00 11.03333 C 31.1667 %
4066 11-10-2019 09:00:00 12.51667 C 28.3333 %
4067 11-10-2019 10:00:00 13.5 C 26.3333 %
4068 11-10-2019 11:00:00 15.53333 C 21.5000 %
4069 11-10-2019 12:00:00 16.08333 C 20.0000 %
4070 11-10-2019 13:00:00 16.71667 C 20.0000 %
4071 11-10-2019 14:00:00 16.41667 C 20.0000 %
4072 11-10-2019 15:00:00 16.78333 C 20.0000 %
4073 11-10-2019 16:00:00 16.75 C 20.0000 %
4074 11-10-2019 17:00:00 16.85 C 20.0000 %
4075 11-10-2019 18:00:00 15.16667 C 22.3333 %
Sensor: Nr:Datum:Temp:Feuchte:
Aussen-T/F 4076 11-10-2019 19:00:00 13.35 C 28.5000 %
4077 11-10-2019 20:00:00 12.88333 C 30.3333 %
4078 11-10-2019 21:00:00 11.85 C 33.5000 %
4079 11-10-2019 22:00:00 11.18333 C 36.0000 %
4080 11-10-2019 23:00:00 10.83333 C 36.3333 %
4081 12-10-2019 00:00:00 10.2 C 36.8333 %
4082 12-10-2019 01:00:00 9.73333 C 37.0000 %
4083 12-10-2019 02:00:00 9.48333 C 37.0000 %
4084 12-10-2019 03:00:00 9.1 C 37.0000 %
4085 12-10-2019 04:00:00 9.21667 C 36.6667 %
4086 12-10-2019 05:00:00 8.56667 C 37.0000 %
4087 12-10-2019 06:00:00 8.05 C 37.0000 %
4088 12-10-2019 07:00:00 7.98333 C 37.0000 %
4089 12-10-2019 08:00:00 8.06667 C 37.0000 %
4090 12-10-2019 09:00:00 8.9 C 36.8333 %
4091 12-10-2019 10:00:00 11.83333 C 34.5000 %
4092 12-10-2019 11:00:00 14.78333 C 22.1667 %
4093 12-10-2019 12:00:00 16.08333 C 20.0000 %
4094 12-10-2019 13:00:00 19.11667 C 20.0000 %
4095 12-10-2019 14:00:00 20.65 C 20.0000 %
4096 12-10-2019 15:00:00 20.43333 C 20.0000 %
4097 12-10-2019 16:00:00 19.73333 C 20.0000 %
4098 12-10-2019 17:00:00 18.78333 C 20.0000 %
4099 12-10-2019 18:00:00 16.23333 C 21.3333 %
4100 12-10-2019 19:00:00 14.61667 C 25.6667 %
Sensor: Nr:Datum:Temp:Feuchte:
Aussen-T/F 4101 12-10-2019 20:00:00 13.91667 C 28.1667 %
4102 12-10-2019 21:00:00 14.1 C 29.3333 %
4103 12-10-2019 22:00:00 14.15 C 28.8333 %
4104 12-10-2019 23:00:00 13.33333 C 33.1667 %
4105 13-10-2019 00:00:00 12.71667 C 35.1667 %
4106 13-10-2019 01:00:00 12.21667 C 35.0000 %
4107 13-10-2019 02:00:00 12.85 C 35.5000 %
4108 13-10-2019 03:00:00 12.6 C 35.0000 %
4109 13-10-2019 04:00:00 12.13333 C 35.1667 %
4110 13-10-2019 05:00:00 12.98333 C 35.0000 %
4111 13-10-2019 06:00:00 13.1 C 35.0000 %
4112 13-10-2019 07:00:00 13.03333 C 35.0000 %
4113 13-10-2019 08:00:00 12.31667 C 35.0000 %
4114 13-10-2019 09:00:00 13.11667 C 34.5000 %
4115 13-10-2019 10:00:00 14.31667 C 33.5000 %
4116 13-10-2019 11:00:00 15.73333 C 31.3333 %
4117 13-10-2019 12:00:00 18.2 C 26.1667 %
4118 13-10-2019 13:00:00 21.43333 C 21.0000 %
4119 13-10-2019 14:00:00 23.05 C 20.0000 %
4120 13-10-2019 15:00:00 21.93333 C 20.0000 %
4121 13-10-2019 16:00:00 24.05 C 20.0000 %
4122 13-10-2019 17:00:00 23.58333 C 20.0000 %
4123 13-10-2019 18:00:00 19 C 20.6667 %
4124 13-10-2019 19:00:00 18.01667 C 22.3333 %
4125 13-10-2019 20:00:00 17.55 C 23.5000 %
Sensor: Nr:Datum:Temp:Feuchte:
Aussen-T/F 4126 13-10-2019 21:00:00 16.68333 C 25.0000 %
4127 13-10-2019 22:00:00 16.26667 C 24.3333 %
4128 13-10-2019 23:00:00 15.61667 C 25.1667 %
4129 14-10-2019 00:00:00 14.95 C 26.3333 %
4130 14-10-2019 01:00:00 14.63333 C 27.1667 %
4131 14-10-2019 02:00:00 14.05 C 28.5000 %
4132 14-10-2019 03:00:00 13.18333 C 32.3333 %
4133 14-10-2019 04:00:00 12.43333 C 35.0000 %
4134 14-10-2019 05:00:00 12.73333 C 35.6667 %
4135 14-10-2019 06:00:00 11.93333 C 35.0000 %
4136 14-10-2019 07:00:00 12.05 C 36.0000 %
4137 14-10-2019 08:00:00 12.41667 C 35.0000 %
4138 14-10-2019 09:00:00 12.96667 C 32.8333 %
4139 14-10-2019 10:00:00 13.38333 C 33.8333 %
4140 14-10-2019 11:00:00 15.03333 C 30.3333 %
4141 14-10-2019 12:00:00 17.28333 C 24.6667 %
4142 14-10-2019 13:00:00 20.71667 C 20.6667 %
4143 14-10-2019 14:00:00 22.36667 C 20.0000 %
4144 14-10-2019 15:00:00 20.68333 C 20.0000 %
4145 14-10-2019 16:00:00 22.68333 C 20.0000 %
4146 14-10-2019 17:00:00 21.81667 C 20.0000 %
4147 14-10-2019 18:00:00 18.16667 C 20.1667 %
4148 14-10-2019 19:00:00 16.53333 C 23.1667 %
4149 14-10-2019 20:00:00 15.86667 C 24.8333 %
4150 14-10-2019 21:00:00 14.83333 C 26.0000 %
Sensor: Nr:Datum:Temp:Feuchte:
Aussen-T/F 4151 14-10-2019 22:00:00 14.26667 C 29.1667 %
4152 14-10-2019 23:00:00 14.51667 C 27.0000 %
4153 15-10-2019 00:00:00 14.3 C 27.1667 %
4154 15-10-2019 01:00:00 13.48333 C 30.8333 %
4155 15-10-2019 02:00:00 12.55 C 33.8333 %
4156 15-10-2019 03:00:00 11.88333 C 36.0000 %
4157 15-10-2019 04:00:00 11.61667 C 36.1667 %
4158 15-10-2019 05:00:00 11.25 C 36.0000 %
4159 15-10-2019 06:00:00 11.43333 C 36.0000 %
4160 15-10-2019 07:00:00 11.25 C 36.0000 %
4161 15-10-2019 08:00:00 11.31667 C 36.0000 %
4162 15-10-2019 09:00:00 12.3 C 35.3333 %
4163 15-10-2019 10:00:00 13.6 C 30.3333 %
4164 15-10-2019 11:00:00 16.4 C 23.3333 %
4165 15-10-2019 12:00:00 18.33333 C 20.0000 %
4166 15-10-2019 13:00:00 18.31667 C 20.0000 %
4167 15-10-2019 14:00:00 17.83333 C 20.0000 %
4168 15-10-2019 15:00:00 16.98333 C 20.0000 %
4169 15-10-2019 16:00:00 16.76667 C 20.0000 %
4170 15-10-2019 17:00:00 15.36667 C 25.1667 %
4171 15-10-2019 18:00:00 14.16667 C 29.8333 %
4172 15-10-2019 19:00:00 13.65 C 32.5000 %
4173 15-10-2019 20:00:00 13.26667 C 35.0000 %
4174 15-10-2019 21:00:00 13.01667 C 35.0000 %
4175 15-10-2019 22:00:00 12.96667 C 33.8333 %
Sensor: Nr:Datum:Temp:Feuchte:
Aussen-T/F 4176 15-10-2019 23:00:00 12.51667 C 28.3333 %
4177 16-10-2019 00:00:00 11.63333 C 31.0000 %
4178 16-10-2019 01:00:00 11.35 C 35.0000 %
4179 16-10-2019 02:00:00 11.3 C 35.5000 %
4180 16-10-2019 03:00:00 11.38333 C 32.0000 %
4181 16-10-2019 04:00:00 11.33333 C 30.0000 %
4182 16-10-2019 05:00:00 11.08333 C 30.1667 %
4183 16-10-2019 06:00:00 11.21667 C 26.1667 %
4184 16-10-2019 07:00:00 10.58333 C 28.0000 %
4185 16-10-2019 08:00:00 10.21667 C 29.0000 %
4186 16-10-2019 09:00:00 11.01667 C 29.5000 %
4187 16-10-2019 10:00:00 13.03333 C 20.6667 %
4188 16-10-2019 11:00:00 14.45 C 20.0000 %
4189 16-10-2019 12:00:00 14.26667 C 20.8333 %
4190 16-10-2019 13:00:00 13.35 C 27.5000 %
4191 16-10-2019 14:00:00 13.01667 C 29.8333 %
4192 16-10-2019 15:00:00 14.1 C 25.6667 %
4193 16-10-2019 16:00:00 15.01667 C 22.5000 %
4194 16-10-2019 17:00:00 14.23333 C 26.5000 %
4195 16-10-2019 18:00:00 13.46667 C 32.0000 %
4196 16-10-2019 19:00:00 13.11667 C 34.1667 %
4197 16-10-2019 20:00:00 12.7 C 34.8333 %
4198 16-10-2019 21:00:00 12.11667 C 35.0000 %
4199 16-10-2019 22:00:00 12.05 C 34.8333 %
4200 16-10-2019 23:00:00 12.08333 C 32.3333 %
Sensor: Nr:Datum:Temp:Feuchte:
Aussen-T/F 4201 17-10-2019 00:00:00 12.31667 C 30.6667 %
4202 17-10-2019 01:00:00 11.86667 C 34.0000 %
4203 17-10-2019 02:00:00 12.01667 C 32.1667 %
4204 17-10-2019 03:00:00 12.61667 C 28.0000 %
4205 17-10-2019 04:00:00 13.36667 C 24.6667 %
4206 17-10-2019 05:00:00 13.85 C 22.5000 %
4207 17-10-2019 06:00:00 13.85 C 22.5000 %
4208 17-10-2019 07:00:00 13.8 C 23.5000 %
4209 17-10-2019 08:00:00 14.75 C 21.6667 %
4210 17-10-2019 09:00:00 15.43333 C 20.0000 %
4211 17-10-2019 10:00:00 16.21667 C 20.0000 %
4212 17-10-2019 11:00:00 17.03333 C 20.0000 %
4213 17-10-2019 12:00:00 16.63333 C 20.0000 %
4214 17-10-2019 13:00:00 17.06667 C 20.0000 %
4215 17-10-2019 14:00:00 16.65 C 20.0000 %
4216 17-10-2019 15:00:00 16.25 C 20.8333 %
4217 17-10-2019 16:00:00 14.73333 C 31.8333 %
4218 17-10-2019 17:00:00 14.33333 C 35.0000 %
4219 17-10-2019 18:00:00 13.88333 C 35.5000 %
4220 17-10-2019 19:00:00 13.51667 C 35.1667 %
4221 17-10-2019 20:00:00 13.46667 C 35.0000 %
4222 17-10-2019 21:00:00 13.41667 C 35.0000 %
4223 17-10-2019 22:00:00 13.35 C 35.0000 %
4224 17-10-2019 23:00:00 13.43333 C 35.0000 %
4225 18-10-2019 00:00:00 13.28333 C 34.3333 %
Sensor: Nr:Datum:Temp:Feuchte:
Aussen-T/F 4226 18-10-2019 01:00:00 12.2 C 35.0000 %
4227 18-10-2019 02:00:00 11.5 C 36.1667 %
4228 18-10-2019 03:00:00 10.91667 C 36.6667 %
4229 18-10-2019 04:00:00 10.88333 C 36.8333 %
4230 18-10-2019 05:00:00 11.33333 C 36.3333 %
4231 18-10-2019 06:00:00 12.05 C 35.3333 %
4232 18-10-2019 07:00:00 11.95 C 35.5000 %
4233 18-10-2019 08:00:00 12.36667 C 35.0000 %
4234 18-10-2019 09:00:00 13.08333 C 35.0000 %
4235 18-10-2019 10:00:00 14.33333 C 32.3333 %
4236 18-10-2019 11:00:00 15.58333 C 22.3333 %
4237 18-10-2019 12:00:00 16.58333 C 20.0000 %
4238 18-10-2019 13:00:00 14.03333 C 20.8333 %
4239 18-10-2019 14:00:00 13.33333 C 20.0000 %
4240 18-10-2019 15:00:00 14.25 C 20.0000 %
4241 18-10-2019 16:00:00 15.7 C 20.0000 %
4242 18-10-2019 17:00:00 16.05 C 20.0000 %
4243 18-10-2019 18:00:00 11.53333 C 20.5000 %
4244 18-10-2019 19:00:00 9.83333 C 26.1667 %
4245 18-10-2019 20:00:00 8.96667 C 30.8333 %
4246 18-10-2019 21:00:00 8.46667 C 34.0000 %
4247 18-10-2019 22:00:00 8.65 C 35.3333 %
4248 18-10-2019 23:00:00 8.61667 C 35.0000 %
4249 19-10-2019 00:00:00 8.85 C 32.6667 %
4250 19-10-2019 01:00:00 9.16667 C 29.6667 %
Sensor: Nr:Datum:Temp:Feuchte:
Aussen-T/F 4251 19-10-2019 02:00:00 9.13333 C 32.0000 %
4252 19-10-2019 03:00:00 9.33333 C 31.5000 %
4253 19-10-2019 04:00:00 9.63333 C 31.0000 %
4254 19-10-2019 05:00:00 10.3 C 28.8333 %
4255 19-10-2019 06:00:00 10.01667 C 30.6667 %
4256 19-10-2019 07:00:00 10.18333 C 30.6667 %
4257 19-10-2019 08:00:00 10.8 C 30.1667 %
4258 19-10-2019 09:00:00 12.08333 C 25.1667 %
4259 19-10-2019 10:00:00 13.13333 C 21.3333 %
4260 19-10-2019 11:00:00 13.85 C 23.0000 %
4261 19-10-2019 12:00:00 15.93333 C 20.0000 %
4262 19-10-2019 13:00:00 17.03333 C 20.0000 %
4263 19-10-2019 14:00:00 17.68333 C 20.0000 %
4264 19-10-2019 15:00:00 17.65 C 20.0000 %
4265 19-10-2019 16:00:00 17.83333 C 20.0000 %
4266 19-10-2019 17:00:00 16.21667 C 20.0000 %
4267 19-10-2019 18:00:00 13.8 C 31.6667 %
4268 19-10-2019 19:00:00 13.21667 C 36.0000 %
4269 19-10-2019 20:00:00 12.96667 C 35.8333 %
4270 19-10-2019 21:00:00 12.95 C 34.8333 %
4271 19-10-2019 22:00:00 12.61667 C 36.0000 %
4272 19-10-2019 23:00:00 12.38333 C 36.0000 %
4273 20-10-2019 00:00:00 12.46667 C 36.0000 %
4274 20-10-2019 01:00:00 12.6 C 36.0000 %
4275 20-10-2019 02:00:00 12.53333 C 35.1667 %
Sensor: Nr:Datum:Temp:Feuchte:
Aussen-T/F 4276 20-10-2019 03:00:00 12.55 C 35.0000 %
4277 20-10-2019 04:00:00 12.56667 C 35.0000 %
4278 20-10-2019 05:00:00 12.33333 C 35.0000 %
4279 20-10-2019 06:00:00 12.05 C 35.0000 %
4280 20-10-2019 07:00:00 12.05 C 35.0000 %
4281 20-10-2019 08:00:00 12.13333 C 35.0000 %
4282 20-10-2019 09:00:00 12.43333 C 35.0000 %
4283 20-10-2019 10:00:00 12.63333 C 34.8333 %
4284 20-10-2019 11:00:00 12.9 C 34.0000 %
4285 20-10-2019 12:00:00 13.38333 C 33.3333 %
4286 20-10-2019 13:00:00 13.58333 C 33.5000 %
4287 20-10-2019 14:00:00 13.88333 C 33.3333 %
4288 20-10-2019 15:00:00 14.06667 C 34.6667 %
4289 20-10-2019 16:00:00 14.46667 C 34.1667 %
4290 20-10-2019 17:00:00 14.21667 C 34.6667 %
4291 20-10-2019 18:00:00 13.83333 C 35.0000 %
4292 20-10-2019 19:00:00 13.6 C 35.0000 %
4293 20-10-2019 20:00:00 13.4 C 35.0000 %
4294 20-10-2019 21:00:00 13.51667 C 35.0000 %
4295 20-10-2019 22:00:00 13.41667 C 35.0000 %
4296 20-10-2019 23:00:00 13.48333 C 35.0000 %
4297 21-10-2019 00:00:00 13.75 C 34.8333 %
4298 21-10-2019 01:00:00 13.48333 C 34.0000 %
4299 21-10-2019 02:00:00 13.05 C 34.3333 %
4300 21-10-2019 03:00:00 13.01667 C 34.6667 %
Sensor: Nr:Datum:Temp:Feuchte:
Aussen-T/F 4301 21-10-2019 04:00:00 12.35 C 34.6667 %
4302 21-10-2019 05:00:00 12.83333 C 35.0000 %
4303 21-10-2019 06:00:00 13.03333 C 35.0000 %
4304 21-10-2019 07:00:00 12.36667 C 34.8333 %
4305 21-10-2019 08:00:00 12 C 34.6667 %
4306 21-10-2019 09:00:00 12.18333 C 35.0000 %
4307 21-10-2019 10:00:00 13.06667 C 37.0000 %
4308 21-10-2019 11:00:00 13.61667 C 32.6667 %
4309 21-10-2019 12:00:00 15.16667 C 25.1667 %
4310 21-10-2019 13:00:00 17.5 C 20.0000 %
4311 21-10-2019 14:00:00 16.86667 C 20.0000 %
4312 21-10-2019 15:00:00 16.68333 C 20.0000 %
4313 21-10-2019 16:00:00 15.63333 C 20.0000 %
4314 21-10-2019 17:00:00 14.33333 C 20.0000 %
4315 21-10-2019 18:00:00 13.05 C 20.1667 %
4316 21-10-2019 19:00:00 11.83333 C 24.8333 %
4317 21-10-2019 20:00:00 11.01667 C 28.3333 %
4318 21-10-2019 21:00:00 10.9 C 28.6667 %
4319 21-10-2019 22:00:00 11 C 28.5000 %
4320 21-10-2019 23:00:00 10.58333 C 28.5000 %
4321 22-10-2019 00:00:00 10.31667 C 30.6667 %
4322 22-10-2019 01:00:00 10.56667 C 30.6667 %
4323 22-10-2019 02:00:00 10.45 C 29.3333 %
4324 22-10-2019 03:00:00 10.41667 C 30.1667 %
4325 22-10-2019 04:00:00 9.88333 C 31.5000 %
Sensor: Nr:Datum:Temp:Feuchte:
Aussen-T/F 4326 22-10-2019 05:00:00 9.28333 C 34.5000 %
4327 22-10-2019 06:00:00 9.56667 C 33.6667 %
4328 22-10-2019 07:00:00 9.28333 C 34.0000 %
4329 22-10-2019 08:00:00 9.6 C 33.5000 %
4330 22-10-2019 09:00:00 10.48333 C 25.6667 %
4331 22-10-2019 10:00:00 11.93333 C 20.0000 %
4332 22-10-2019 11:00:00 13.33333 C 20.0000 %
4333 22-10-2019 12:00:00 13.98333 C 20.0000 %
4334 22-10-2019 13:00:00 16.81667 C 20.0000 %
4335 22-10-2019 14:00:00 16.21667 C 20.0000 %
4336 22-10-2019 15:00:00 14.16667 C 20.0000 %
4337 22-10-2019 16:00:00 14.18333 C 20.0000 %
4338 22-10-2019 17:00:00 14.91667 C 20.0000 %
4339 22-10-2019 18:00:00 11.5 C 22.3333 %
4340 22-10-2019 19:00:00 10.56667 C 30.3333 %
4341 22-10-2019 20:00:00 9.68333 C 34.1667 %
4342 22-10-2019 21:00:00 9.18333 C 36.0000 %
4343 22-10-2019 22:00:00 9.51667 C 36.8333 %
4344 22-10-2019 23:00:00 8.95 C 35.8333 %
4345 23-10-2019 00:00:00 7.96667 C 36.5000 %
4346 23-10-2019 01:00:00 7.66667 C 37.1667 %
4347 23-10-2019 02:00:00 7.31667 C 37.3333 %
4348 23-10-2019 03:00:00 7.21667 C 37.1667 %
4349 23-10-2019 04:00:00 6.96667 C 37.5000 %
4350 23-10-2019 05:00:00 7.8 C 37.1667 %
Sensor: Nr:Datum:Temp:Feuchte:
Aussen-T/F 4351 23-10-2019 06:00:00 7.53333 C 37.0000 %
4352 23-10-2019 07:00:00 7.13333 C 36.8333 %
4353 23-10-2019 08:00:00 7.38333 C 37.0000 %
4354 23-10-2019 09:00:00 8.36667 C 37.0000 %
4355 23-10-2019 10:00:00 9.48333 C 36.1667 %
4356 23-10-2019 11:00:00 11.23333 C 30.1667 %
4357 23-10-2019 12:00:00 12.33333 C 24.5000 %
4358 23-10-2019 13:00:00 13.46667 C 20.3333 %
4359 23-10-2019 14:00:00 14.3 C 20.0000 %
4360 23-10-2019 15:00:00 14.6 C 20.0000 %
4361 23-10-2019 16:00:00 15 C 20.0000 %
4362 23-10-2019 17:00:00 14.31667 C 23.3333 %
4363 23-10-2019 18:00:00 13.31667 C 27.6667 %
4364 23-10-2019 19:00:00 12.8 C 30.0000 %
4365 23-10-2019 20:00:00 12.8 C 30.0000 %
4366 23-10-2019 21:00:00 12.75 C 30.0000 %
4367 23-10-2019 22:00:00 12.45 C 31.5000 %
4368 23-10-2019 23:00:00 12.21667 C 32.5000 %
4369 24-10-2019 00:00:00 11.66667 C 35.1667 %
4370 24-10-2019 01:00:00 11.61667 C 36.5000 %
4371 24-10-2019 02:00:00 11.6 C 35.5000 %
4372 24-10-2019 03:00:00 11 C 36.3333 %
4373 24-10-2019 04:00:00 10.78333 C 37.0000 %
4374 24-10-2019 05:00:00 11.31667 C 36.0000 %
4375 24-10-2019 06:00:00 11.43333 C 36.0000 %
Sensor: Nr:Datum:Temp:Feuchte:
Aussen-T/F 4376 24-10-2019 07:00:00 11.81667 C 35.0000 %
4377 24-10-2019 08:00:00 12.18333 C 32.8333 %
4378 24-10-2019 09:00:00 12.78333 C 30.3333 %
4379 24-10-2019 10:00:00 14 C 25.3333 %
4380 24-10-2019 11:00:00 15.15 C 20.0000 %
4381 24-10-2019 12:00:00 15.1 C 22.8333 %
4382 24-10-2019 13:00:00 17.7 C 20.1667 %
4383 24-10-2019 14:00:00 17.95 C 20.0000 %
4384 24-10-2019 15:00:00 18.96667 C 20.0000 %
4385 24-10-2019 16:00:00 19.4 C 20.0000 %
4386 24-10-2019 17:00:00 18.1 C 20.0000 %
4387 24-10-2019 18:00:00 14.98333 C 20.0000 %
4388 24-10-2019 19:00:00 13.9 C 22.1667 %
4389 24-10-2019 20:00:00 13.23333 C 24.8333 %
4390 24-10-2019 21:00:00 12.81667 C 25.8333 %
4391 24-10-2019 22:00:00 12.41667 C 29.5000 %
4392 24-10-2019 23:00:00 12.53333 C 28.8333 %
4393 25-10-2019 00:00:00 11.41667 C 34.6667 %
4394 25-10-2019 01:00:00 11.08333 C 35.0000 %
4395 25-10-2019 02:00:00 11.05 C 34.3333 %
4396 25-10-2019 03:00:00 12.13333 C 26.6667 %
4397 25-10-2019 04:00:00 12.75 C 23.5000 %
4398 25-10-2019 05:00:00 12.2 C 24.3333 %
4399 25-10-2019 06:00:00 12.75 C 23.3333 %
4400 25-10-2019 07:00:00 12.86667 C 23.5000 %
Sensor: Nr:Datum:Temp:Feuchte:
Aussen-T/F 4401 25-10-2019 08:00:00 12.05 C 27.1667 %
4402 25-10-2019 09:00:00 12.95 C 23.5000 %
4403 25-10-2019 10:00:00 13.88333 C 21.0000 %
4404 25-10-2019 11:00:00 15 C 20.0000 %
4405 25-10-2019 12:00:00 15.48333 C 20.0000 %
4406 25-10-2019 13:00:00 16.91667 C 20.0000 %
4407 25-10-2019 14:00:00 17.06667 C 20.0000 %
4408 25-10-2019 15:00:00 16.71667 C 20.0000 %
4409 25-10-2019 16:00:00 16.83333 C 20.0000 %
4410 25-10-2019 17:00:00 15 C 20.0000 %
4411 25-10-2019 18:00:00 12.18333 C 21.0000 %
4412 25-10-2019 19:00:00 11.16667 C 26.8333 %
4413 25-10-2019 20:00:00 10.65 C 28.8333 %
4414 25-10-2019 21:00:00 10.23333 C 30.8333 %
4415 25-10-2019 22:00:00 11.08333 C 30.0000 %
4416 25-10-2019 23:00:00 12.43333 C 24.1667 %
4417 26-10-2019 00:00:00 13.36667 C 20.0000 %
4418 26-10-2019 01:00:00 13.45 C 20.0000 %
4419 26-10-2019 02:00:00 12.43333 C 23.6667 %
4420 26-10-2019 03:00:00 11.06667 C 31.5000 %
4421 26-10-2019 04:00:00 11.1 C 33.3333 %
4422 26-10-2019 05:00:00 11.75 C 27.3333 %
4423 26-10-2019 06:00:00 10.9 C 34.1667 %
4424 26-10-2019 07:00:00 9.9 C 35.6667 %
4425 26-10-2019 08:00:00 9.11667 C 37.3333 %
Sensor: Nr:Datum:Temp:Feuchte:
Aussen-T/F 4426 26-10-2019 09:00:00 9.78333 C 36.6667 %
4427 26-10-2019 10:00:00 11.06667 C 33.8333 %
4428 26-10-2019 11:00:00 12.88333 C 28.6667 %
4429 26-10-2019 12:00:00 14.48333 C 23.1667 %
4430 26-10-2019 13:00:00 16.76667 C 20.1667 %
4431 26-10-2019 14:00:00 17.38333 C 20.0000 %
4432 26-10-2019 15:00:00 16.66667 C 20.0000 %
4433 26-10-2019 16:00:00 16.08333 C 20.0000 %
4434 26-10-2019 17:00:00 14.28333 C 22.3333 %
4435 26-10-2019 18:00:00 12.65 C 26.0000 %
4436 26-10-2019 19:00:00 11.88333 C 29.6667 %
4437 26-10-2019 20:00:00 12.21667 C 27.8333 %
4438 26-10-2019 21:00:00 12.1 C 29.0000 %
4439 26-10-2019 22:00:00 11.78333 C 32.3333 %
4440 26-10-2019 23:00:00 12.31667 C 28.3333 %
4441 27-10-2019 00:00:00 13.2 C 22.5000 %
4442 27-10-2019 01:00:00 12.8 C 22.6667 %
4443 27-10-2019 02:00:00 12.08333 C 26.0000 %
4444 27-10-2019 03:00:00 12.03333 C 25.5000 %
4445 27-10-2019 04:00:00 11.44167 C 29.0000 %
4446 27-10-2019 05:00:00 13.2 C 20.8333 %
4447 27-10-2019 06:00:00 14.51667 C 20.0000 %
4448 27-10-2019 07:00:00 13.3 C 23.8333 %
4449 27-10-2019 08:00:00 11 C 30.3333 %
4450 27-10-2019 09:00:00 9.48333 C 30.6667 %
Sensor: Nr:Datum:Temp:Feuchte:
Aussen-T/F 4451 27-10-2019 10:00:00 9.08333 C 32.8333 %
4452 27-10-2019 11:00:00 9.55 C 28.6667 %
4453 27-10-2019 12:00:00 9.28333 C 29.1667 %
4454 27-10-2019 13:00:00 9.2 C 30.1667 %
4455 27-10-2019 14:00:00 8.76667 C 32.6667 %
4456 27-10-2019 15:00:00 8.68333 C 33.6667 %
4457 27-10-2019 16:00:00 8.28333 C 35.3333 %
4458 27-10-2019 17:00:00 7.86667 C 37.8333 %
4459 27-10-2019 18:00:00 7.81667 C 38.0000 %
4460 27-10-2019 19:00:00 7.68333 C 38.0000 %
4461 27-10-2019 20:00:00 6.53333 C 38.1667 %
4462 27-10-2019 21:00:00 5.9 C 38.5000 %
4463 27-10-2019 22:00:00 4.65 C 38.8333 %
4464 27-10-2019 23:00:00 4.31667 C 39.6667 %
4465 28-10-2019 00:00:00 4.71667 C 39.1667 %
4466 28-10-2019 01:00:00 5.16667 C 38.1667 %
4467 28-10-2019 02:00:00 4.66667 C 38.3333 %
4468 28-10-2019 03:00:00 4.7 C 39.0000 %
4469 28-10-2019 04:00:00 4.5 C 39.0000 %
4470 28-10-2019 05:00:00 4.46667 C 39.0000 %
4471 28-10-2019 06:00:00 4.38333 C 38.1667 %
4472 28-10-2019 07:00:00 4.68333 C 38.8333 %
4473 28-10-2019 08:00:00 5.08333 C 38.0000 %
4474 28-10-2019 09:00:00 5.43333 C 38.0000 %
4475 28-10-2019 10:00:00 5.83333 C 36.3333 %
Sensor: Nr:Datum:Temp:Feuchte:
Aussen-T/F 4476 28-10-2019 11:00:00 6.43333 C 34.1667 %
4477 28-10-2019 12:00:00 6.7 C 30.5000 %
4478 28-10-2019 13:00:00 7.43333 C 28.1667 %
4479 28-10-2019 14:00:00 7.86667 C 22.8333 %
4480 28-10-2019 15:00:00 7.98333 C 22.6667 %
4481 28-10-2019 16:00:00 6.85 C 31.8333 %
4482 28-10-2019 17:00:00 6.46667 C 36.3333 %
4483 28-10-2019 18:00:00 6.66667 C 36.1667 %
4484 28-10-2019 19:00:00 6.53333 C 36.8333 %
4485 28-10-2019 20:00:00 6.46667 C 37.8333 %
4486 28-10-2019 21:00:00 6.3 C 37.0000 %
4487 28-10-2019 22:00:00 6.36667 C 35.6667 %
4488 28-10-2019 23:00:00 6.28333 C 32.8333 %
4489 29-10-2019 00:00:00 6.21667 C 32.5000 %
4490 29-10-2019 01:00:00 5.91667 C 32.8333 %
4491 29-10-2019 02:00:00 5.81667 C 32.8333 %
4492 29-10-2019 03:00:00 5.76667 C 32.8333 %
4493 29-10-2019 04:00:00 5.7 C 33.1667 %
4494 29-10-2019 05:00:00 5.71667 C 32.5000 %
4495 29-10-2019 06:00:00 5.58333 C 32.0000 %
4496 29-10-2019 07:00:00 5.45 C 32.5000 %
4497 29-10-2019 08:00:00 6.03333 C 28.8333 %
4498 29-10-2019 09:00:00 6.76667 C 23.1667 %
4499 29-10-2019 10:00:00 8.13333 C 20.0000 %
4500 29-10-2019 11:00:00 9 C 20.0000 %
Sensor: Nr:Datum:Temp:Feuchte:
Aussen-T/F 4501 29-10-2019 12:00:00 9.78333 C 20.0000 %
4502 29-10-2019 13:00:00 10.45 C 20.0000 %
4503 29-10-2019 14:00:00 10.76667 C 20.0000 %
4504 29-10-2019 15:00:00 9.35 C 20.0000 %
4505 29-10-2019 16:00:00 9.51667 C 20.0000 %
4506 29-10-2019 17:00:00 6 C 25.0000 %
4507 29-10-2019 18:00:00 4.85 C 29.3333 %
4508 29-10-2019 19:00:00 3.53333 C 36.3333 %
4509 29-10-2019 20:00:00 3.15 C 38.3333 %
4510 29-10-2019 21:00:00 2.26667 C 39.8333 %
4511 29-10-2019 22:00:00 1.76667 C 40.8333 %
4512 29-10-2019 23:00:00 1.55 C 41.0000 %
4513 30-10-2019 00:00:00 1.3 C 41.6667 %
4514 30-10-2019 01:00:00 1.11667 C 41.3333 %
4515 30-10-2019 02:00:00 1.46667 C 41.5000 %
4516 30-10-2019 03:00:00 0.46667 C 41.3333 %
4517 30-10-2019 04:00:00 0.5 C 41.6667 %
4518 30-10-2019 05:00:00 0.86667 C 41.8333 %
4519 30-10-2019 06:00:00 0.55 C 42.0000 %
4520 30-10-2019 07:00:00 0.91667 C 41.5000 %
4521 30-10-2019 08:00:00 1.31667 C 41.0000 %
4522 30-10-2019 09:00:00 2.11667 C 40.1667 %
4523 30-10-2019 10:00:00 4.16667 C 35.3333 %
4524 30-10-2019 11:00:00 5.46667 C 29.0000 %
4525 30-10-2019 12:00:00 6.58333 C 25.3333 %
Sensor: Nr:Datum:Temp:Feuchte:
Aussen-T/F 4526 30-10-2019 13:00:00 7.21667 C 20.3333 %
4527 30-10-2019 14:00:00 7.45 C 20.0000 %
4528 30-10-2019 15:00:00 7.18333 C 20.1667 %
4529 30-10-2019 16:00:00 6.08333 C